<?xml version="1.0" encoding="UTF-8" standalone="no" ?>
<gpx xmlns="http://www.topografix.com/GPX/1/1" xmlns:xsi="http://www.w3.org/2001/XMLSchema-instance" xsi:schemaLocation="http://www.topografix.com/GPX/1/1 http://www.topografix.com/GPX/1/1/gpx.xsd" version="1.1" creator="VisuGPX - https://www.visugpx.com">
  <metadata>
    <name>Circuit Montaud 20km</name>
    <desc><![CDATA[Circuit Montaud 20km. Belle vues panoramiques]]></desc>
  </metadata>
  <trk>
    <name><![CDATA[Montaud Course à pied]]></name>
    <trkseg>
      <trkpt lat="43.75007" lon="3.95709">
        <ele>102.80000305176</ele>
        <time>2016-12-18T08:29:58.000Z</time>
      </trkpt>
      <trkpt lat="43.75009" lon="3.95704">
        <ele>102.80000305176</ele>
        <time>2016-12-18T08:30:00.000Z</time>
      </trkpt>
      <trkpt lat="43.75011" lon="3.95689">
        <ele>103</ele>
        <time>2016-12-18T08:30:03.000Z</time>
      </trkpt>
      <trkpt lat="43.75011" lon="3.95672">
        <ele>102.80000305176</ele>
        <time>2016-12-18T08:30:06.000Z</time>
      </trkpt>
      <trkpt lat="43.75009" lon="3.95663">
        <ele>102.80000305176</ele>
        <time>2016-12-18T08:30:08.000Z</time>
      </trkpt>
      <trkpt lat="43.7504" lon="3.95579">
        <ele>102.59999847412</ele>
        <time>2016-12-18T08:30:12.000Z</time>
      </trkpt>
      <trkpt lat="43.7504" lon="3.95571">
        <ele>102.59999847412</ele>
        <time>2016-12-18T08:30:13.000Z</time>
      </trkpt>
      <trkpt lat="43.75042" lon="3.95545">
        <ele>102.40000152588</ele>
        <time>2016-12-18T08:30:17.000Z</time>
      </trkpt>
      <trkpt lat="43.75041" lon="3.95533">
        <ele>102.59999847412</ele>
        <time>2016-12-18T08:30:20.000Z</time>
      </trkpt>
      <trkpt lat="43.75039" lon="3.95526">
        <ele>102.59999847412</ele>
        <time>2016-12-18T08:30:22.000Z</time>
      </trkpt>
      <trkpt lat="43.75036" lon="3.95515">
        <ele>102.59999847412</ele>
        <time>2016-12-18T08:30:26.000Z</time>
      </trkpt>
      <trkpt lat="43.75032" lon="3.95499">
        <ele>102.80000305176</ele>
        <time>2016-12-18T08:30:32.000Z</time>
      </trkpt>
      <trkpt lat="43.75026" lon="3.95485">
        <ele>102.80000305176</ele>
        <time>2016-12-18T08:30:38.000Z</time>
      </trkpt>
      <trkpt lat="43.75017" lon="3.95464">
        <ele>103</ele>
        <time>2016-12-18T08:30:46.000Z</time>
      </trkpt>
      <trkpt lat="43.75009" lon="3.95447">
        <ele>103.19999694824</ele>
        <time>2016-12-18T08:30:52.000Z</time>
      </trkpt>
      <trkpt lat="43.75001" lon="3.95429">
        <ele>103.80000305176</ele>
        <time>2016-12-18T08:30:59.000Z</time>
      </trkpt>
      <trkpt lat="43.74991" lon="3.95408">
        <ele>104.59999847412</ele>
        <time>2016-12-18T08:31:07.000Z</time>
      </trkpt>
      <trkpt lat="43.74982" lon="3.95391">
        <ele>105.40000152588</ele>
        <time>2016-12-18T08:31:14.000Z</time>
      </trkpt>
      <trkpt lat="43.74977" lon="3.95381">
        <ele>105.80000305176</ele>
        <time>2016-12-18T08:31:18.000Z</time>
      </trkpt>
      <trkpt lat="43.74969" lon="3.95371">
        <ele>106.40000152588</ele>
        <time>2016-12-18T08:31:22.000Z</time>
      </trkpt>
      <trkpt lat="43.74956" lon="3.95354">
        <ele>107</ele>
        <time>2016-12-18T08:31:29.000Z</time>
      </trkpt>
      <trkpt lat="43.74954" lon="3.95352">
        <ele>107.19999694824</ele>
        <time>2016-12-18T08:31:30.000Z</time>
      </trkpt>
      <trkpt lat="43.74941" lon="3.95338">
        <ele>107.40000152588</ele>
        <time>2016-12-18T08:31:37.000Z</time>
      </trkpt>
      <trkpt lat="43.74925" lon="3.9533">
        <ele>107.59999847412</ele>
        <time>2016-12-18T08:31:44.000Z</time>
      </trkpt>
      <trkpt lat="43.74912" lon="3.95322">
        <ele>107.80000305176</ele>
        <time>2016-12-18T08:31:50.000Z</time>
      </trkpt>
      <trkpt lat="43.74896" lon="3.95312">
        <ele>108.19999694824</ele>
        <time>2016-12-18T08:31:57.000Z</time>
      </trkpt>
      <trkpt lat="43.74881" lon="3.95302">
        <ele>108.40000152588</ele>
        <time>2016-12-18T08:32:04.000Z</time>
      </trkpt>
      <trkpt lat="43.74868" lon="3.95287">
        <ele>108.59999847412</ele>
        <time>2016-12-18T08:32:10.000Z</time>
      </trkpt>
      <trkpt lat="43.74856" lon="3.95277">
        <ele>109</ele>
        <time>2016-12-18T08:32:15.000Z</time>
      </trkpt>
      <trkpt lat="43.7484" lon="3.95267">
        <ele>110.40000152588</ele>
        <time>2016-12-18T08:32:23.000Z</time>
      </trkpt>
      <trkpt lat="43.74829" lon="3.95261">
        <ele>111.59999847412</ele>
        <time>2016-12-18T08:32:29.000Z</time>
      </trkpt>
      <trkpt lat="43.74814" lon="3.95251">
        <ele>113.19999694824</ele>
        <time>2016-12-18T08:32:36.000Z</time>
      </trkpt>
      <trkpt lat="43.74804" lon="3.95239">
        <ele>114.40000152588</ele>
        <time>2016-12-18T08:32:42.000Z</time>
      </trkpt>
      <trkpt lat="43.74796" lon="3.95226">
        <ele>115.59999847412</ele>
        <time>2016-12-18T08:32:48.000Z</time>
      </trkpt>
      <trkpt lat="43.74783" lon="3.95216">
        <ele>117</ele>
        <time>2016-12-18T08:32:55.000Z</time>
      </trkpt>
      <trkpt lat="43.74771" lon="3.95209">
        <ele>118.40000152588</ele>
        <time>2016-12-18T08:33:02.000Z</time>
      </trkpt>
      <trkpt lat="43.74758" lon="3.95208">
        <ele>118.80000305176</ele>
        <time>2016-12-18T08:33:09.000Z</time>
      </trkpt>
      <trkpt lat="43.74746" lon="3.95207">
        <ele>119.40000152588</ele>
        <time>2016-12-18T08:33:15.000Z</time>
      </trkpt>
      <trkpt lat="43.74734" lon="3.95199">
        <ele>120</ele>
        <time>2016-12-18T08:33:22.000Z</time>
      </trkpt>
      <trkpt lat="43.74722" lon="3.95186">
        <ele>121</ele>
        <time>2016-12-18T08:33:29.000Z</time>
      </trkpt>
      <trkpt lat="43.74714" lon="3.95174">
        <ele>122</ele>
        <time>2016-12-18T08:33:35.000Z</time>
      </trkpt>
      <trkpt lat="43.74708" lon="3.9516">
        <ele>123</ele>
        <time>2016-12-18T08:33:41.000Z</time>
      </trkpt>
      <trkpt lat="43.74701" lon="3.95148">
        <ele>124</ele>
        <time>2016-12-18T08:33:47.000Z</time>
      </trkpt>
      <trkpt lat="43.74691" lon="3.95133">
        <ele>125.40000152588</ele>
        <time>2016-12-18T08:33:54.000Z</time>
      </trkpt>
      <trkpt lat="43.74681" lon="3.95114">
        <ele>127.19999694824</ele>
        <time>2016-12-18T08:34:02.000Z</time>
      </trkpt>
      <trkpt lat="43.74681" lon="3.95103">
        <ele>127.80000305176</ele>
        <time>2016-12-18T08:34:06.000Z</time>
      </trkpt>
      <trkpt lat="43.74686" lon="3.95085">
        <ele>127.40000152588</ele>
        <time>2016-12-18T08:34:12.000Z</time>
      </trkpt>
      <trkpt lat="43.74688" lon="3.95063">
        <ele>127.59999847412</ele>
        <time>2016-12-18T08:34:19.000Z</time>
      </trkpt>
      <trkpt lat="43.74682" lon="3.95044">
        <ele>128.60000610352</ele>
        <time>2016-12-18T08:34:26.000Z</time>
      </trkpt>
      <trkpt lat="43.74677" lon="3.95033">
        <ele>129.19999694824</ele>
        <time>2016-12-18T08:34:30.000Z</time>
      </trkpt>
      <trkpt lat="43.74674" lon="3.95012">
        <ele>130.39999389648</ele>
        <time>2016-12-18T08:34:37.000Z</time>
      </trkpt>
      <trkpt lat="43.74675" lon="3.94993">
        <ele>131.60000610352</ele>
        <time>2016-12-18T08:34:43.000Z</time>
      </trkpt>
      <trkpt lat="43.74682" lon="3.94979">
        <ele>131.80000305176</ele>
        <time>2016-12-18T08:34:49.000Z</time>
      </trkpt>
      <trkpt lat="43.74688" lon="3.94966">
        <ele>132.19999694824</ele>
        <time>2016-12-18T08:34:54.000Z</time>
      </trkpt>
      <trkpt lat="43.74693" lon="3.94948">
        <ele>132.80000305176</ele>
        <time>2016-12-18T08:35:00.000Z</time>
      </trkpt>
      <trkpt lat="43.74699" lon="3.94939">
        <ele>133.19999694824</ele>
        <time>2016-12-18T08:35:04.000Z</time>
      </trkpt>
      <trkpt lat="43.74702" lon="3.94938">
        <ele>133</ele>
        <time>2016-12-18T08:35:05.000Z</time>
      </trkpt>
      <trkpt lat="43.74713" lon="3.94923">
        <ele>133.39999389648</ele>
        <time>2016-12-18T08:35:12.000Z</time>
      </trkpt>
      <trkpt lat="43.74725" lon="3.9491">
        <ele>133.60000610352</ele>
        <time>2016-12-18T08:35:18.000Z</time>
      </trkpt>
      <trkpt lat="43.74735" lon="3.949">
        <ele>133.19999694824</ele>
        <time>2016-12-18T08:35:23.000Z</time>
      </trkpt>
      <trkpt lat="43.74746" lon="3.94886">
        <ele>132.19999694824</ele>
        <time>2016-12-18T08:35:29.000Z</time>
      </trkpt>
      <trkpt lat="43.74755" lon="3.94875">
        <ele>131.39999389648</ele>
        <time>2016-12-18T08:35:34.000Z</time>
      </trkpt>
      <trkpt lat="43.74757" lon="3.9487">
        <ele>131.39999389648</ele>
        <time>2016-12-18T08:35:36.000Z</time>
      </trkpt>
      <trkpt lat="43.74758" lon="3.94861">
        <ele>131.60000610352</ele>
        <time>2016-12-18T08:35:39.000Z</time>
      </trkpt>
      <trkpt lat="43.74752" lon="3.94849">
        <ele>133</ele>
        <time>2016-12-18T08:35:44.000Z</time>
      </trkpt>
      <trkpt lat="43.74739" lon="3.94834">
        <ele>135.80000305176</ele>
        <time>2016-12-18T08:35:49.000Z</time>
      </trkpt>
      <trkpt lat="43.74728" lon="3.94824">
        <ele>138</ele>
        <time>2016-12-18T08:35:55.000Z</time>
      </trkpt>
      <trkpt lat="43.74715" lon="3.94811">
        <ele>140.80000305176</ele>
        <time>2016-12-18T08:36:02.000Z</time>
      </trkpt>
      <trkpt lat="43.74702" lon="3.948">
        <ele>143.19999694824</ele>
        <time>2016-12-18T08:36:08.000Z</time>
      </trkpt>
      <trkpt lat="43.74698" lon="3.94787">
        <ele>144.80000305176</ele>
        <time>2016-12-18T08:36:12.000Z</time>
      </trkpt>
      <trkpt lat="43.74698" lon="3.94784">
        <ele>144.80000305176</ele>
        <time>2016-12-18T08:36:13.000Z</time>
      </trkpt>
      <trkpt lat="43.747" lon="3.94768">
        <ele>144.80000305176</ele>
        <time>2016-12-18T08:36:18.000Z</time>
      </trkpt>
      <trkpt lat="43.74703" lon="3.94753">
        <ele>145.60000610352</ele>
        <time>2016-12-18T08:36:23.000Z</time>
      </trkpt>
      <trkpt lat="43.74706" lon="3.94738">
        <ele>146.60000610352</ele>
        <time>2016-12-18T08:36:28.000Z</time>
      </trkpt>
      <trkpt lat="43.74707" lon="3.94719">
        <ele>148.19999694824</ele>
        <time>2016-12-18T08:36:34.000Z</time>
      </trkpt>
      <trkpt lat="43.74708" lon="3.94704">
        <ele>149</ele>
        <time>2016-12-18T08:36:39.000Z</time>
      </trkpt>
      <trkpt lat="43.74707" lon="3.94686">
        <ele>149.39999389648</ele>
        <time>2016-12-18T08:36:45.000Z</time>
      </trkpt>
      <trkpt lat="43.74706" lon="3.94667">
        <ele>148.60000610352</ele>
        <time>2016-12-18T08:36:51.000Z</time>
      </trkpt>
      <trkpt lat="43.74705" lon="3.94649">
        <ele>147.80000305176</ele>
        <time>2016-12-18T08:36:57.000Z</time>
      </trkpt>
      <trkpt lat="43.74697" lon="3.94633">
        <ele>149</ele>
        <time>2016-12-18T08:37:03.000Z</time>
      </trkpt>
      <trkpt lat="43.74685" lon="3.94624">
        <ele>151.60000610352</ele>
        <time>2016-12-18T08:37:09.000Z</time>
      </trkpt>
      <trkpt lat="43.74675" lon="3.94614">
        <ele>153.60000610352</ele>
        <time>2016-12-18T08:37:14.000Z</time>
      </trkpt>
      <trkpt lat="43.74667" lon="3.94597">
        <ele>153.60000610352</ele>
        <time>2016-12-18T08:37:20.000Z</time>
      </trkpt>
      <trkpt lat="43.74661" lon="3.94581">
        <ele>152.60000610352</ele>
        <time>2016-12-18T08:37:26.000Z</time>
      </trkpt>
      <trkpt lat="43.74653" lon="3.94563">
        <ele>152.60000610352</ele>
        <time>2016-12-18T08:37:33.000Z</time>
      </trkpt>
      <trkpt lat="43.74646" lon="3.94553">
        <ele>153</ele>
        <time>2016-12-18T08:37:38.000Z</time>
      </trkpt>
      <trkpt lat="43.74636" lon="3.9454">
        <ele>153.80000305176</ele>
        <time>2016-12-18T08:37:44.000Z</time>
      </trkpt>
      <trkpt lat="43.74627" lon="3.94528">
        <ele>154.39999389648</ele>
        <time>2016-12-18T08:37:50.000Z</time>
      </trkpt>
      <trkpt lat="43.74615" lon="3.94513">
        <ele>155.39999389648</ele>
        <time>2016-12-18T08:37:57.000Z</time>
      </trkpt>
      <trkpt lat="43.74606" lon="3.94504">
        <ele>156.39999389648</ele>
        <time>2016-12-18T08:38:02.000Z</time>
      </trkpt>
      <trkpt lat="43.74602" lon="3.94498">
        <ele>156.60000610352</ele>
        <time>2016-12-18T08:38:05.000Z</time>
      </trkpt>
      <trkpt lat="43.74597" lon="3.94495">
        <ele>157</ele>
        <time>2016-12-18T08:38:07.000Z</time>
      </trkpt>
      <trkpt lat="43.74586" lon="3.94484">
        <ele>157.60000610352</ele>
        <time>2016-12-18T08:38:13.000Z</time>
      </trkpt>
      <trkpt lat="43.74577" lon="3.94472">
        <ele>157.80000305176</ele>
        <time>2016-12-18T08:38:19.000Z</time>
      </trkpt>
      <trkpt lat="43.74566" lon="3.94459">
        <ele>158.19999694824</ele>
        <time>2016-12-18T08:38:25.000Z</time>
      </trkpt>
      <trkpt lat="43.74558" lon="3.94448">
        <ele>158.39999389648</ele>
        <time>2016-12-18T08:38:30.000Z</time>
      </trkpt>
      <trkpt lat="43.74548" lon="3.94435">
        <ele>159.19999694824</ele>
        <time>2016-12-18T08:38:36.000Z</time>
      </trkpt>
      <trkpt lat="43.74537" lon="3.94423">
        <ele>160.39999389648</ele>
        <time>2016-12-18T08:38:42.000Z</time>
      </trkpt>
      <trkpt lat="43.74528" lon="3.94414">
        <ele>161.60000610352</ele>
        <time>2016-12-18T08:38:47.000Z</time>
      </trkpt>
      <trkpt lat="43.74515" lon="3.94406">
        <ele>162.19999694824</ele>
        <time>2016-12-18T08:38:53.000Z</time>
      </trkpt>
      <trkpt lat="43.74501" lon="3.94396">
        <ele>161.60000610352</ele>
        <time>2016-12-18T08:39:00.000Z</time>
      </trkpt>
      <trkpt lat="43.7449" lon="3.94387">
        <ele>161.19999694824</ele>
        <time>2016-12-18T08:39:06.000Z</time>
      </trkpt>
      <trkpt lat="43.7448" lon="3.94376">
        <ele>160.80000305176</ele>
        <time>2016-12-18T08:39:12.000Z</time>
      </trkpt>
      <trkpt lat="43.7447" lon="3.94362">
        <ele>160.39999389648</ele>
        <time>2016-12-18T08:39:18.000Z</time>
      </trkpt>
      <trkpt lat="43.74463" lon="3.94349">
        <ele>160.39999389648</ele>
        <time>2016-12-18T08:39:23.000Z</time>
      </trkpt>
      <trkpt lat="43.74454" lon="3.94332">
        <ele>160.39999389648</ele>
        <time>2016-12-18T08:39:29.000Z</time>
      </trkpt>
      <trkpt lat="43.74448" lon="3.94315">
        <ele>160.60000610352</ele>
        <time>2016-12-18T08:39:35.000Z</time>
      </trkpt>
      <trkpt lat="43.74441" lon="3.94299">
        <ele>160.60000610352</ele>
        <time>2016-12-18T08:39:41.000Z</time>
      </trkpt>
      <trkpt lat="43.74436" lon="3.94276">
        <ele>160.80000305176</ele>
        <time>2016-12-18T08:39:48.000Z</time>
      </trkpt>
      <trkpt lat="43.74432" lon="3.94252">
        <ele>161</ele>
        <time>2016-12-18T08:39:55.000Z</time>
      </trkpt>
      <trkpt lat="43.74434" lon="3.94242">
        <ele>161.60000610352</ele>
        <time>2016-12-18T08:40:00.000Z</time>
      </trkpt>
      <trkpt lat="43.74436" lon="3.94243">
        <ele>161.80000305176</ele>
        <time>2016-12-18T08:40:01.000Z</time>
      </trkpt>
      <trkpt lat="43.74438" lon="3.94252">
        <ele>162</ele>
        <time>2016-12-18T08:40:04.000Z</time>
      </trkpt>
      <trkpt lat="43.7444" lon="3.94255">
        <ele>162</ele>
        <time>2016-12-18T08:40:05.000Z</time>
      </trkpt>
      <trkpt lat="43.74442" lon="3.94256">
        <ele>162.39999389648</ele>
        <time>2016-12-18T08:40:06.000Z</time>
      </trkpt>
      <trkpt lat="43.74449" lon="3.94257">
        <ele>163.39999389648</ele>
        <time>2016-12-18T08:40:09.000Z</time>
      </trkpt>
      <trkpt lat="43.74455" lon="3.94254">
        <ele>164.39999389648</ele>
        <time>2016-12-18T08:40:12.000Z</time>
      </trkpt>
      <trkpt lat="43.74459" lon="3.94251">
        <ele>165.19999694824</ele>
        <time>2016-12-18T08:40:14.000Z</time>
      </trkpt>
      <trkpt lat="43.74469" lon="3.94247">
        <ele>166.80000305176</ele>
        <time>2016-12-18T08:40:18.000Z</time>
      </trkpt>
      <trkpt lat="43.74471" lon="3.94243">
        <ele>167.39999389648</ele>
        <time>2016-12-18T08:40:20.000Z</time>
      </trkpt>
      <trkpt lat="43.74473" lon="3.94238">
        <ele>167.80000305176</ele>
        <time>2016-12-18T08:40:22.000Z</time>
      </trkpt>
      <trkpt lat="43.74474" lon="3.94222">
        <ele>168.60000610352</ele>
        <time>2016-12-18T08:40:28.000Z</time>
      </trkpt>
      <trkpt lat="43.74474" lon="3.94205">
        <ele>169.39999389648</ele>
        <time>2016-12-18T08:40:34.000Z</time>
      </trkpt>
      <trkpt lat="43.74477" lon="3.94189">
        <ele>170.60000610352</ele>
        <time>2016-12-18T08:40:40.000Z</time>
      </trkpt>
      <trkpt lat="43.74483" lon="3.94173">
        <ele>171.39999389648</ele>
        <time>2016-12-18T08:40:46.000Z</time>
      </trkpt>
      <trkpt lat="43.74488" lon="3.94161">
        <ele>172</ele>
        <time>2016-12-18T08:40:51.000Z</time>
      </trkpt>
      <trkpt lat="43.74496" lon="3.94145">
        <ele>172.60000610352</ele>
        <time>2016-12-18T08:40:57.000Z</time>
      </trkpt>
      <trkpt lat="43.74508" lon="3.94131">
        <ele>173.39999389648</ele>
        <time>2016-12-18T08:41:03.000Z</time>
      </trkpt>
      <trkpt lat="43.74518" lon="3.94121">
        <ele>174.19999694824</ele>
        <time>2016-12-18T08:41:08.000Z</time>
      </trkpt>
      <trkpt lat="43.74528" lon="3.94112">
        <ele>175.39999389648</ele>
        <time>2016-12-18T08:41:13.000Z</time>
      </trkpt>
      <trkpt lat="43.7454" lon="3.94102">
        <ele>176.39999389648</ele>
        <time>2016-12-18T08:41:19.000Z</time>
      </trkpt>
      <trkpt lat="43.74551" lon="3.94093">
        <ele>177.19999694824</ele>
        <time>2016-12-18T08:41:24.000Z</time>
      </trkpt>
      <trkpt lat="43.74567" lon="3.94085">
        <ele>178.80000305176</ele>
        <time>2016-12-18T08:41:31.000Z</time>
      </trkpt>
      <trkpt lat="43.74582" lon="3.94078">
        <ele>180.19999694824</ele>
        <time>2016-12-18T08:41:38.000Z</time>
      </trkpt>
      <trkpt lat="43.74599" lon="3.94069">
        <ele>181.80000305176</ele>
        <time>2016-12-18T08:41:46.000Z</time>
      </trkpt>
      <trkpt lat="43.74613" lon="3.94064">
        <ele>182.60000610352</ele>
        <time>2016-12-18T08:41:52.000Z</time>
      </trkpt>
      <trkpt lat="43.74631" lon="3.94056">
        <ele>183.80000305176</ele>
        <time>2016-12-18T08:42:00.000Z</time>
      </trkpt>
      <trkpt lat="43.74647" lon="3.94052">
        <ele>185.19999694824</ele>
        <time>2016-12-18T08:42:07.000Z</time>
      </trkpt>
      <trkpt lat="43.74665" lon="3.94047">
        <ele>187</ele>
        <time>2016-12-18T08:42:15.000Z</time>
      </trkpt>
      <trkpt lat="43.74679" lon="3.9404">
        <ele>188.19999694824</ele>
        <time>2016-12-18T08:42:21.000Z</time>
      </trkpt>
      <trkpt lat="43.7469" lon="3.94038">
        <ele>189.19999694824</ele>
        <time>2016-12-18T08:42:26.000Z</time>
      </trkpt>
      <trkpt lat="43.74696" lon="3.94039">
        <ele>189.80000305176</ele>
        <time>2016-12-18T08:42:30.000Z</time>
      </trkpt>
      <trkpt lat="43.74695" lon="3.94039">
        <ele>189.80000305176</ele>
        <time>2016-12-18T08:42:31.000Z</time>
      </trkpt>
      <trkpt lat="43.74691" lon="3.94042">
        <ele>189.60000610352</ele>
        <time>2016-12-18T08:42:33.000Z</time>
      </trkpt>
      <trkpt lat="43.74687" lon="3.94044">
        <ele>189.39999389648</ele>
        <time>2016-12-18T08:42:35.000Z</time>
      </trkpt>
      <trkpt lat="43.74673" lon="3.94056">
        <ele>188.60000610352</ele>
        <time>2016-12-18T08:42:41.000Z</time>
      </trkpt>
      <trkpt lat="43.74661" lon="3.94069">
        <ele>188</ele>
        <time>2016-12-18T08:42:47.000Z</time>
      </trkpt>
      <trkpt lat="43.7465" lon="3.94084">
        <ele>188.19999694824</ele>
        <time>2016-12-18T08:42:53.000Z</time>
      </trkpt>
      <trkpt lat="43.74641" lon="3.94107">
        <ele>189.39999389648</ele>
        <time>2016-12-18T08:43:01.000Z</time>
      </trkpt>
      <trkpt lat="43.74634" lon="3.94126">
        <ele>189.60000610352</ele>
        <time>2016-12-18T08:43:07.000Z</time>
      </trkpt>
      <trkpt lat="43.7463" lon="3.94142">
        <ele>190</ele>
        <time>2016-12-18T08:43:12.000Z</time>
      </trkpt>
      <trkpt lat="43.74629" lon="3.94163">
        <ele>191.39999389648</ele>
        <time>2016-12-18T08:43:19.000Z</time>
      </trkpt>
      <trkpt lat="43.74636" lon="3.94178">
        <ele>193</ele>
        <time>2016-12-18T08:43:24.000Z</time>
      </trkpt>
      <trkpt lat="43.74638" lon="3.94178">
        <ele>193.19999694824</ele>
        <time>2016-12-18T08:43:25.000Z</time>
      </trkpt>
      <trkpt lat="43.74647" lon="3.94178">
        <ele>193.60000610352</ele>
        <time>2016-12-18T08:43:28.000Z</time>
      </trkpt>
      <trkpt lat="43.74661" lon="3.94173">
        <ele>194.19999694824</ele>
        <time>2016-12-18T08:43:34.000Z</time>
      </trkpt>
      <trkpt lat="43.74676" lon="3.94162">
        <ele>195</ele>
        <time>2016-12-18T08:43:41.000Z</time>
      </trkpt>
      <trkpt lat="43.74693" lon="3.94154">
        <ele>195.19999694824</ele>
        <time>2016-12-18T08:43:48.000Z</time>
      </trkpt>
      <trkpt lat="43.74707" lon="3.94145">
        <ele>193.80000305176</ele>
        <time>2016-12-18T08:43:54.000Z</time>
      </trkpt>
      <trkpt lat="43.74718" lon="3.94139">
        <ele>192.60000610352</ele>
        <time>2016-12-18T08:43:59.000Z</time>
      </trkpt>
      <trkpt lat="43.74734" lon="3.94124">
        <ele>195.80000305176</ele>
        <time>2016-12-18T08:44:06.000Z</time>
      </trkpt>
      <trkpt lat="43.74737" lon="3.94122">
        <ele>196.19999694824</ele>
        <time>2016-12-18T08:44:07.000Z</time>
      </trkpt>
      <trkpt lat="43.7475" lon="3.94112">
        <ele>198.60000610352</ele>
        <time>2016-12-18T08:44:13.000Z</time>
      </trkpt>
      <trkpt lat="43.74766" lon="3.94104">
        <ele>200.39999389648</ele>
        <time>2016-12-18T08:44:19.000Z</time>
      </trkpt>
      <trkpt lat="43.74782" lon="3.94097">
        <ele>200</ele>
        <time>2016-12-18T08:44:25.000Z</time>
      </trkpt>
      <trkpt lat="43.74798" lon="3.94091">
        <ele>199.19999694824</ele>
        <time>2016-12-18T08:44:31.000Z</time>
      </trkpt>
      <trkpt lat="43.74816" lon="3.94085">
        <ele>198.60000610352</ele>
        <time>2016-12-18T08:44:38.000Z</time>
      </trkpt>
      <trkpt lat="43.74829" lon="3.94075">
        <ele>198.19999694824</ele>
        <time>2016-12-18T08:44:44.000Z</time>
      </trkpt>
      <trkpt lat="43.74848" lon="3.94068">
        <ele>199.60000610352</ele>
        <time>2016-12-18T08:44:51.000Z</time>
      </trkpt>
      <trkpt lat="43.74851" lon="3.94067">
        <ele>199.80000305176</ele>
        <time>2016-12-18T08:44:52.000Z</time>
      </trkpt>
      <trkpt lat="43.74868" lon="3.94061">
        <ele>199.60000610352</ele>
        <time>2016-12-18T08:44:58.000Z</time>
      </trkpt>
      <trkpt lat="43.74881" lon="3.94057">
        <ele>199.39999389648</ele>
        <time>2016-12-18T08:45:03.000Z</time>
      </trkpt>
      <trkpt lat="43.74896" lon="3.94051">
        <ele>200</ele>
        <time>2016-12-18T08:45:09.000Z</time>
      </trkpt>
      <trkpt lat="43.74913" lon="3.94045">
        <ele>201.19999694824</ele>
        <time>2016-12-18T08:45:15.000Z</time>
      </trkpt>
      <trkpt lat="43.74931" lon="3.9404">
        <ele>202.60000610352</ele>
        <time>2016-12-18T08:45:22.000Z</time>
      </trkpt>
      <trkpt lat="43.74947" lon="3.94035">
        <ele>203.39999389648</ele>
        <time>2016-12-18T08:45:28.000Z</time>
      </trkpt>
      <trkpt lat="43.74966" lon="3.94031">
        <ele>203.60000610352</ele>
        <time>2016-12-18T08:45:35.000Z</time>
      </trkpt>
      <trkpt lat="43.74986" lon="3.94027">
        <ele>203.80000305176</ele>
        <time>2016-12-18T08:45:42.000Z</time>
      </trkpt>
      <trkpt lat="43.75" lon="3.94014">
        <ele>202.80000305176</ele>
        <time>2016-12-18T08:45:47.000Z</time>
      </trkpt>
      <trkpt lat="43.7502" lon="3.94007">
        <ele>202.80000305176</ele>
        <time>2016-12-18T08:45:53.000Z</time>
      </trkpt>
      <trkpt lat="43.75023" lon="3.94006">
        <ele>202.80000305176</ele>
        <time>2016-12-18T08:45:54.000Z</time>
      </trkpt>
      <trkpt lat="43.75039" lon="3.94001">
        <ele>202.80000305176</ele>
        <time>2016-12-18T08:46:00.000Z</time>
      </trkpt>
      <trkpt lat="43.75053" lon="3.93998">
        <ele>203</ele>
        <time>2016-12-18T08:46:06.000Z</time>
      </trkpt>
      <trkpt lat="43.75068" lon="3.93995">
        <ele>203</ele>
        <time>2016-12-18T08:46:12.000Z</time>
      </trkpt>
      <trkpt lat="43.7508" lon="3.93993">
        <ele>203.19999694824</ele>
        <time>2016-12-18T08:46:18.000Z</time>
      </trkpt>
      <trkpt lat="43.75091" lon="3.93991">
        <ele>203</ele>
        <time>2016-12-18T08:46:24.000Z</time>
      </trkpt>
      <trkpt lat="43.75107" lon="3.93987">
        <ele>202.80000305176</ele>
        <time>2016-12-18T08:46:30.000Z</time>
      </trkpt>
      <trkpt lat="43.75122" lon="3.93984">
        <ele>202</ele>
        <time>2016-12-18T08:46:36.000Z</time>
      </trkpt>
      <trkpt lat="43.75141" lon="3.93981">
        <ele>201</ele>
        <time>2016-12-18T08:46:43.000Z</time>
      </trkpt>
      <trkpt lat="43.7516" lon="3.93977">
        <ele>201.39999389648</ele>
        <time>2016-12-18T08:46:50.000Z</time>
      </trkpt>
      <trkpt lat="43.75176" lon="3.93973">
        <ele>202</ele>
        <time>2016-12-18T08:46:56.000Z</time>
      </trkpt>
      <trkpt lat="43.75189" lon="3.93967">
        <ele>202.19999694824</ele>
        <time>2016-12-18T08:47:02.000Z</time>
      </trkpt>
      <trkpt lat="43.75201" lon="3.9396">
        <ele>200.39999389648</ele>
        <time>2016-12-18T08:47:07.000Z</time>
      </trkpt>
      <trkpt lat="43.75214" lon="3.93952">
        <ele>200.39999389648</ele>
        <time>2016-12-18T08:47:12.000Z</time>
      </trkpt>
      <trkpt lat="43.7523" lon="3.9394">
        <ele>201.39999389648</ele>
        <time>2016-12-18T08:47:19.000Z</time>
      </trkpt>
      <trkpt lat="43.75247" lon="3.9393">
        <ele>200.19999694824</ele>
        <time>2016-12-18T08:47:25.000Z</time>
      </trkpt>
      <trkpt lat="43.75262" lon="3.9392">
        <ele>199.60000610352</ele>
        <time>2016-12-18T08:47:31.000Z</time>
      </trkpt>
      <trkpt lat="43.75276" lon="3.93909">
        <ele>199.60000610352</ele>
        <time>2016-12-18T08:47:37.000Z</time>
      </trkpt>
      <trkpt lat="43.75291" lon="3.93899">
        <ele>199.39999389648</ele>
        <time>2016-12-18T08:47:43.000Z</time>
      </trkpt>
      <trkpt lat="43.75302" lon="3.9389">
        <ele>199.19999694824</ele>
        <time>2016-12-18T08:47:48.000Z</time>
      </trkpt>
      <trkpt lat="43.75315" lon="3.9388">
        <ele>200.19999694824</ele>
        <time>2016-12-18T08:47:54.000Z</time>
      </trkpt>
      <trkpt lat="43.75324" lon="3.93875">
        <ele>200.80000305176</ele>
        <time>2016-12-18T08:47:58.000Z</time>
      </trkpt>
      <trkpt lat="43.75326" lon="3.93874">
        <ele>201</ele>
        <time>2016-12-18T08:47:59.000Z</time>
      </trkpt>
      <trkpt lat="43.75338" lon="3.93869">
        <ele>201.80000305176</ele>
        <time>2016-12-18T08:48:04.000Z</time>
      </trkpt>
      <trkpt lat="43.75351" lon="3.93866">
        <ele>202.80000305176</ele>
        <time>2016-12-18T08:48:09.000Z</time>
      </trkpt>
      <trkpt lat="43.75364" lon="3.93864">
        <ele>203.19999694824</ele>
        <time>2016-12-18T08:48:14.000Z</time>
      </trkpt>
      <trkpt lat="43.75378" lon="3.93862">
        <ele>203.60000610352</ele>
        <time>2016-12-18T08:48:20.000Z</time>
      </trkpt>
      <trkpt lat="43.75394" lon="3.93863">
        <ele>204</ele>
        <time>2016-12-18T08:48:26.000Z</time>
      </trkpt>
      <trkpt lat="43.75404" lon="3.93865">
        <ele>204.19999694824</ele>
        <time>2016-12-18T08:48:30.000Z</time>
      </trkpt>
      <trkpt lat="43.75407" lon="3.93866">
        <ele>204.19999694824</ele>
        <time>2016-12-18T08:48:31.000Z</time>
      </trkpt>
      <trkpt lat="43.75424" lon="3.93868">
        <ele>204.60000610352</ele>
        <time>2016-12-18T08:48:38.000Z</time>
      </trkpt>
      <trkpt lat="43.75442" lon="3.93871">
        <ele>205.19999694824</ele>
        <time>2016-12-18T08:48:45.000Z</time>
      </trkpt>
      <trkpt lat="43.75457" lon="3.93874">
        <ele>206</ele>
        <time>2016-12-18T08:48:51.000Z</time>
      </trkpt>
      <trkpt lat="43.75469" lon="3.93875">
        <ele>206.39999389648</ele>
        <time>2016-12-18T08:48:56.000Z</time>
      </trkpt>
      <trkpt lat="43.75486" lon="3.93878">
        <ele>207.39999389648</ele>
        <time>2016-12-18T08:49:03.000Z</time>
      </trkpt>
      <trkpt lat="43.75498" lon="3.93881">
        <ele>207.80000305176</ele>
        <time>2016-12-18T08:49:08.000Z</time>
      </trkpt>
      <trkpt lat="43.75513" lon="3.93883">
        <ele>208.60000610352</ele>
        <time>2016-12-18T08:49:14.000Z</time>
      </trkpt>
      <trkpt lat="43.75528" lon="3.93885">
        <ele>208.60000610352</ele>
        <time>2016-12-18T08:49:20.000Z</time>
      </trkpt>
      <trkpt lat="43.75544" lon="3.93884">
        <ele>207.80000305176</ele>
        <time>2016-12-18T08:49:26.000Z</time>
      </trkpt>
      <trkpt lat="43.75559" lon="3.93883">
        <ele>208</ele>
        <time>2016-12-18T08:49:32.000Z</time>
      </trkpt>
      <trkpt lat="43.75573" lon="3.9388">
        <ele>208.60000610352</ele>
        <time>2016-12-18T08:49:38.000Z</time>
      </trkpt>
      <trkpt lat="43.75589" lon="3.93875">
        <ele>209.39999389648</ele>
        <time>2016-12-18T08:49:44.000Z</time>
      </trkpt>
      <trkpt lat="43.75602" lon="3.93868">
        <ele>210.19999694824</ele>
        <time>2016-12-18T08:49:49.000Z</time>
      </trkpt>
      <trkpt lat="43.75616" lon="3.93863">
        <ele>209.60000610352</ele>
        <time>2016-12-18T08:49:54.000Z</time>
      </trkpt>
      <trkpt lat="43.75631" lon="3.93856">
        <ele>210.60000610352</ele>
        <time>2016-12-18T08:50:00.000Z</time>
      </trkpt>
      <trkpt lat="43.7565" lon="3.93845">
        <ele>210</ele>
        <time>2016-12-18T08:50:08.000Z</time>
      </trkpt>
      <trkpt lat="43.75667" lon="3.93833">
        <ele>209.60000610352</ele>
        <time>2016-12-18T08:50:15.000Z</time>
      </trkpt>
      <trkpt lat="43.75682" lon="3.93825">
        <ele>209.80000305176</ele>
        <time>2016-12-18T08:50:21.000Z</time>
      </trkpt>
      <trkpt lat="43.75698" lon="3.93816">
        <ele>209.60000610352</ele>
        <time>2016-12-18T08:50:27.000Z</time>
      </trkpt>
      <trkpt lat="43.7571" lon="3.93808">
        <ele>209</ele>
        <time>2016-12-18T08:50:32.000Z</time>
      </trkpt>
      <trkpt lat="43.75723" lon="3.93801">
        <ele>209</ele>
        <time>2016-12-18T08:50:37.000Z</time>
      </trkpt>
      <trkpt lat="43.7574" lon="3.93789">
        <ele>210.19999694824</ele>
        <time>2016-12-18T08:50:44.000Z</time>
      </trkpt>
      <trkpt lat="43.75756" lon="3.9378">
        <ele>211.19999694824</ele>
        <time>2016-12-18T08:50:50.000Z</time>
      </trkpt>
      <trkpt lat="43.75768" lon="3.93772">
        <ele>211.80000305176</ele>
        <time>2016-12-18T08:50:55.000Z</time>
      </trkpt>
      <trkpt lat="43.75781" lon="3.93765">
        <ele>211.80000305176</ele>
        <time>2016-12-18T08:51:00.000Z</time>
      </trkpt>
      <trkpt lat="43.75795" lon="3.93757">
        <ele>211.60000610352</ele>
        <time>2016-12-18T08:51:06.000Z</time>
      </trkpt>
      <trkpt lat="43.75809" lon="3.93747">
        <ele>211.39999389648</ele>
        <time>2016-12-18T08:51:12.000Z</time>
      </trkpt>
      <trkpt lat="43.75821" lon="3.93738">
        <ele>211.19999694824</ele>
        <time>2016-12-18T08:51:17.000Z</time>
      </trkpt>
      <trkpt lat="43.75834" lon="3.93727">
        <ele>212.19999694824</ele>
        <time>2016-12-18T08:51:23.000Z</time>
      </trkpt>
      <trkpt lat="43.75851" lon="3.93711">
        <ele>213.39999389648</ele>
        <time>2016-12-18T08:51:31.000Z</time>
      </trkpt>
      <trkpt lat="43.75864" lon="3.937">
        <ele>213.19999694824</ele>
        <time>2016-12-18T08:51:37.000Z</time>
      </trkpt>
      <trkpt lat="43.75876" lon="3.93691">
        <ele>214.80000305176</ele>
        <time>2016-12-18T08:51:42.000Z</time>
      </trkpt>
      <trkpt lat="43.75888" lon="3.93683">
        <ele>214.80000305176</ele>
        <time>2016-12-18T08:51:47.000Z</time>
      </trkpt>
      <trkpt lat="43.75905" lon="3.93674">
        <ele>215</ele>
        <time>2016-12-18T08:51:54.000Z</time>
      </trkpt>
      <trkpt lat="43.75918" lon="3.93665">
        <ele>215.39999389648</ele>
        <time>2016-12-18T08:52:00.000Z</time>
      </trkpt>
      <trkpt lat="43.75934" lon="3.93657">
        <ele>216.39999389648</ele>
        <time>2016-12-18T08:52:06.000Z</time>
      </trkpt>
      <trkpt lat="43.75946" lon="3.93649">
        <ele>216.80000305176</ele>
        <time>2016-12-18T08:52:11.000Z</time>
      </trkpt>
      <trkpt lat="43.75963" lon="3.93639">
        <ele>217.19999694824</ele>
        <time>2016-12-18T08:52:18.000Z</time>
      </trkpt>
      <trkpt lat="43.75965" lon="3.93637">
        <ele>217.39999389648</ele>
        <time>2016-12-18T08:52:19.000Z</time>
      </trkpt>
      <trkpt lat="43.7598" lon="3.93629">
        <ele>217.60000610352</ele>
        <time>2016-12-18T08:52:25.000Z</time>
      </trkpt>
      <trkpt lat="43.75998" lon="3.93619">
        <ele>217.80000305176</ele>
        <time>2016-12-18T08:52:32.000Z</time>
      </trkpt>
      <trkpt lat="43.76016" lon="3.93608">
        <ele>217.80000305176</ele>
        <time>2016-12-18T08:52:39.000Z</time>
      </trkpt>
      <trkpt lat="43.76032" lon="3.93598">
        <ele>217</ele>
        <time>2016-12-18T08:52:45.000Z</time>
      </trkpt>
      <trkpt lat="43.76044" lon="3.9359">
        <ele>216.19999694824</ele>
        <time>2016-12-18T08:52:50.000Z</time>
      </trkpt>
      <trkpt lat="43.76057" lon="3.93582">
        <ele>215.39999389648</ele>
        <time>2016-12-18T08:52:55.000Z</time>
      </trkpt>
      <trkpt lat="43.76072" lon="3.93572">
        <ele>214.39999389648</ele>
        <time>2016-12-18T08:53:01.000Z</time>
      </trkpt>
      <trkpt lat="43.76091" lon="3.93559">
        <ele>213.39999389648</ele>
        <time>2016-12-18T08:53:08.000Z</time>
      </trkpt>
      <trkpt lat="43.76108" lon="3.9355">
        <ele>213</ele>
        <time>2016-12-18T08:53:14.000Z</time>
      </trkpt>
      <trkpt lat="43.76125" lon="3.93544">
        <ele>212.60000610352</ele>
        <time>2016-12-18T08:53:20.000Z</time>
      </trkpt>
      <trkpt lat="43.76142" lon="3.93538">
        <ele>212.39999389648</ele>
        <time>2016-12-18T08:53:26.000Z</time>
      </trkpt>
      <trkpt lat="43.7616" lon="3.93532">
        <ele>212.19999694824</ele>
        <time>2016-12-18T08:53:32.000Z</time>
      </trkpt>
      <trkpt lat="43.76162" lon="3.93531">
        <ele>212.19999694824</ele>
        <time>2016-12-18T08:53:33.000Z</time>
      </trkpt>
      <trkpt lat="43.76179" lon="3.93525">
        <ele>212</ele>
        <time>2016-12-18T08:53:39.000Z</time>
      </trkpt>
      <trkpt lat="43.76198" lon="3.93518">
        <ele>210.80000305176</ele>
        <time>2016-12-18T08:53:45.000Z</time>
      </trkpt>
      <trkpt lat="43.762" lon="3.93517">
        <ele>210.60000610352</ele>
        <time>2016-12-18T08:53:46.000Z</time>
      </trkpt>
      <trkpt lat="43.76218" lon="3.93509">
        <ele>208.80000305176</ele>
        <time>2016-12-18T08:53:52.000Z</time>
      </trkpt>
      <trkpt lat="43.76221" lon="3.93508">
        <ele>208.39999389648</ele>
        <time>2016-12-18T08:53:53.000Z</time>
      </trkpt>
      <trkpt lat="43.76235" lon="3.93499">
        <ele>206.80000305176</ele>
        <time>2016-12-18T08:53:58.000Z</time>
      </trkpt>
      <trkpt lat="43.76244" lon="3.93493">
        <ele>206</ele>
        <time>2016-12-18T08:54:01.000Z</time>
      </trkpt>
      <trkpt lat="43.76255" lon="3.93484">
        <ele>206.80000305176</ele>
        <time>2016-12-18T08:54:05.000Z</time>
      </trkpt>
      <trkpt lat="43.76266" lon="3.93471">
        <ele>207.39999389648</ele>
        <time>2016-12-18T08:54:10.000Z</time>
      </trkpt>
      <trkpt lat="43.76279" lon="3.93449">
        <ele>205.80000305176</ele>
        <time>2016-12-18T08:54:17.000Z</time>
      </trkpt>
      <trkpt lat="43.76289" lon="3.93427">
        <ele>205.39999389648</ele>
        <time>2016-12-18T08:54:23.000Z</time>
      </trkpt>
      <trkpt lat="43.7629" lon="3.93423">
        <ele>205.19999694824</ele>
        <time>2016-12-18T08:54:24.000Z</time>
      </trkpt>
      <trkpt lat="43.76298" lon="3.93406">
        <ele>203.39999389648</ele>
        <time>2016-12-18T08:54:29.000Z</time>
      </trkpt>
      <trkpt lat="43.76307" lon="3.93386">
        <ele>202.60000610352</ele>
        <time>2016-12-18T08:54:35.000Z</time>
      </trkpt>
      <trkpt lat="43.7631" lon="3.93368">
        <ele>204.39999389648</ele>
        <time>2016-12-18T08:54:40.000Z</time>
      </trkpt>
      <trkpt lat="43.76314" lon="3.93346">
        <ele>205.39999389648</ele>
        <time>2016-12-18T08:54:46.000Z</time>
      </trkpt>
      <trkpt lat="43.76318" lon="3.93326">
        <ele>205.39999389648</ele>
        <time>2016-12-18T08:54:52.000Z</time>
      </trkpt>
      <trkpt lat="43.7632" lon="3.93304">
        <ele>205.60000610352</ele>
        <time>2016-12-18T08:54:58.000Z</time>
      </trkpt>
      <trkpt lat="43.7632" lon="3.93282">
        <ele>205.80000305176</ele>
        <time>2016-12-18T08:55:04.000Z</time>
      </trkpt>
      <trkpt lat="43.76313" lon="3.93265">
        <ele>205.39999389648</ele>
        <time>2016-12-18T08:55:09.000Z</time>
      </trkpt>
      <trkpt lat="43.76305" lon="3.93243">
        <ele>204.19999694824</ele>
        <time>2016-12-18T08:55:15.000Z</time>
      </trkpt>
      <trkpt lat="43.76303" lon="3.93239">
        <ele>204</ele>
        <time>2016-12-18T08:55:16.000Z</time>
      </trkpt>
      <trkpt lat="43.76298" lon="3.93215">
        <ele>203.19999694824</ele>
        <time>2016-12-18T08:55:22.000Z</time>
      </trkpt>
      <trkpt lat="43.76296" lon="3.93193">
        <ele>203.19999694824</ele>
        <time>2016-12-18T08:55:28.000Z</time>
      </trkpt>
      <trkpt lat="43.76297" lon="3.93168">
        <ele>202.60000610352</ele>
        <time>2016-12-18T08:55:34.000Z</time>
      </trkpt>
      <trkpt lat="43.76298" lon="3.93143">
        <ele>202</ele>
        <time>2016-12-18T08:55:40.000Z</time>
      </trkpt>
      <trkpt lat="43.76299" lon="3.93118">
        <ele>201.19999694824</ele>
        <time>2016-12-18T08:55:46.000Z</time>
      </trkpt>
      <trkpt lat="43.76302" lon="3.93092">
        <ele>200.39999389648</ele>
        <time>2016-12-18T08:55:52.000Z</time>
      </trkpt>
      <trkpt lat="43.76305" lon="3.93068">
        <ele>199.60000610352</ele>
        <time>2016-12-18T08:55:58.000Z</time>
      </trkpt>
      <trkpt lat="43.76309" lon="3.93039">
        <ele>198</ele>
        <time>2016-12-18T08:56:05.000Z</time>
      </trkpt>
      <trkpt lat="43.76311" lon="3.93017">
        <ele>197</ele>
        <time>2016-12-18T08:56:10.000Z</time>
      </trkpt>
      <trkpt lat="43.76312" lon="3.92996">
        <ele>197</ele>
        <time>2016-12-18T08:56:15.000Z</time>
      </trkpt>
      <trkpt lat="43.7631" lon="3.92971">
        <ele>196.39999389648</ele>
        <time>2016-12-18T08:56:21.000Z</time>
      </trkpt>
      <trkpt lat="43.76305" lon="3.9295">
        <ele>195</ele>
        <time>2016-12-18T08:56:26.000Z</time>
      </trkpt>
      <trkpt lat="43.76299" lon="3.92935">
        <ele>194.80000305176</ele>
        <time>2016-12-18T08:56:30.000Z</time>
      </trkpt>
      <trkpt lat="43.76288" lon="3.92913">
        <ele>196.19999694824</ele>
        <time>2016-12-18T08:56:36.000Z</time>
      </trkpt>
      <trkpt lat="43.76276" lon="3.92896">
        <ele>197.39999389648</ele>
        <time>2016-12-18T08:56:42.000Z</time>
      </trkpt>
      <trkpt lat="43.76262" lon="3.92881">
        <ele>197.60000610352</ele>
        <time>2016-12-18T08:56:48.000Z</time>
      </trkpt>
      <trkpt lat="43.76259" lon="3.92878">
        <ele>197.60000610352</ele>
        <time>2016-12-18T08:56:49.000Z</time>
      </trkpt>
      <trkpt lat="43.76247" lon="3.92864">
        <ele>197.39999389648</ele>
        <time>2016-12-18T08:56:54.000Z</time>
      </trkpt>
      <trkpt lat="43.76235" lon="3.92843">
        <ele>198.19999694824</ele>
        <time>2016-12-18T08:57:01.000Z</time>
      </trkpt>
      <trkpt lat="43.76228" lon="3.92824">
        <ele>199.60000610352</ele>
        <time>2016-12-18T08:57:06.000Z</time>
      </trkpt>
      <trkpt lat="43.76216" lon="3.92807">
        <ele>200.39999389648</ele>
        <time>2016-12-18T08:57:11.000Z</time>
      </trkpt>
      <trkpt lat="43.76205" lon="3.92802">
        <ele>200.39999389648</ele>
        <time>2016-12-18T08:57:15.000Z</time>
      </trkpt>
      <trkpt lat="43.76191" lon="3.92798">
        <ele>199.80000305176</ele>
        <time>2016-12-18T08:57:20.000Z</time>
      </trkpt>
      <trkpt lat="43.76174" lon="3.92793">
        <ele>200.39999389648</ele>
        <time>2016-12-18T08:57:26.000Z</time>
      </trkpt>
      <trkpt lat="43.7616" lon="3.92791">
        <ele>200.80000305176</ele>
        <time>2016-12-18T08:57:31.000Z</time>
      </trkpt>
      <trkpt lat="43.76143" lon="3.92789">
        <ele>201</ele>
        <time>2016-12-18T08:57:37.000Z</time>
      </trkpt>
      <trkpt lat="43.76128" lon="3.92791">
        <ele>201</ele>
        <time>2016-12-18T08:57:43.000Z</time>
      </trkpt>
      <trkpt lat="43.76115" lon="3.92792">
        <ele>201.39999389648</ele>
        <time>2016-12-18T08:57:48.000Z</time>
      </trkpt>
      <trkpt lat="43.76096" lon="3.9279">
        <ele>201.19999694824</ele>
        <time>2016-12-18T08:57:55.000Z</time>
      </trkpt>
      <trkpt lat="43.76084" lon="3.9278">
        <ele>201</ele>
        <time>2016-12-18T08:58:00.000Z</time>
      </trkpt>
      <trkpt lat="43.76078" lon="3.92758">
        <ele>200</ele>
        <time>2016-12-18T08:58:06.000Z</time>
      </trkpt>
      <trkpt lat="43.76075" lon="3.92732">
        <ele>199</ele>
        <time>2016-12-18T08:58:12.000Z</time>
      </trkpt>
      <trkpt lat="43.76072" lon="3.92709">
        <ele>198.80000305176</ele>
        <time>2016-12-18T08:58:18.000Z</time>
      </trkpt>
      <trkpt lat="43.76066" lon="3.92685">
        <ele>198.39999389648</ele>
        <time>2016-12-18T08:58:24.000Z</time>
      </trkpt>
      <trkpt lat="43.76064" lon="3.92681">
        <ele>198.39999389648</ele>
        <time>2016-12-18T08:58:25.000Z</time>
      </trkpt>
      <trkpt lat="43.76056" lon="3.92659">
        <ele>198.60000610352</ele>
        <time>2016-12-18T08:58:31.000Z</time>
      </trkpt>
      <trkpt lat="43.76046" lon="3.92638">
        <ele>198.60000610352</ele>
        <time>2016-12-18T08:58:37.000Z</time>
      </trkpt>
      <trkpt lat="43.76043" lon="3.92635">
        <ele>198.39999389648</ele>
        <time>2016-12-18T08:58:38.000Z</time>
      </trkpt>
      <trkpt lat="43.76032" lon="3.92618">
        <ele>198</ele>
        <time>2016-12-18T08:58:43.000Z</time>
      </trkpt>
      <trkpt lat="43.76017" lon="3.9261">
        <ele>196.39999389648</ele>
        <time>2016-12-18T08:58:48.000Z</time>
      </trkpt>
      <trkpt lat="43.75998" lon="3.92616">
        <ele>194</ele>
        <time>2016-12-18T08:58:54.000Z</time>
      </trkpt>
      <trkpt lat="43.75982" lon="3.92621">
        <ele>191.80000305176</ele>
        <time>2016-12-18T08:58:59.000Z</time>
      </trkpt>
      <trkpt lat="43.7597" lon="3.92621">
        <ele>190.39999389648</ele>
        <time>2016-12-18T08:59:03.000Z</time>
      </trkpt>
      <trkpt lat="43.75963" lon="3.92621">
        <ele>189.80000305176</ele>
        <time>2016-12-18T08:59:05.000Z</time>
      </trkpt>
      <trkpt lat="43.75947" lon="3.9262">
        <ele>188.19999694824</ele>
        <time>2016-12-18T08:59:10.000Z</time>
      </trkpt>
      <trkpt lat="43.75935" lon="3.92613">
        <ele>187.60000610352</ele>
        <time>2016-12-18T08:59:14.000Z</time>
      </trkpt>
      <trkpt lat="43.75919" lon="3.92596">
        <ele>187</ele>
        <time>2016-12-18T08:59:20.000Z</time>
      </trkpt>
      <trkpt lat="43.75907" lon="3.92583">
        <ele>186.80000305176</ele>
        <time>2016-12-18T08:59:25.000Z</time>
      </trkpt>
      <trkpt lat="43.75892" lon="3.92563">
        <ele>186.19999694824</ele>
        <time>2016-12-18T08:59:32.000Z</time>
      </trkpt>
      <trkpt lat="43.75883" lon="3.92551">
        <ele>186.19999694824</ele>
        <time>2016-12-18T08:59:36.000Z</time>
      </trkpt>
      <trkpt lat="43.75872" lon="3.92536">
        <ele>186</ele>
        <time>2016-12-18T08:59:41.000Z</time>
      </trkpt>
      <trkpt lat="43.7586" lon="3.92519">
        <ele>185.80000305176</ele>
        <time>2016-12-18T08:59:47.000Z</time>
      </trkpt>
      <trkpt lat="43.7585" lon="3.92507">
        <ele>185.60000610352</ele>
        <time>2016-12-18T08:59:52.000Z</time>
      </trkpt>
      <trkpt lat="43.75842" lon="3.92494">
        <ele>185.39999389648</ele>
        <time>2016-12-18T08:59:56.000Z</time>
      </trkpt>
      <trkpt lat="43.75832" lon="3.92478">
        <ele>185.19999694824</ele>
        <time>2016-12-18T09:00:01.000Z</time>
      </trkpt>
      <trkpt lat="43.75821" lon="3.92455">
        <ele>185.60000610352</ele>
        <time>2016-12-18T09:00:08.000Z</time>
      </trkpt>
      <trkpt lat="43.75812" lon="3.92438">
        <ele>185.80000305176</ele>
        <time>2016-12-18T09:00:13.000Z</time>
      </trkpt>
      <trkpt lat="43.758" lon="3.92418">
        <ele>187.19999694824</ele>
        <time>2016-12-18T09:00:20.000Z</time>
      </trkpt>
      <trkpt lat="43.75787" lon="3.92403">
        <ele>187.80000305176</ele>
        <time>2016-12-18T09:00:26.000Z</time>
      </trkpt>
      <trkpt lat="43.75773" lon="3.92391">
        <ele>187.60000610352</ele>
        <time>2016-12-18T09:00:32.000Z</time>
      </trkpt>
      <trkpt lat="43.75758" lon="3.92381">
        <ele>187.60000610352</ele>
        <time>2016-12-18T09:00:38.000Z</time>
      </trkpt>
      <trkpt lat="43.75743" lon="3.92369">
        <ele>187.80000305176</ele>
        <time>2016-12-18T09:00:44.000Z</time>
      </trkpt>
      <trkpt lat="43.75732" lon="3.92358">
        <ele>188</ele>
        <time>2016-12-18T09:00:49.000Z</time>
      </trkpt>
      <trkpt lat="43.75719" lon="3.92348">
        <ele>187.60000610352</ele>
        <time>2016-12-18T09:00:54.000Z</time>
      </trkpt>
      <trkpt lat="43.75702" lon="3.92334">
        <ele>186.80000305176</ele>
        <time>2016-12-18T09:01:01.000Z</time>
      </trkpt>
      <trkpt lat="43.75699" lon="3.92331">
        <ele>186.60000610352</ele>
        <time>2016-12-18T09:01:02.000Z</time>
      </trkpt>
      <trkpt lat="43.75686" lon="3.92324">
        <ele>185.80000305176</ele>
        <time>2016-12-18T09:01:07.000Z</time>
      </trkpt>
      <trkpt lat="43.75669" lon="3.92314">
        <ele>184.39999389648</ele>
        <time>2016-12-18T09:01:13.000Z</time>
      </trkpt>
      <trkpt lat="43.75654" lon="3.923">
        <ele>183.39999389648</ele>
        <time>2016-12-18T09:01:19.000Z</time>
      </trkpt>
      <trkpt lat="43.75641" lon="3.92282">
        <ele>183</ele>
        <time>2016-12-18T09:01:25.000Z</time>
      </trkpt>
      <trkpt lat="43.75632" lon="3.92264">
        <ele>183</ele>
        <time>2016-12-18T09:01:30.000Z</time>
      </trkpt>
      <trkpt lat="43.75622" lon="3.92249">
        <ele>183</ele>
        <time>2016-12-18T09:01:35.000Z</time>
      </trkpt>
      <trkpt lat="43.75609" lon="3.92232">
        <ele>182.60000610352</ele>
        <time>2016-12-18T09:01:42.000Z</time>
      </trkpt>
      <trkpt lat="43.756" lon="3.92213">
        <ele>182.80000305176</ele>
        <time>2016-12-18T09:01:48.000Z</time>
      </trkpt>
      <trkpt lat="43.75592" lon="3.922">
        <ele>182.60000610352</ele>
        <time>2016-12-18T09:01:53.000Z</time>
      </trkpt>
      <trkpt lat="43.75579" lon="3.92182">
        <ele>181.60000610352</ele>
        <time>2016-12-18T09:02:00.000Z</time>
      </trkpt>
      <trkpt lat="43.75566" lon="3.9217">
        <ele>180.19999694824</ele>
        <time>2016-12-18T09:02:06.000Z</time>
      </trkpt>
      <trkpt lat="43.75551" lon="3.92162">
        <ele>178.39999389648</ele>
        <time>2016-12-18T09:02:11.000Z</time>
      </trkpt>
      <trkpt lat="43.75533" lon="3.92149">
        <ele>176.19999694824</ele>
        <time>2016-12-18T09:02:18.000Z</time>
      </trkpt>
      <trkpt lat="43.75519" lon="3.9213">
        <ele>174.80000305176</ele>
        <time>2016-12-18T09:02:25.000Z</time>
      </trkpt>
      <trkpt lat="43.75509" lon="3.92109">
        <ele>174.39999389648</ele>
        <time>2016-12-18T09:02:31.000Z</time>
      </trkpt>
      <trkpt lat="43.75508" lon="3.92105">
        <ele>174.19999694824</ele>
        <time>2016-12-18T09:02:32.000Z</time>
      </trkpt>
      <trkpt lat="43.75504" lon="3.92083">
        <ele>173.39999389648</ele>
        <time>2016-12-18T09:02:38.000Z</time>
      </trkpt>
      <trkpt lat="43.75503" lon="3.92058">
        <ele>172.60000610352</ele>
        <time>2016-12-18T09:02:44.000Z</time>
      </trkpt>
      <trkpt lat="43.75502" lon="3.92037">
        <ele>171.80000305176</ele>
        <time>2016-12-18T09:02:49.000Z</time>
      </trkpt>
      <trkpt lat="43.75496" lon="3.92009">
        <ele>170.39999389648</ele>
        <time>2016-12-18T09:02:56.000Z</time>
      </trkpt>
      <trkpt lat="43.75493" lon="3.9198">
        <ele>169.60000610352</ele>
        <time>2016-12-18T09:03:03.000Z</time>
      </trkpt>
      <trkpt lat="43.75495" lon="3.91957">
        <ele>169.19999694824</ele>
        <time>2016-12-18T09:03:09.000Z</time>
      </trkpt>
      <trkpt lat="43.75498" lon="3.91933">
        <ele>169.19999694824</ele>
        <time>2016-12-18T09:03:15.000Z</time>
      </trkpt>
      <trkpt lat="43.75499" lon="3.91928">
        <ele>169.19999694824</ele>
        <time>2016-12-18T09:03:16.000Z</time>
      </trkpt>
      <trkpt lat="43.75502" lon="3.91904">
        <ele>169</ele>
        <time>2016-12-18T09:03:22.000Z</time>
      </trkpt>
      <trkpt lat="43.75501" lon="3.91881">
        <ele>168.39999389648</ele>
        <time>2016-12-18T09:03:28.000Z</time>
      </trkpt>
      <trkpt lat="43.75502" lon="3.91861">
        <ele>168</ele>
        <time>2016-12-18T09:03:33.000Z</time>
      </trkpt>
      <trkpt lat="43.75505" lon="3.91837">
        <ele>167.60000610352</ele>
        <time>2016-12-18T09:03:39.000Z</time>
      </trkpt>
      <trkpt lat="43.75511" lon="3.9181">
        <ele>166.60000610352</ele>
        <time>2016-12-18T09:03:46.000Z</time>
      </trkpt>
      <trkpt lat="43.75519" lon="3.91785">
        <ele>165.39999389648</ele>
        <time>2016-12-18T09:03:53.000Z</time>
      </trkpt>
      <trkpt lat="43.75524" lon="3.91765">
        <ele>164.80000305176</ele>
        <time>2016-12-18T09:03:58.000Z</time>
      </trkpt>
      <trkpt lat="43.75533" lon="3.91744">
        <ele>164.39999389648</ele>
        <time>2016-12-18T09:04:04.000Z</time>
      </trkpt>
      <trkpt lat="43.75546" lon="3.91735">
        <ele>164.80000305176</ele>
        <time>2016-12-18T09:04:09.000Z</time>
      </trkpt>
      <trkpt lat="43.75548" lon="3.91734">
        <ele>164.80000305176</ele>
        <time>2016-12-18T09:04:10.000Z</time>
      </trkpt>
      <trkpt lat="43.75562" lon="3.91724">
        <ele>165</ele>
        <time>2016-12-18T09:04:15.000Z</time>
      </trkpt>
      <trkpt lat="43.75575" lon="3.91715">
        <ele>164.80000305176</ele>
        <time>2016-12-18T09:04:20.000Z</time>
      </trkpt>
      <trkpt lat="43.75575" lon="3.91697">
        <ele>163.60000610352</ele>
        <time>2016-12-18T09:04:24.000Z</time>
      </trkpt>
      <trkpt lat="43.75576" lon="3.91689">
        <ele>163.19999694824</ele>
        <time>2016-12-18T09:04:26.000Z</time>
      </trkpt>
      <trkpt lat="43.75577" lon="3.91674">
        <ele>163</ele>
        <time>2016-12-18T09:04:30.000Z</time>
      </trkpt>
      <trkpt lat="43.7558" lon="3.91651">
        <ele>162.19999694824</ele>
        <time>2016-12-18T09:04:36.000Z</time>
      </trkpt>
      <trkpt lat="43.75584" lon="3.91628">
        <ele>161</ele>
        <time>2016-12-18T09:04:42.000Z</time>
      </trkpt>
      <trkpt lat="43.7559" lon="3.9161">
        <ele>160.19999694824</ele>
        <time>2016-12-18T09:04:47.000Z</time>
      </trkpt>
      <trkpt lat="43.75596" lon="3.91592">
        <ele>159.60000610352</ele>
        <time>2016-12-18T09:04:52.000Z</time>
      </trkpt>
      <trkpt lat="43.75597" lon="3.91575">
        <ele>159.19999694824</ele>
        <time>2016-12-18T09:04:56.000Z</time>
      </trkpt>
      <trkpt lat="43.75602" lon="3.91558">
        <ele>158.80000305176</ele>
        <time>2016-12-18T09:05:01.000Z</time>
      </trkpt>
      <trkpt lat="43.7561" lon="3.91539">
        <ele>159</ele>
        <time>2016-12-18T09:05:07.000Z</time>
      </trkpt>
      <trkpt lat="43.75618" lon="3.91523">
        <ele>159.19999694824</ele>
        <time>2016-12-18T09:05:12.000Z</time>
      </trkpt>
      <trkpt lat="43.75623" lon="3.91512">
        <ele>158.80000305176</ele>
        <time>2016-12-18T09:05:16.000Z</time>
      </trkpt>
      <trkpt lat="43.75631" lon="3.91512">
        <ele>159.60000610352</ele>
        <time>2016-12-18T09:05:19.000Z</time>
      </trkpt>
      <trkpt lat="43.75637" lon="3.91504">
        <ele>159.60000610352</ele>
        <time>2016-12-18T09:05:22.000Z</time>
      </trkpt>
      <trkpt lat="43.75639" lon="3.91501">
        <ele>159.60000610352</ele>
        <time>2016-12-18T09:05:23.000Z</time>
      </trkpt>
      <trkpt lat="43.75646" lon="3.91498">
        <ele>160</ele>
        <time>2016-12-18T09:05:26.000Z</time>
      </trkpt>
      <trkpt lat="43.7565" lon="3.91497">
        <ele>160.19999694824</ele>
        <time>2016-12-18T09:05:28.000Z</time>
      </trkpt>
      <trkpt lat="43.75658" lon="3.91487">
        <ele>160</ele>
        <time>2016-12-18T09:05:32.000Z</time>
      </trkpt>
      <trkpt lat="43.75667" lon="3.91478">
        <ele>159.39999389648</ele>
        <time>2016-12-18T09:05:37.000Z</time>
      </trkpt>
      <trkpt lat="43.7567" lon="3.91469">
        <ele>158.39999389648</ele>
        <time>2016-12-18T09:05:40.000Z</time>
      </trkpt>
      <trkpt lat="43.75672" lon="3.91466">
        <ele>158.19999694824</ele>
        <time>2016-12-18T09:05:41.000Z</time>
      </trkpt>
      <trkpt lat="43.75677" lon="3.91454">
        <ele>157</ele>
        <time>2016-12-18T09:05:45.000Z</time>
      </trkpt>
      <trkpt lat="43.75687" lon="3.91441">
        <ele>156</ele>
        <time>2016-12-18T09:05:50.000Z</time>
      </trkpt>
      <trkpt lat="43.75696" lon="3.91436">
        <ele>156.39999389648</ele>
        <time>2016-12-18T09:05:54.000Z</time>
      </trkpt>
      <trkpt lat="43.75697" lon="3.91433">
        <ele>156.19999694824</ele>
        <time>2016-12-18T09:05:55.000Z</time>
      </trkpt>
      <trkpt lat="43.757" lon="3.91422">
        <ele>155.60000610352</ele>
        <time>2016-12-18T09:05:58.000Z</time>
      </trkpt>
      <trkpt lat="43.75699" lon="3.91418">
        <ele>155.19999694824</ele>
        <time>2016-12-18T09:05:59.000Z</time>
      </trkpt>
      <trkpt lat="43.75702" lon="3.91409">
        <ele>154.80000305176</ele>
        <time>2016-12-18T09:06:02.000Z</time>
      </trkpt>
      <trkpt lat="43.75703" lon="3.914">
        <ele>154.19999694824</ele>
        <time>2016-12-18T09:06:05.000Z</time>
      </trkpt>
      <trkpt lat="43.75708" lon="3.91388">
        <ele>153.60000610352</ele>
        <time>2016-12-18T09:06:09.000Z</time>
      </trkpt>
      <trkpt lat="43.75715" lon="3.9138">
        <ele>153.39999389648</ele>
        <time>2016-12-18T09:06:13.000Z</time>
      </trkpt>
      <trkpt lat="43.75717" lon="3.91372">
        <ele>152.19999694824</ele>
        <time>2016-12-18T09:06:15.000Z</time>
      </trkpt>
      <trkpt lat="43.75721" lon="3.91365">
        <ele>151.19999694824</ele>
        <time>2016-12-18T09:06:18.000Z</time>
      </trkpt>
      <trkpt lat="43.75729" lon="3.91348">
        <ele>149.19999694824</ele>
        <time>2016-12-18T09:06:23.000Z</time>
      </trkpt>
      <trkpt lat="43.75731" lon="3.91345">
        <ele>149</ele>
        <time>2016-12-18T09:06:24.000Z</time>
      </trkpt>
      <trkpt lat="43.7573" lon="3.91334">
        <ele>148</ele>
        <time>2016-12-18T09:06:27.000Z</time>
      </trkpt>
      <trkpt lat="43.75732" lon="3.91324">
        <ele>147.19999694824</ele>
        <time>2016-12-18T09:06:30.000Z</time>
      </trkpt>
      <trkpt lat="43.75734" lon="3.91324">
        <ele>147.19999694824</ele>
        <time>2016-12-18T09:06:31.000Z</time>
      </trkpt>
      <trkpt lat="43.75739" lon="3.9132">
        <ele>146.80000305176</ele>
        <time>2016-12-18T09:06:34.000Z</time>
      </trkpt>
      <trkpt lat="43.75741" lon="3.91313">
        <ele>146.19999694824</ele>
        <time>2016-12-18T09:06:36.000Z</time>
      </trkpt>
      <trkpt lat="43.75742" lon="3.91304">
        <ele>145.19999694824</ele>
        <time>2016-12-18T09:06:39.000Z</time>
      </trkpt>
      <trkpt lat="43.75741" lon="3.91299">
        <ele>144.80000305176</ele>
        <time>2016-12-18T09:06:41.000Z</time>
      </trkpt>
      <trkpt lat="43.75748" lon="3.91293">
        <ele>144.19999694824</ele>
        <time>2016-12-18T09:06:45.000Z</time>
      </trkpt>
      <trkpt lat="43.75754" lon="3.91291">
        <ele>144</ele>
        <time>2016-12-18T09:06:47.000Z</time>
      </trkpt>
      <trkpt lat="43.75765" lon="3.91285">
        <ele>143.19999694824</ele>
        <time>2016-12-18T09:06:51.000Z</time>
      </trkpt>
      <trkpt lat="43.75775" lon="3.91284">
        <ele>143</ele>
        <time>2016-12-18T09:06:55.000Z</time>
      </trkpt>
      <trkpt lat="43.75776" lon="3.91285">
        <ele>143</ele>
        <time>2016-12-18T09:06:56.000Z</time>
      </trkpt>
      <trkpt lat="43.75779" lon="3.91282">
        <ele>142.60000610352</ele>
        <time>2016-12-18T09:07:00.000Z</time>
      </trkpt>
      <trkpt lat="43.75779" lon="3.91287">
        <ele>143.19999694824</ele>
        <time>2016-12-18T09:07:04.000Z</time>
      </trkpt>
      <trkpt lat="43.75781" lon="3.91297">
        <ele>144.19999694824</ele>
        <time>2016-12-18T09:07:09.000Z</time>
      </trkpt>
      <trkpt lat="43.75782" lon="3.91299">
        <ele>144.39999389648</ele>
        <time>2016-12-18T09:07:10.000Z</time>
      </trkpt>
      <trkpt lat="43.75781" lon="3.91302">
        <ele>144.60000610352</ele>
        <time>2016-12-18T09:07:11.000Z</time>
      </trkpt>
      <trkpt lat="43.75782" lon="3.91309">
        <ele>145.19999694824</ele>
        <time>2016-12-18T09:07:14.000Z</time>
      </trkpt>
      <trkpt lat="43.75781" lon="3.91313">
        <ele>145.60000610352</ele>
        <time>2016-12-18T09:07:16.000Z</time>
      </trkpt>
      <trkpt lat="43.75782" lon="3.91315">
        <ele>145.80000305176</ele>
        <time>2016-12-18T09:07:17.000Z</time>
      </trkpt>
      <trkpt lat="43.75784" lon="3.91318">
        <ele>146.19999694824</ele>
        <time>2016-12-18T09:07:19.000Z</time>
      </trkpt>
      <trkpt lat="43.75782" lon="3.91326">
        <ele>147</ele>
        <time>2016-12-18T09:07:23.000Z</time>
      </trkpt>
      <trkpt lat="43.75782" lon="3.91332">
        <ele>147.39999389648</ele>
        <time>2016-12-18T09:07:27.000Z</time>
      </trkpt>
      <trkpt lat="43.7579" lon="3.91336">
        <ele>147.80000305176</ele>
        <time>2016-12-18T09:07:33.000Z</time>
      </trkpt>
      <trkpt lat="43.75795" lon="3.91343">
        <ele>148.39999389648</ele>
        <time>2016-12-18T09:07:37.000Z</time>
      </trkpt>
      <trkpt lat="43.75798" lon="3.91348">
        <ele>148.80000305176</ele>
        <time>2016-12-18T09:07:40.000Z</time>
      </trkpt>
      <trkpt lat="43.75802" lon="3.91354">
        <ele>149.39999389648</ele>
        <time>2016-12-18T09:07:43.000Z</time>
      </trkpt>
      <trkpt lat="43.75807" lon="3.9136">
        <ele>150.19999694824</ele>
        <time>2016-12-18T09:07:49.000Z</time>
      </trkpt>
      <trkpt lat="43.75809" lon="3.91359">
        <ele>150</ele>
        <time>2016-12-18T09:07:51.000Z</time>
      </trkpt>
      <trkpt lat="43.75818" lon="3.91362">
        <ele>150.39999389648</ele>
        <time>2016-12-18T09:07:55.000Z</time>
      </trkpt>
      <trkpt lat="43.75819" lon="3.91363">
        <ele>150.60000610352</ele>
        <time>2016-12-18T09:07:56.000Z</time>
      </trkpt>
      <trkpt lat="43.75821" lon="3.91369">
        <ele>151.60000610352</ele>
        <time>2016-12-18T09:07:59.000Z</time>
      </trkpt>
      <trkpt lat="43.75822" lon="3.9137">
        <ele>152</ele>
        <time>2016-12-18T09:08:00.000Z</time>
      </trkpt>
      <trkpt lat="43.75825" lon="3.91372">
        <ele>152.19999694824</ele>
        <time>2016-12-18T09:08:02.000Z</time>
      </trkpt>
      <trkpt lat="43.75829" lon="3.91375">
        <ele>152.80000305176</ele>
        <time>2016-12-18T09:08:05.000Z</time>
      </trkpt>
      <trkpt lat="43.7583" lon="3.91379">
        <ele>153.60000610352</ele>
        <time>2016-12-18T09:08:07.000Z</time>
      </trkpt>
      <trkpt lat="43.75832" lon="3.91383">
        <ele>154.19999694824</ele>
        <time>2016-12-18T09:08:10.000Z</time>
      </trkpt>
      <trkpt lat="43.75837" lon="3.91388">
        <ele>155.19999694824</ele>
        <time>2016-12-18T09:08:14.000Z</time>
      </trkpt>
      <trkpt lat="43.75838" lon="3.91389">
        <ele>155.19999694824</ele>
        <time>2016-12-18T09:08:15.000Z</time>
      </trkpt>
      <trkpt lat="43.75841" lon="3.91387">
        <ele>154.80000305176</ele>
        <time>2016-12-18T09:08:17.000Z</time>
      </trkpt>
      <trkpt lat="43.75849" lon="3.91382">
        <ele>154</ele>
        <time>2016-12-18T09:08:20.000Z</time>
      </trkpt>
      <trkpt lat="43.75857" lon="3.91381">
        <ele>153.39999389648</ele>
        <time>2016-12-18T09:08:23.000Z</time>
      </trkpt>
      <trkpt lat="43.75861" lon="3.91379">
        <ele>152.80000305176</ele>
        <time>2016-12-18T09:08:25.000Z</time>
      </trkpt>
      <trkpt lat="43.75867" lon="3.91378">
        <ele>152.60000610352</ele>
        <time>2016-12-18T09:08:28.000Z</time>
      </trkpt>
      <trkpt lat="43.7587" lon="3.91381">
        <ele>152.80000305176</ele>
        <time>2016-12-18T09:08:30.000Z</time>
      </trkpt>
      <trkpt lat="43.75873" lon="3.91386">
        <ele>153.60000610352</ele>
        <time>2016-12-18T09:08:33.000Z</time>
      </trkpt>
      <trkpt lat="43.75875" lon="3.9139">
        <ele>154.39999389648</ele>
        <time>2016-12-18T09:08:35.000Z</time>
      </trkpt>
      <trkpt lat="43.75885" lon="3.91396">
        <ele>155</ele>
        <time>2016-12-18T09:08:41.000Z</time>
      </trkpt>
      <trkpt lat="43.75896" lon="3.91403">
        <ele>155.80000305176</ele>
        <time>2016-12-18T09:08:46.000Z</time>
      </trkpt>
      <trkpt lat="43.75898" lon="3.91404">
        <ele>156</ele>
        <time>2016-12-18T09:08:47.000Z</time>
      </trkpt>
      <trkpt lat="43.75907" lon="3.91408">
        <ele>156.39999389648</ele>
        <time>2016-12-18T09:08:52.000Z</time>
      </trkpt>
      <trkpt lat="43.75908" lon="3.91408">
        <ele>156.39999389648</ele>
        <time>2016-12-18T09:08:53.000Z</time>
      </trkpt>
      <trkpt lat="43.75913" lon="3.91407">
        <ele>156</ele>
        <time>2016-12-18T09:08:56.000Z</time>
      </trkpt>
      <trkpt lat="43.7592" lon="3.91407">
        <ele>155.80000305176</ele>
        <time>2016-12-18T09:08:59.000Z</time>
      </trkpt>
      <trkpt lat="43.75925" lon="3.91409">
        <ele>156.19999694824</ele>
        <time>2016-12-18T09:09:01.000Z</time>
      </trkpt>
      <trkpt lat="43.75928" lon="3.91411">
        <ele>156.19999694824</ele>
        <time>2016-12-18T09:09:04.000Z</time>
      </trkpt>
      <trkpt lat="43.75928" lon="3.9141">
        <ele>156</ele>
        <time>2016-12-18T09:09:05.000Z</time>
      </trkpt>
      <trkpt lat="43.75927" lon="3.91411">
        <ele>156.39999389648</ele>
        <time>2016-12-18T09:09:06.000Z</time>
      </trkpt>
      <trkpt lat="43.75924" lon="3.91408">
        <ele>155.80000305176</ele>
        <time>2016-12-18T09:09:09.000Z</time>
      </trkpt>
      <trkpt lat="43.75923" lon="3.91403">
        <ele>155.19999694824</ele>
        <time>2016-12-18T09:09:14.000Z</time>
      </trkpt>
      <trkpt lat="43.75918" lon="3.91385">
        <ele>152.19999694824</ele>
        <time>2016-12-18T09:09:20.000Z</time>
      </trkpt>
      <trkpt lat="43.75913" lon="3.91368">
        <ele>149.39999389648</ele>
        <time>2016-12-18T09:09:25.000Z</time>
      </trkpt>
      <trkpt lat="43.75914" lon="3.91364">
        <ele>148.80000305176</ele>
        <time>2016-12-18T09:09:27.000Z</time>
      </trkpt>
      <trkpt lat="43.75917" lon="3.91361">
        <ele>148.19999694824</ele>
        <time>2016-12-18T09:09:29.000Z</time>
      </trkpt>
      <trkpt lat="43.75928" lon="3.91351">
        <ele>146.39999389648</ele>
        <time>2016-12-18T09:09:35.000Z</time>
      </trkpt>
      <trkpt lat="43.75941" lon="3.91346">
        <ele>146</ele>
        <time>2016-12-18T09:09:40.000Z</time>
      </trkpt>
      <trkpt lat="43.75945" lon="3.91336">
        <ele>145.19999694824</ele>
        <time>2016-12-18T09:09:44.000Z</time>
      </trkpt>
      <trkpt lat="43.75946" lon="3.91334">
        <ele>145</ele>
        <time>2016-12-18T09:09:45.000Z</time>
      </trkpt>
      <trkpt lat="43.75948" lon="3.91336">
        <ele>145.39999389648</ele>
        <time>2016-12-18T09:09:47.000Z</time>
      </trkpt>
      <trkpt lat="43.75949" lon="3.91339">
        <ele>145.60000610352</ele>
        <time>2016-12-18T09:09:48.000Z</time>
      </trkpt>
      <trkpt lat="43.75954" lon="3.91351">
        <ele>147</ele>
        <time>2016-12-18T09:09:54.000Z</time>
      </trkpt>
      <trkpt lat="43.75961" lon="3.91363">
        <ele>148.80000305176</ele>
        <time>2016-12-18T09:10:00.000Z</time>
      </trkpt>
      <trkpt lat="43.75967" lon="3.91373">
        <ele>150.60000610352</ele>
        <time>2016-12-18T09:10:05.000Z</time>
      </trkpt>
      <trkpt lat="43.75969" lon="3.91374">
        <ele>150.80000305176</ele>
        <time>2016-12-18T09:10:06.000Z</time>
      </trkpt>
      <trkpt lat="43.75974" lon="3.91375">
        <ele>151.19999694824</ele>
        <time>2016-12-18T09:10:10.000Z</time>
      </trkpt>
      <trkpt lat="43.75977" lon="3.9138">
        <ele>152</ele>
        <time>2016-12-18T09:10:14.000Z</time>
      </trkpt>
      <trkpt lat="43.75986" lon="3.91386">
        <ele>153.39999389648</ele>
        <time>2016-12-18T09:10:20.000Z</time>
      </trkpt>
      <trkpt lat="43.75993" lon="3.91394">
        <ele>154.80000305176</ele>
        <time>2016-12-18T09:10:25.000Z</time>
      </trkpt>
      <trkpt lat="43.76004" lon="3.91401">
        <ele>156.19999694824</ele>
        <time>2016-12-18T09:10:31.000Z</time>
      </trkpt>
      <trkpt lat="43.76013" lon="3.91409">
        <ele>157.80000305176</ele>
        <time>2016-12-18T09:10:37.000Z</time>
      </trkpt>
      <trkpt lat="43.76019" lon="3.91418">
        <ele>159.39999389648</ele>
        <time>2016-12-18T09:10:42.000Z</time>
      </trkpt>
      <trkpt lat="43.76025" lon="3.91423">
        <ele>160.19999694824</ele>
        <time>2016-12-18T09:10:46.000Z</time>
      </trkpt>
      <trkpt lat="43.76026" lon="3.91424">
        <ele>160.60000610352</ele>
        <time>2016-12-18T09:10:47.000Z</time>
      </trkpt>
      <trkpt lat="43.76029" lon="3.91429">
        <ele>161.19999694824</ele>
        <time>2016-12-18T09:10:50.000Z</time>
      </trkpt>
      <trkpt lat="43.76032" lon="3.91433">
        <ele>161.80000305176</ele>
        <time>2016-12-18T09:10:52.000Z</time>
      </trkpt>
      <trkpt lat="43.76037" lon="3.91435">
        <ele>162.19999694824</ele>
        <time>2016-12-18T09:10:56.000Z</time>
      </trkpt>
      <trkpt lat="43.76039" lon="3.91436">
        <ele>162.39999389648</ele>
        <time>2016-12-18T09:10:57.000Z</time>
      </trkpt>
      <trkpt lat="43.76048" lon="3.91439">
        <ele>162.80000305176</ele>
        <time>2016-12-18T09:11:01.000Z</time>
      </trkpt>
      <trkpt lat="43.76051" lon="3.9144">
        <ele>162.80000305176</ele>
        <time>2016-12-18T09:11:02.000Z</time>
      </trkpt>
      <trkpt lat="43.76058" lon="3.91445">
        <ele>164.39999389648</ele>
        <time>2016-12-18T09:11:07.000Z</time>
      </trkpt>
      <trkpt lat="43.76069" lon="3.91443">
        <ele>163.80000305176</ele>
        <time>2016-12-18T09:11:11.000Z</time>
      </trkpt>
      <trkpt lat="43.76072" lon="3.91443">
        <ele>163.80000305176</ele>
        <time>2016-12-18T09:11:12.000Z</time>
      </trkpt>
      <trkpt lat="43.76078" lon="3.91441">
        <ele>163.19999694824</ele>
        <time>2016-12-18T09:11:15.000Z</time>
      </trkpt>
      <trkpt lat="43.76079" lon="3.9144">
        <ele>163</ele>
        <time>2016-12-18T09:11:16.000Z</time>
      </trkpt>
      <trkpt lat="43.76081" lon="3.91439">
        <ele>162.80000305176</ele>
        <time>2016-12-18T09:11:18.000Z</time>
      </trkpt>
      <trkpt lat="43.76081" lon="3.91438">
        <ele>162.80000305176</ele>
        <time>2016-12-18T09:11:21.000Z</time>
      </trkpt>
      <trkpt lat="43.76079" lon="3.91439">
        <ele>162.80000305176</ele>
        <time>2016-12-18T09:11:23.000Z</time>
      </trkpt>
      <trkpt lat="43.76076" lon="3.91437">
        <ele>162.39999389648</ele>
        <time>2016-12-18T09:11:25.000Z</time>
      </trkpt>
      <trkpt lat="43.76073" lon="3.91427">
        <ele>161</ele>
        <time>2016-12-18T09:11:30.000Z</time>
      </trkpt>
      <trkpt lat="43.76074" lon="3.91424">
        <ele>160.39999389648</ele>
        <time>2016-12-18T09:11:32.000Z</time>
      </trkpt>
      <trkpt lat="43.76077" lon="3.91423">
        <ele>160.39999389648</ele>
        <time>2016-12-18T09:11:33.000Z</time>
      </trkpt>
      <trkpt lat="43.7608" lon="3.91423">
        <ele>160.19999694824</ele>
        <time>2016-12-18T09:11:35.000Z</time>
      </trkpt>
      <trkpt lat="43.76081" lon="3.91422">
        <ele>160</ele>
        <time>2016-12-18T09:11:36.000Z</time>
      </trkpt>
      <trkpt lat="43.76088" lon="3.9142">
        <ele>159.80000305176</ele>
        <time>2016-12-18T09:11:40.000Z</time>
      </trkpt>
      <trkpt lat="43.7609" lon="3.91417">
        <ele>159.39999389648</ele>
        <time>2016-12-18T09:11:42.000Z</time>
      </trkpt>
      <trkpt lat="43.76091" lon="3.9141">
        <ele>158.19999694824</ele>
        <time>2016-12-18T09:11:45.000Z</time>
      </trkpt>
      <trkpt lat="43.76093" lon="3.91407">
        <ele>157.80000305176</ele>
        <time>2016-12-18T09:11:46.000Z</time>
      </trkpt>
      <trkpt lat="43.76095" lon="3.91401">
        <ele>156.80000305176</ele>
        <time>2016-12-18T09:11:49.000Z</time>
      </trkpt>
      <trkpt lat="43.761" lon="3.91392">
        <ele>155.60000610352</ele>
        <time>2016-12-18T09:11:53.000Z</time>
      </trkpt>
      <trkpt lat="43.76107" lon="3.91391">
        <ele>155.39999389648</ele>
        <time>2016-12-18T09:11:56.000Z</time>
      </trkpt>
      <trkpt lat="43.76109" lon="3.91391">
        <ele>155.60000610352</ele>
        <time>2016-12-18T09:11:57.000Z</time>
      </trkpt>
      <trkpt lat="43.76116" lon="3.91392">
        <ele>156</ele>
        <time>2016-12-18T09:12:02.000Z</time>
      </trkpt>
      <trkpt lat="43.76118" lon="3.91391">
        <ele>156</ele>
        <time>2016-12-18T09:12:03.000Z</time>
      </trkpt>
      <trkpt lat="43.76125" lon="3.91391">
        <ele>156.19999694824</ele>
        <time>2016-12-18T09:12:06.000Z</time>
      </trkpt>
      <trkpt lat="43.76129" lon="3.91391">
        <ele>156.60000610352</ele>
        <time>2016-12-18T09:12:08.000Z</time>
      </trkpt>
      <trkpt lat="43.7614" lon="3.91391">
        <ele>157</ele>
        <time>2016-12-18T09:12:12.000Z</time>
      </trkpt>
      <trkpt lat="43.76145" lon="3.91389">
        <ele>156.60000610352</ele>
        <time>2016-12-18T09:12:14.000Z</time>
      </trkpt>
      <trkpt lat="43.76156" lon="3.91388">
        <ele>156.39999389648</ele>
        <time>2016-12-18T09:12:19.000Z</time>
      </trkpt>
      <trkpt lat="43.7616" lon="3.91383">
        <ele>155.39999389648</ele>
        <time>2016-12-18T09:12:21.000Z</time>
      </trkpt>
      <trkpt lat="43.76164" lon="3.9138">
        <ele>154.60000610352</ele>
        <time>2016-12-18T09:12:23.000Z</time>
      </trkpt>
      <trkpt lat="43.76172" lon="3.91372">
        <ele>153.19999694824</ele>
        <time>2016-12-18T09:12:27.000Z</time>
      </trkpt>
      <trkpt lat="43.76175" lon="3.91372">
        <ele>153</ele>
        <time>2016-12-18T09:12:28.000Z</time>
      </trkpt>
      <trkpt lat="43.76176" lon="3.91371">
        <ele>152.80000305176</ele>
        <time>2016-12-18T09:12:29.000Z</time>
      </trkpt>
      <trkpt lat="43.76178" lon="3.91366">
        <ele>152</ele>
        <time>2016-12-18T09:12:31.000Z</time>
      </trkpt>
      <trkpt lat="43.76184" lon="3.91356">
        <ele>149.80000305176</ele>
        <time>2016-12-18T09:12:35.000Z</time>
      </trkpt>
      <trkpt lat="43.76192" lon="3.91354">
        <ele>149.39999389648</ele>
        <time>2016-12-18T09:12:39.000Z</time>
      </trkpt>
      <trkpt lat="43.762" lon="3.91351">
        <ele>148.60000610352</ele>
        <time>2016-12-18T09:12:44.000Z</time>
      </trkpt>
      <trkpt lat="43.76205" lon="3.91348">
        <ele>148</ele>
        <time>2016-12-18T09:12:47.000Z</time>
      </trkpt>
      <trkpt lat="43.76208" lon="3.91346">
        <ele>147.60000610352</ele>
        <time>2016-12-18T09:12:49.000Z</time>
      </trkpt>
      <trkpt lat="43.7621" lon="3.91345">
        <ele>147.39999389648</ele>
        <time>2016-12-18T09:12:50.000Z</time>
      </trkpt>
      <trkpt lat="43.76212" lon="3.91346">
        <ele>147.39999389648</ele>
        <time>2016-12-18T09:12:51.000Z</time>
      </trkpt>
      <trkpt lat="43.76218" lon="3.91341">
        <ele>146.39999389648</ele>
        <time>2016-12-18T09:12:54.000Z</time>
      </trkpt>
      <trkpt lat="43.7622" lon="3.91332">
        <ele>145.19999694824</ele>
        <time>2016-12-18T09:12:58.000Z</time>
      </trkpt>
      <trkpt lat="43.76222" lon="3.91328">
        <ele>144.60000610352</ele>
        <time>2016-12-18T09:13:02.000Z</time>
      </trkpt>
      <trkpt lat="43.76221" lon="3.91319">
        <ele>143.39999389648</ele>
        <time>2016-12-18T09:13:06.000Z</time>
      </trkpt>
      <trkpt lat="43.7623" lon="3.91315">
        <ele>142.39999389648</ele>
        <time>2016-12-18T09:13:10.000Z</time>
      </trkpt>
      <trkpt lat="43.76233" lon="3.9131">
        <ele>142</ele>
        <time>2016-12-18T09:13:12.000Z</time>
      </trkpt>
      <trkpt lat="43.76236" lon="3.91302">
        <ele>141.19999694824</ele>
        <time>2016-12-18T09:13:14.000Z</time>
      </trkpt>
      <trkpt lat="43.76241" lon="3.91283">
        <ele>139.19999694824</ele>
        <time>2016-12-18T09:13:20.000Z</time>
      </trkpt>
      <trkpt lat="43.76246" lon="3.91268">
        <ele>138</ele>
        <time>2016-12-18T09:13:24.000Z</time>
      </trkpt>
      <trkpt lat="43.76253" lon="3.91251">
        <ele>136.60000610352</ele>
        <time>2016-12-18T09:13:29.000Z</time>
      </trkpt>
      <trkpt lat="43.76261" lon="3.91234">
        <ele>135.19999694824</ele>
        <time>2016-12-18T09:13:35.000Z</time>
      </trkpt>
      <trkpt lat="43.7627" lon="3.91228">
        <ele>134.80000305176</ele>
        <time>2016-12-18T09:13:39.000Z</time>
      </trkpt>
      <trkpt lat="43.76285" lon="3.9123">
        <ele>134.39999389648</ele>
        <time>2016-12-18T09:13:45.000Z</time>
      </trkpt>
      <trkpt lat="43.763" lon="3.9123">
        <ele>134.19999694824</ele>
        <time>2016-12-18T09:13:51.000Z</time>
      </trkpt>
      <trkpt lat="43.76314" lon="3.91229">
        <ele>133.80000305176</ele>
        <time>2016-12-18T09:13:56.000Z</time>
      </trkpt>
      <trkpt lat="43.76334" lon="3.91233">
        <ele>133.39999389648</ele>
        <time>2016-12-18T09:14:03.000Z</time>
      </trkpt>
      <trkpt lat="43.76352" lon="3.91239">
        <ele>133.19999694824</ele>
        <time>2016-12-18T09:14:10.000Z</time>
      </trkpt>
      <trkpt lat="43.76358" lon="3.91245">
        <ele>133.60000610352</ele>
        <time>2016-12-18T09:14:13.000Z</time>
      </trkpt>
      <trkpt lat="43.76361" lon="3.91247">
        <ele>133.80000305176</ele>
        <time>2016-12-18T09:14:15.000Z</time>
      </trkpt>
      <trkpt lat="43.7637" lon="3.91244">
        <ele>133.39999389648</ele>
        <time>2016-12-18T09:14:19.000Z</time>
      </trkpt>
      <trkpt lat="43.76372" lon="3.91242">
        <ele>133.19999694824</ele>
        <time>2016-12-18T09:14:20.000Z</time>
      </trkpt>
      <trkpt lat="43.76381" lon="3.91241">
        <ele>133</ele>
        <time>2016-12-18T09:14:24.000Z</time>
      </trkpt>
      <trkpt lat="43.7638" lon="3.91241">
        <ele>133</ele>
        <time>2016-12-18T09:14:25.000Z</time>
      </trkpt>
      <trkpt lat="43.76375" lon="3.91242">
        <ele>133</ele>
        <time>2016-12-18T09:14:28.000Z</time>
      </trkpt>
      <trkpt lat="43.76369" lon="3.91245">
        <ele>133.39999389648</ele>
        <time>2016-12-18T09:14:31.000Z</time>
      </trkpt>
      <trkpt lat="43.76367" lon="3.91246">
        <ele>133.60000610352</ele>
        <time>2016-12-18T09:14:32.000Z</time>
      </trkpt>
      <trkpt lat="43.76368" lon="3.91254">
        <ele>134.19999694824</ele>
        <time>2016-12-18T09:14:36.000Z</time>
      </trkpt>
      <trkpt lat="43.76375" lon="3.91263">
        <ele>134.80000305176</ele>
        <time>2016-12-18T09:14:41.000Z</time>
      </trkpt>
      <trkpt lat="43.76377" lon="3.91263">
        <ele>134.80000305176</ele>
        <time>2016-12-18T09:14:42.000Z</time>
      </trkpt>
      <trkpt lat="43.76389" lon="3.91264">
        <ele>134.80000305176</ele>
        <time>2016-12-18T09:14:47.000Z</time>
      </trkpt>
      <trkpt lat="43.76397" lon="3.91265">
        <ele>134.80000305176</ele>
        <time>2016-12-18T09:14:52.000Z</time>
      </trkpt>
      <trkpt lat="43.76396" lon="3.91263">
        <ele>134.60000610352</ele>
        <time>2016-12-18T09:14:55.000Z</time>
      </trkpt>
      <trkpt lat="43.76396" lon="3.91261">
        <ele>134.39999389648</ele>
        <time>2016-12-18T09:14:56.000Z</time>
      </trkpt>
      <trkpt lat="43.76406" lon="3.91251">
        <ele>133.39999389648</ele>
        <time>2016-12-18T09:15:01.000Z</time>
      </trkpt>
      <trkpt lat="43.76419" lon="3.91252">
        <ele>133.39999389648</ele>
        <time>2016-12-18T09:15:06.000Z</time>
      </trkpt>
      <trkpt lat="43.76425" lon="3.91255">
        <ele>133.80000305176</ele>
        <time>2016-12-18T09:15:09.000Z</time>
      </trkpt>
      <trkpt lat="43.76427" lon="3.91257">
        <ele>133.80000305176</ele>
        <time>2016-12-18T09:15:10.000Z</time>
      </trkpt>
      <trkpt lat="43.76436" lon="3.91259">
        <ele>134</ele>
        <time>2016-12-18T09:15:14.000Z</time>
      </trkpt>
      <trkpt lat="43.76447" lon="3.91261">
        <ele>134.19999694824</ele>
        <time>2016-12-18T09:15:19.000Z</time>
      </trkpt>
      <trkpt lat="43.76456" lon="3.91265">
        <ele>134.39999389648</ele>
        <time>2016-12-18T09:15:25.000Z</time>
      </trkpt>
      <trkpt lat="43.76471" lon="3.91271">
        <ele>134.80000305176</ele>
        <time>2016-12-18T09:15:33.000Z</time>
      </trkpt>
      <trkpt lat="43.76483" lon="3.91278">
        <ele>135.39999389648</ele>
        <time>2016-12-18T09:15:40.000Z</time>
      </trkpt>
      <trkpt lat="43.76495" lon="3.9128">
        <ele>135.39999389648</ele>
        <time>2016-12-18T09:15:46.000Z</time>
      </trkpt>
      <trkpt lat="43.76506" lon="3.91287">
        <ele>136</ele>
        <time>2016-12-18T09:15:51.000Z</time>
      </trkpt>
      <trkpt lat="43.76509" lon="3.91298">
        <ele>136.80000305176</ele>
        <time>2016-12-18T09:15:55.000Z</time>
      </trkpt>
      <trkpt lat="43.76508" lon="3.91304">
        <ele>137.19999694824</ele>
        <time>2016-12-18T09:15:57.000Z</time>
      </trkpt>
      <trkpt lat="43.76505" lon="3.9131">
        <ele>137.60000610352</ele>
        <time>2016-12-18T09:16:00.000Z</time>
      </trkpt>
      <trkpt lat="43.76496" lon="3.91317">
        <ele>138.19999694824</ele>
        <time>2016-12-18T09:16:05.000Z</time>
      </trkpt>
      <trkpt lat="43.76483" lon="3.91322">
        <ele>138.60000610352</ele>
        <time>2016-12-18T09:16:11.000Z</time>
      </trkpt>
      <trkpt lat="43.76473" lon="3.91322">
        <ele>138.80000305176</ele>
        <time>2016-12-18T09:16:15.000Z</time>
      </trkpt>
      <trkpt lat="43.76471" lon="3.9132">
        <ele>138.80000305176</ele>
        <time>2016-12-18T09:16:16.000Z</time>
      </trkpt>
      <trkpt lat="43.7646" lon="3.91318">
        <ele>138.80000305176</ele>
        <time>2016-12-18T09:16:21.000Z</time>
      </trkpt>
      <trkpt lat="43.76445" lon="3.91326">
        <ele>139.80000305176</ele>
        <time>2016-12-18T09:16:28.000Z</time>
      </trkpt>
      <trkpt lat="43.76434" lon="3.91331">
        <ele>140.60000610352</ele>
        <time>2016-12-18T09:16:33.000Z</time>
      </trkpt>
      <trkpt lat="43.7642" lon="3.91339">
        <ele>141.60000610352</ele>
        <time>2016-12-18T09:16:39.000Z</time>
      </trkpt>
      <trkpt lat="43.76408" lon="3.91342">
        <ele>141.80000305176</ele>
        <time>2016-12-18T09:16:44.000Z</time>
      </trkpt>
      <trkpt lat="43.76393" lon="3.91342">
        <ele>141.80000305176</ele>
        <time>2016-12-18T09:16:50.000Z</time>
      </trkpt>
      <trkpt lat="43.7638" lon="3.9135">
        <ele>142.39999389648</ele>
        <time>2016-12-18T09:16:56.000Z</time>
      </trkpt>
      <trkpt lat="43.76376" lon="3.91353">
        <ele>142.60000610352</ele>
        <time>2016-12-18T09:16:58.000Z</time>
      </trkpt>
      <trkpt lat="43.76371" lon="3.91355">
        <ele>142.80000305176</ele>
        <time>2016-12-18T09:17:01.000Z</time>
      </trkpt>
      <trkpt lat="43.76369" lon="3.91356">
        <ele>143</ele>
        <time>2016-12-18T09:17:02.000Z</time>
      </trkpt>
      <trkpt lat="43.76363" lon="3.91363">
        <ele>143.80000305176</ele>
        <time>2016-12-18T09:17:07.000Z</time>
      </trkpt>
      <trkpt lat="43.76355" lon="3.91368">
        <ele>145.19999694824</ele>
        <time>2016-12-18T09:17:12.000Z</time>
      </trkpt>
      <trkpt lat="43.76346" lon="3.91373">
        <ele>146.39999389648</ele>
        <time>2016-12-18T09:17:16.000Z</time>
      </trkpt>
      <trkpt lat="43.76345" lon="3.91373">
        <ele>146.39999389648</ele>
        <time>2016-12-18T09:17:17.000Z</time>
      </trkpt>
      <trkpt lat="43.76341" lon="3.91374">
        <ele>146.80000305176</ele>
        <time>2016-12-18T09:17:19.000Z</time>
      </trkpt>
      <trkpt lat="43.76336" lon="3.91378">
        <ele>147.80000305176</ele>
        <time>2016-12-18T09:17:22.000Z</time>
      </trkpt>
      <trkpt lat="43.76332" lon="3.91379">
        <ele>148.19999694824</ele>
        <time>2016-12-18T09:17:24.000Z</time>
      </trkpt>
      <trkpt lat="43.76326" lon="3.91382">
        <ele>148.80000305176</ele>
        <time>2016-12-18T09:17:28.000Z</time>
      </trkpt>
      <trkpt lat="43.76325" lon="3.91382">
        <ele>149</ele>
        <time>2016-12-18T09:17:29.000Z</time>
      </trkpt>
      <trkpt lat="43.76317" lon="3.91381">
        <ele>149</ele>
        <time>2016-12-18T09:17:33.000Z</time>
      </trkpt>
      <trkpt lat="43.76305" lon="3.91383">
        <ele>149.80000305176</ele>
        <time>2016-12-18T09:17:39.000Z</time>
      </trkpt>
      <trkpt lat="43.763" lon="3.91383">
        <ele>150</ele>
        <time>2016-12-18T09:17:42.000Z</time>
      </trkpt>
      <trkpt lat="43.76297" lon="3.91387">
        <ele>150.80000305176</ele>
        <time>2016-12-18T09:17:44.000Z</time>
      </trkpt>
      <trkpt lat="43.76287" lon="3.91398">
        <ele>153.60000610352</ele>
        <time>2016-12-18T09:17:49.000Z</time>
      </trkpt>
      <trkpt lat="43.76285" lon="3.91398">
        <ele>153.80000305176</ele>
        <time>2016-12-18T09:17:50.000Z</time>
      </trkpt>
      <trkpt lat="43.76276" lon="3.91405">
        <ele>155.39999389648</ele>
        <time>2016-12-18T09:17:55.000Z</time>
      </trkpt>
      <trkpt lat="43.76274" lon="3.91408">
        <ele>156.19999694824</ele>
        <time>2016-12-18T09:17:57.000Z</time>
      </trkpt>
      <trkpt lat="43.7627" lon="3.91411">
        <ele>157.19999694824</ele>
        <time>2016-12-18T09:18:00.000Z</time>
      </trkpt>
      <trkpt lat="43.76269" lon="3.91413">
        <ele>157.39999389648</ele>
        <time>2016-12-18T09:18:01.000Z</time>
      </trkpt>
      <trkpt lat="43.76265" lon="3.91416">
        <ele>158.19999694824</ele>
        <time>2016-12-18T09:18:05.000Z</time>
      </trkpt>
      <trkpt lat="43.76264" lon="3.91417">
        <ele>158.60000610352</ele>
        <time>2016-12-18T09:18:06.000Z</time>
      </trkpt>
      <trkpt lat="43.76259" lon="3.91419">
        <ele>159.19999694824</ele>
        <time>2016-12-18T09:18:10.000Z</time>
      </trkpt>
      <trkpt lat="43.76258" lon="3.91419">
        <ele>159.19999694824</ele>
        <time>2016-12-18T09:18:11.000Z</time>
      </trkpt>
      <trkpt lat="43.76251" lon="3.91421">
        <ele>160</ele>
        <time>2016-12-18T09:18:16.000Z</time>
      </trkpt>
      <trkpt lat="43.76244" lon="3.91424">
        <ele>161</ele>
        <time>2016-12-18T09:18:21.000Z</time>
      </trkpt>
      <trkpt lat="43.76243" lon="3.91425">
        <ele>161.19999694824</ele>
        <time>2016-12-18T09:18:22.000Z</time>
      </trkpt>
      <trkpt lat="43.76239" lon="3.91426">
        <ele>161.60000610352</ele>
        <time>2016-12-18T09:18:25.000Z</time>
      </trkpt>
      <trkpt lat="43.76238" lon="3.91426">
        <ele>161.80000305176</ele>
        <time>2016-12-18T09:18:26.000Z</time>
      </trkpt>
      <trkpt lat="43.76237" lon="3.91427">
        <ele>162</ele>
        <time>2016-12-18T09:18:27.000Z</time>
      </trkpt>
      <trkpt lat="43.7623" lon="3.91434">
        <ele>163.60000610352</ele>
        <time>2016-12-18T09:18:33.000Z</time>
      </trkpt>
      <trkpt lat="43.76233" lon="3.9144">
        <ele>164.80000305176</ele>
        <time>2016-12-18T09:18:37.000Z</time>
      </trkpt>
      <trkpt lat="43.76234" lon="3.91441">
        <ele>165</ele>
        <time>2016-12-18T09:18:38.000Z</time>
      </trkpt>
      <trkpt lat="43.7624" lon="3.91448">
        <ele>166.60000610352</ele>
        <time>2016-12-18T09:18:44.000Z</time>
      </trkpt>
      <trkpt lat="43.76248" lon="3.91455">
        <ele>168.39999389648</ele>
        <time>2016-12-18T09:18:51.000Z</time>
      </trkpt>
      <trkpt lat="43.76251" lon="3.91457">
        <ele>169</ele>
        <time>2016-12-18T09:18:54.000Z</time>
      </trkpt>
      <trkpt lat="43.76255" lon="3.9146">
        <ele>169.39999389648</ele>
        <time>2016-12-18T09:18:57.000Z</time>
      </trkpt>
      <trkpt lat="43.76261" lon="3.91464">
        <ele>170.39999389648</ele>
        <time>2016-12-18T09:19:02.000Z</time>
      </trkpt>
      <trkpt lat="43.76264" lon="3.91466">
        <ele>170.80000305176</ele>
        <time>2016-12-18T09:19:04.000Z</time>
      </trkpt>
      <trkpt lat="43.76271" lon="3.91473">
        <ele>172.39999389648</ele>
        <time>2016-12-18T09:19:10.000Z</time>
      </trkpt>
      <trkpt lat="43.76281" lon="3.91481">
        <ele>174</ele>
        <time>2016-12-18T09:19:15.000Z</time>
      </trkpt>
      <trkpt lat="43.76287" lon="3.91483">
        <ele>174.39999389648</ele>
        <time>2016-12-18T09:19:20.000Z</time>
      </trkpt>
      <trkpt lat="43.76288" lon="3.91484">
        <ele>174.60000610352</ele>
        <time>2016-12-18T09:19:21.000Z</time>
      </trkpt>
      <trkpt lat="43.76294" lon="3.91485">
        <ele>174.60000610352</ele>
        <time>2016-12-18T09:19:26.000Z</time>
      </trkpt>
      <trkpt lat="43.76299" lon="3.9149">
        <ele>175.60000610352</ele>
        <time>2016-12-18T09:19:30.000Z</time>
      </trkpt>
      <trkpt lat="43.76302" lon="3.91492">
        <ele>176</ele>
        <time>2016-12-18T09:19:32.000Z</time>
      </trkpt>
      <trkpt lat="43.76312" lon="3.91498">
        <ele>177.19999694824</ele>
        <time>2016-12-18T09:19:38.000Z</time>
      </trkpt>
      <trkpt lat="43.76319" lon="3.91506">
        <ele>179</ele>
        <time>2016-12-18T09:19:45.000Z</time>
      </trkpt>
      <trkpt lat="43.7632" lon="3.91507">
        <ele>179.39999389648</ele>
        <time>2016-12-18T09:19:47.000Z</time>
      </trkpt>
      <trkpt lat="43.76325" lon="3.91511">
        <ele>180.19999694824</ele>
        <time>2016-12-18T09:19:51.000Z</time>
      </trkpt>
      <trkpt lat="43.76329" lon="3.91514">
        <ele>180.80000305176</ele>
        <time>2016-12-18T09:19:55.000Z</time>
      </trkpt>
      <trkpt lat="43.7633" lon="3.91515">
        <ele>181</ele>
        <time>2016-12-18T09:19:56.000Z</time>
      </trkpt>
      <trkpt lat="43.76338" lon="3.91526">
        <ele>183.80000305176</ele>
        <time>2016-12-18T09:20:04.000Z</time>
      </trkpt>
      <trkpt lat="43.76345" lon="3.91534">
        <ele>186.39999389648</ele>
        <time>2016-12-18T09:20:11.000Z</time>
      </trkpt>
      <trkpt lat="43.7635" lon="3.91541">
        <ele>188.60000610352</ele>
        <time>2016-12-18T09:20:17.000Z</time>
      </trkpt>
      <trkpt lat="43.76351" lon="3.91542">
        <ele>189</ele>
        <time>2016-12-18T09:20:18.000Z</time>
      </trkpt>
      <trkpt lat="43.76357" lon="3.91547">
        <ele>190.39999389648</ele>
        <time>2016-12-18T09:20:22.000Z</time>
      </trkpt>
      <trkpt lat="43.76361" lon="3.9155">
        <ele>191.19999694824</ele>
        <time>2016-12-18T09:20:25.000Z</time>
      </trkpt>
      <trkpt lat="43.76363" lon="3.91552">
        <ele>191.39999389648</ele>
        <time>2016-12-18T09:20:27.000Z</time>
      </trkpt>
      <trkpt lat="43.76371" lon="3.91558">
        <ele>192.60000610352</ele>
        <time>2016-12-18T09:20:33.000Z</time>
      </trkpt>
      <trkpt lat="43.76378" lon="3.91563">
        <ele>193.80000305176</ele>
        <time>2016-12-18T09:20:37.000Z</time>
      </trkpt>
      <trkpt lat="43.76382" lon="3.91564">
        <ele>193.60000610352</ele>
        <time>2016-12-18T09:20:39.000Z</time>
      </trkpt>
      <trkpt lat="43.76394" lon="3.9157">
        <ele>194.60000610352</ele>
        <time>2016-12-18T09:20:46.000Z</time>
      </trkpt>
      <trkpt lat="43.76396" lon="3.91573">
        <ele>195.19999694824</ele>
        <time>2016-12-18T09:20:48.000Z</time>
      </trkpt>
      <trkpt lat="43.76401" lon="3.91576">
        <ele>195.80000305176</ele>
        <time>2016-12-18T09:20:51.000Z</time>
      </trkpt>
      <trkpt lat="43.76408" lon="3.91581">
        <ele>196.80000305176</ele>
        <time>2016-12-18T09:20:57.000Z</time>
      </trkpt>
      <trkpt lat="43.76415" lon="3.91586">
        <ele>197.80000305176</ele>
        <time>2016-12-18T09:21:03.000Z</time>
      </trkpt>
      <trkpt lat="43.76423" lon="3.91591">
        <ele>199</ele>
        <time>2016-12-18T09:21:09.000Z</time>
      </trkpt>
      <trkpt lat="43.76426" lon="3.91593">
        <ele>199.19999694824</ele>
        <time>2016-12-18T09:21:11.000Z</time>
      </trkpt>
      <trkpt lat="43.7643" lon="3.91593">
        <ele>199</ele>
        <time>2016-12-18T09:21:14.000Z</time>
      </trkpt>
      <trkpt lat="43.76434" lon="3.91593">
        <ele>199</ele>
        <time>2016-12-18T09:21:16.000Z</time>
      </trkpt>
      <trkpt lat="43.76439" lon="3.91595">
        <ele>199</ele>
        <time>2016-12-18T09:21:20.000Z</time>
      </trkpt>
      <trkpt lat="43.76441" lon="3.91596">
        <ele>199</ele>
        <time>2016-12-18T09:21:22.000Z</time>
      </trkpt>
      <trkpt lat="43.76446" lon="3.916">
        <ele>199.80000305176</ele>
        <time>2016-12-18T09:21:26.000Z</time>
      </trkpt>
      <trkpt lat="43.76453" lon="3.91607">
        <ele>201</ele>
        <time>2016-12-18T09:21:32.000Z</time>
      </trkpt>
      <trkpt lat="43.76461" lon="3.91617">
        <ele>203.19999694824</ele>
        <time>2016-12-18T09:21:39.000Z</time>
      </trkpt>
      <trkpt lat="43.76468" lon="3.91625">
        <ele>204.80000305176</ele>
        <time>2016-12-18T09:21:45.000Z</time>
      </trkpt>
      <trkpt lat="43.76475" lon="3.91633">
        <ele>206.39999389648</ele>
        <time>2016-12-18T09:21:53.000Z</time>
      </trkpt>
      <trkpt lat="43.76481" lon="3.91641">
        <ele>208.39999389648</ele>
        <time>2016-12-18T09:22:00.000Z</time>
      </trkpt>
      <trkpt lat="43.76485" lon="3.91651">
        <ele>211</ele>
        <time>2016-12-18T09:22:06.000Z</time>
      </trkpt>
      <trkpt lat="43.7649" lon="3.91656">
        <ele>211.80000305176</ele>
        <time>2016-12-18T09:22:10.000Z</time>
      </trkpt>
      <trkpt lat="43.76491" lon="3.91659">
        <ele>212.80000305176</ele>
        <time>2016-12-18T09:22:13.000Z</time>
      </trkpt>
      <trkpt lat="43.76494" lon="3.91665">
        <ele>214.39999389648</ele>
        <time>2016-12-18T09:22:17.000Z</time>
      </trkpt>
      <trkpt lat="43.76496" lon="3.91669">
        <ele>215.39999389648</ele>
        <time>2016-12-18T09:22:19.000Z</time>
      </trkpt>
      <trkpt lat="43.76501" lon="3.91676">
        <ele>217</ele>
        <time>2016-12-18T09:22:24.000Z</time>
      </trkpt>
      <trkpt lat="43.76502" lon="3.91679">
        <ele>218</ele>
        <time>2016-12-18T09:22:26.000Z</time>
      </trkpt>
      <trkpt lat="43.76503" lon="3.91685">
        <ele>219.60000610352</ele>
        <time>2016-12-18T09:22:29.000Z</time>
      </trkpt>
      <trkpt lat="43.76504" lon="3.91687">
        <ele>220.39999389648</ele>
        <time>2016-12-18T09:22:31.000Z</time>
      </trkpt>
      <trkpt lat="43.76505" lon="3.9169">
        <ele>221</ele>
        <time>2016-12-18T09:22:33.000Z</time>
      </trkpt>
      <trkpt lat="43.76508" lon="3.91698">
        <ele>222.60000610352</ele>
        <time>2016-12-18T09:22:38.000Z</time>
      </trkpt>
      <trkpt lat="43.76509" lon="3.91702">
        <ele>223.19999694824</ele>
        <time>2016-12-18T09:22:40.000Z</time>
      </trkpt>
      <trkpt lat="43.76512" lon="3.91707">
        <ele>224</ele>
        <time>2016-12-18T09:22:43.000Z</time>
      </trkpt>
      <trkpt lat="43.76512" lon="3.91709">
        <ele>224.39999389648</ele>
        <time>2016-12-18T09:22:44.000Z</time>
      </trkpt>
      <trkpt lat="43.76514" lon="3.91715">
        <ele>225.60000610352</ele>
        <time>2016-12-18T09:22:48.000Z</time>
      </trkpt>
      <trkpt lat="43.76515" lon="3.91718">
        <ele>226</ele>
        <time>2016-12-18T09:22:50.000Z</time>
      </trkpt>
      <trkpt lat="43.76516" lon="3.9172">
        <ele>226.39999389648</ele>
        <time>2016-12-18T09:22:51.000Z</time>
      </trkpt>
      <trkpt lat="43.76518" lon="3.91726">
        <ele>227.39999389648</ele>
        <time>2016-12-18T09:22:54.000Z</time>
      </trkpt>
      <trkpt lat="43.76519" lon="3.91728">
        <ele>227.80000305176</ele>
        <time>2016-12-18T09:22:55.000Z</time>
      </trkpt>
      <trkpt lat="43.7652" lon="3.91735">
        <ele>229.39999389648</ele>
        <time>2016-12-18T09:22:59.000Z</time>
      </trkpt>
      <trkpt lat="43.76522" lon="3.91748">
        <ele>231.80000305176</ele>
        <time>2016-12-18T09:23:05.000Z</time>
      </trkpt>
      <trkpt lat="43.76522" lon="3.91753">
        <ele>233</ele>
        <time>2016-12-18T09:23:08.000Z</time>
      </trkpt>
      <trkpt lat="43.76522" lon="3.91757">
        <ele>234</ele>
        <time>2016-12-18T09:23:10.000Z</time>
      </trkpt>
      <trkpt lat="43.76521" lon="3.91758">
        <ele>234.19999694824</ele>
        <time>2016-12-18T09:23:11.000Z</time>
      </trkpt>
      <trkpt lat="43.76521" lon="3.91764">
        <ele>236</ele>
        <time>2016-12-18T09:23:15.000Z</time>
      </trkpt>
      <trkpt lat="43.76519" lon="3.91771">
        <ele>237.80000305176</ele>
        <time>2016-12-18T09:23:20.000Z</time>
      </trkpt>
      <trkpt lat="43.76519" lon="3.91775">
        <ele>238.39999389648</ele>
        <time>2016-12-18T09:23:22.000Z</time>
      </trkpt>
      <trkpt lat="43.76519" lon="3.9178">
        <ele>239</ele>
        <time>2016-12-18T09:23:25.000Z</time>
      </trkpt>
      <trkpt lat="43.76519" lon="3.91785">
        <ele>239.60000610352</ele>
        <time>2016-12-18T09:23:28.000Z</time>
      </trkpt>
      <trkpt lat="43.76519" lon="3.91788">
        <ele>239.80000305176</ele>
        <time>2016-12-18T09:23:29.000Z</time>
      </trkpt>
      <trkpt lat="43.76518" lon="3.91794">
        <ele>240.60000610352</ele>
        <time>2016-12-18T09:23:33.000Z</time>
      </trkpt>
      <trkpt lat="43.76518" lon="3.91795">
        <ele>240.80000305176</ele>
        <time>2016-12-18T09:23:34.000Z</time>
      </trkpt>
      <trkpt lat="43.76514" lon="3.91803">
        <ele>242.19999694824</ele>
        <time>2016-12-18T09:23:40.000Z</time>
      </trkpt>
      <trkpt lat="43.76516" lon="3.9182">
        <ele>243.80000305176</ele>
        <time>2016-12-18T09:23:48.000Z</time>
      </trkpt>
      <trkpt lat="43.76516" lon="3.91821">
        <ele>244</ele>
        <time>2016-12-18T09:23:49.000Z</time>
      </trkpt>
      <trkpt lat="43.76516" lon="3.9183">
        <ele>244.80000305176</ele>
        <time>2016-12-18T09:23:54.000Z</time>
      </trkpt>
      <trkpt lat="43.76513" lon="3.91842">
        <ele>246.60000610352</ele>
        <time>2016-12-18T09:24:01.000Z</time>
      </trkpt>
      <trkpt lat="43.76511" lon="3.91848">
        <ele>247.60000610352</ele>
        <time>2016-12-18T09:24:05.000Z</time>
      </trkpt>
      <trkpt lat="43.76511" lon="3.91853">
        <ele>247.80000305176</ele>
        <time>2016-12-18T09:24:07.000Z</time>
      </trkpt>
      <trkpt lat="43.7651" lon="3.91857">
        <ele>248.19999694824</ele>
        <time>2016-12-18T09:24:09.000Z</time>
      </trkpt>
      <trkpt lat="43.76509" lon="3.91859">
        <ele>248.39999389648</ele>
        <time>2016-12-18T09:24:11.000Z</time>
      </trkpt>
      <trkpt lat="43.76508" lon="3.91862">
        <ele>248.80000305176</ele>
        <time>2016-12-18T09:24:13.000Z</time>
      </trkpt>
      <trkpt lat="43.76507" lon="3.91868">
        <ele>249.60000610352</ele>
        <time>2016-12-18T09:24:15.000Z</time>
      </trkpt>
      <trkpt lat="43.76506" lon="3.91877">
        <ele>250.60000610352</ele>
        <time>2016-12-18T09:24:18.000Z</time>
      </trkpt>
      <trkpt lat="43.76506" lon="3.9189">
        <ele>251.80000305176</ele>
        <time>2016-12-18T09:24:24.000Z</time>
      </trkpt>
      <trkpt lat="43.76504" lon="3.91897">
        <ele>252.60000610352</ele>
        <time>2016-12-18T09:24:28.000Z</time>
      </trkpt>
      <trkpt lat="43.76505" lon="3.91902">
        <ele>253</ele>
        <time>2016-12-18T09:24:30.000Z</time>
      </trkpt>
      <trkpt lat="43.76505" lon="3.91909">
        <ele>253.80000305176</ele>
        <time>2016-12-18T09:24:34.000Z</time>
      </trkpt>
      <trkpt lat="43.76505" lon="3.91913">
        <ele>254.19999694824</ele>
        <time>2016-12-18T09:24:36.000Z</time>
      </trkpt>
      <trkpt lat="43.76504" lon="3.91916">
        <ele>254.60000610352</ele>
        <time>2016-12-18T09:24:37.000Z</time>
      </trkpt>
      <trkpt lat="43.76505" lon="3.91923">
        <ele>255.19999694824</ele>
        <time>2016-12-18T09:24:40.000Z</time>
      </trkpt>
      <trkpt lat="43.76508" lon="3.91931">
        <ele>255.80000305176</ele>
        <time>2016-12-18T09:24:43.000Z</time>
      </trkpt>
      <trkpt lat="43.7651" lon="3.9194">
        <ele>256.60000610352</ele>
        <time>2016-12-18T09:24:46.000Z</time>
      </trkpt>
      <trkpt lat="43.76514" lon="3.91947">
        <ele>256.79998779297</ele>
        <time>2016-12-18T09:24:49.000Z</time>
      </trkpt>
      <trkpt lat="43.76522" lon="3.91964">
        <ele>257.39999389648</ele>
        <time>2016-12-18T09:24:55.000Z</time>
      </trkpt>
      <trkpt lat="43.76528" lon="3.91983">
        <ele>258.60000610352</ele>
        <time>2016-12-18T09:25:01.000Z</time>
      </trkpt>
      <trkpt lat="43.76532" lon="3.91996">
        <ele>259.60000610352</ele>
        <time>2016-12-18T09:25:06.000Z</time>
      </trkpt>
      <trkpt lat="43.76542" lon="3.91995">
        <ele>258.20001220703</ele>
        <time>2016-12-18T09:25:10.000Z</time>
      </trkpt>
      <trkpt lat="43.76553" lon="3.91996">
        <ele>256.79998779297</ele>
        <time>2016-12-18T09:25:15.000Z</time>
      </trkpt>
      <trkpt lat="43.76563" lon="3.91994">
        <ele>255.19999694824</ele>
        <time>2016-12-18T09:25:20.000Z</time>
      </trkpt>
      <trkpt lat="43.76568" lon="3.91995">
        <ele>254.80000305176</ele>
        <time>2016-12-18T09:25:22.000Z</time>
      </trkpt>
      <trkpt lat="43.76574" lon="3.92004">
        <ele>255</ele>
        <time>2016-12-18T09:25:25.000Z</time>
      </trkpt>
      <trkpt lat="43.76575" lon="3.92006">
        <ele>255</ele>
        <time>2016-12-18T09:25:26.000Z</time>
      </trkpt>
      <trkpt lat="43.76581" lon="3.92011">
        <ele>254.60000610352</ele>
        <time>2016-12-18T09:25:29.000Z</time>
      </trkpt>
      <trkpt lat="43.76587" lon="3.92013">
        <ele>254</ele>
        <time>2016-12-18T09:25:32.000Z</time>
      </trkpt>
      <trkpt lat="43.7659" lon="3.92017">
        <ele>254.19999694824</ele>
        <time>2016-12-18T09:25:33.000Z</time>
      </trkpt>
      <trkpt lat="43.76595" lon="3.92023">
        <ele>254.19999694824</ele>
        <time>2016-12-18T09:25:36.000Z</time>
      </trkpt>
      <trkpt lat="43.76601" lon="3.92033">
        <ele>254.39999389648</ele>
        <time>2016-12-18T09:25:41.000Z</time>
      </trkpt>
      <trkpt lat="43.76606" lon="3.92045">
        <ele>255</ele>
        <time>2016-12-18T09:25:46.000Z</time>
      </trkpt>
      <trkpt lat="43.76617" lon="3.92057">
        <ele>255.39999389648</ele>
        <time>2016-12-18T09:25:52.000Z</time>
      </trkpt>
      <trkpt lat="43.76627" lon="3.9207">
        <ele>255.80000305176</ele>
        <time>2016-12-18T09:25:57.000Z</time>
      </trkpt>
      <trkpt lat="43.76636" lon="3.92079">
        <ele>256</ele>
        <time>2016-12-18T09:26:03.000Z</time>
      </trkpt>
      <trkpt lat="43.76638" lon="3.92082">
        <ele>256.20001220703</ele>
        <time>2016-12-18T09:26:05.000Z</time>
      </trkpt>
      <trkpt lat="43.76641" lon="3.92086">
        <ele>256.39999389648</ele>
        <time>2016-12-18T09:26:07.000Z</time>
      </trkpt>
      <trkpt lat="43.76647" lon="3.92105">
        <ele>257.79998779297</ele>
        <time>2016-12-18T09:26:13.000Z</time>
      </trkpt>
      <trkpt lat="43.76648" lon="3.92119">
        <ele>258.39999389648</ele>
        <time>2016-12-18T09:26:19.000Z</time>
      </trkpt>
      <trkpt lat="43.76649" lon="3.92121">
        <ele>258.39999389648</ele>
        <time>2016-12-18T09:26:20.000Z</time>
      </trkpt>
      <trkpt lat="43.76653" lon="3.92133">
        <ele>258.79998779297</ele>
        <time>2016-12-18T09:26:24.000Z</time>
      </trkpt>
      <trkpt lat="43.76658" lon="3.92144">
        <ele>259</ele>
        <time>2016-12-18T09:26:28.000Z</time>
      </trkpt>
      <trkpt lat="43.76668" lon="3.92162">
        <ele>259</ele>
        <time>2016-12-18T09:26:35.000Z</time>
      </trkpt>
      <trkpt lat="43.76677" lon="3.92175">
        <ele>259</ele>
        <time>2016-12-18T09:26:41.000Z</time>
      </trkpt>
      <trkpt lat="43.76683" lon="3.92191">
        <ele>259.60000610352</ele>
        <time>2016-12-18T09:26:48.000Z</time>
      </trkpt>
      <trkpt lat="43.76685" lon="3.92205">
        <ele>260.60000610352</ele>
        <time>2016-12-18T09:26:54.000Z</time>
      </trkpt>
      <trkpt lat="43.76681" lon="3.92211">
        <ele>261.60000610352</ele>
        <time>2016-12-18T09:26:58.000Z</time>
      </trkpt>
      <trkpt lat="43.76681" lon="3.92213">
        <ele>261.79998779297</ele>
        <time>2016-12-18T09:26:59.000Z</time>
      </trkpt>
      <trkpt lat="43.76681" lon="3.92221">
        <ele>262.39999389648</ele>
        <time>2016-12-18T09:27:02.000Z</time>
      </trkpt>
      <trkpt lat="43.76683" lon="3.92228">
        <ele>262.79998779297</ele>
        <time>2016-12-18T09:27:05.000Z</time>
      </trkpt>
      <trkpt lat="43.76689" lon="3.92245">
        <ele>263.60000610352</ele>
        <time>2016-12-18T09:27:11.000Z</time>
      </trkpt>
      <trkpt lat="43.7669" lon="3.92248">
        <ele>263.79998779297</ele>
        <time>2016-12-18T09:27:12.000Z</time>
      </trkpt>
      <trkpt lat="43.76691" lon="3.92256">
        <ele>264.39999389648</ele>
        <time>2016-12-18T09:27:15.000Z</time>
      </trkpt>
      <trkpt lat="43.7669" lon="3.92267">
        <ele>265.39999389648</ele>
        <time>2016-12-18T09:27:19.000Z</time>
      </trkpt>
      <trkpt lat="43.76686" lon="3.92277">
        <ele>266.39999389648</ele>
        <time>2016-12-18T09:27:23.000Z</time>
      </trkpt>
      <trkpt lat="43.76685" lon="3.92279">
        <ele>266.79998779297</ele>
        <time>2016-12-18T09:27:24.000Z</time>
      </trkpt>
      <trkpt lat="43.76678" lon="3.92283">
        <ele>268</ele>
        <time>2016-12-18T09:27:28.000Z</time>
      </trkpt>
      <trkpt lat="43.76677" lon="3.92283">
        <ele>268.39999389648</ele>
        <time>2016-12-18T09:27:29.000Z</time>
      </trkpt>
      <trkpt lat="43.76672" lon="3.92283">
        <ele>269.20001220703</ele>
        <time>2016-12-18T09:27:32.000Z</time>
      </trkpt>
      <trkpt lat="43.76668" lon="3.92282">
        <ele>269.60000610352</ele>
        <time>2016-12-18T09:27:34.000Z</time>
      </trkpt>
      <trkpt lat="43.76661" lon="3.9228">
        <ele>270.60000610352</ele>
        <time>2016-12-18T09:27:38.000Z</time>
      </trkpt>
      <trkpt lat="43.76657" lon="3.92278">
        <ele>271.20001220703</ele>
        <time>2016-12-18T09:27:40.000Z</time>
      </trkpt>
      <trkpt lat="43.76655" lon="3.92276">
        <ele>271.39999389648</ele>
        <time>2016-12-18T09:27:41.000Z</time>
      </trkpt>
      <trkpt lat="43.76646" lon="3.92273">
        <ele>272.39999389648</ele>
        <time>2016-12-18T09:27:46.000Z</time>
      </trkpt>
      <trkpt lat="43.76639" lon="3.9227">
        <ele>273.20001220703</ele>
        <time>2016-12-18T09:27:50.000Z</time>
      </trkpt>
      <trkpt lat="43.76638" lon="3.92269">
        <ele>273.20001220703</ele>
        <time>2016-12-18T09:27:51.000Z</time>
      </trkpt>
      <trkpt lat="43.76627" lon="3.92261">
        <ele>273.79998779297</ele>
        <time>2016-12-18T09:27:57.000Z</time>
      </trkpt>
      <trkpt lat="43.76618" lon="3.92254">
        <ele>274.39999389648</ele>
        <time>2016-12-18T09:28:03.000Z</time>
      </trkpt>
      <trkpt lat="43.7661" lon="3.9225">
        <ele>275.39999389648</ele>
        <time>2016-12-18T09:28:08.000Z</time>
      </trkpt>
      <trkpt lat="43.76608" lon="3.9225">
        <ele>275.60000610352</ele>
        <time>2016-12-18T09:28:09.000Z</time>
      </trkpt>
      <trkpt lat="43.76604" lon="3.92248">
        <ele>276</ele>
        <time>2016-12-18T09:28:12.000Z</time>
      </trkpt>
      <trkpt lat="43.76596" lon="3.92248">
        <ele>276.79998779297</ele>
        <time>2016-12-18T09:28:18.000Z</time>
      </trkpt>
      <trkpt lat="43.76586" lon="3.92246">
        <ele>278</ele>
        <time>2016-12-18T09:28:24.000Z</time>
      </trkpt>
      <trkpt lat="43.76576" lon="3.92238">
        <ele>278.20001220703</ele>
        <time>2016-12-18T09:28:30.000Z</time>
      </trkpt>
      <trkpt lat="43.76568" lon="3.92233">
        <ele>278.60000610352</ele>
        <time>2016-12-18T09:28:35.000Z</time>
      </trkpt>
      <trkpt lat="43.76566" lon="3.92233">
        <ele>278.79998779297</ele>
        <time>2016-12-18T09:28:36.000Z</time>
      </trkpt>
      <trkpt lat="43.76557" lon="3.92229">
        <ele>279.39999389648</ele>
        <time>2016-12-18T09:28:42.000Z</time>
      </trkpt>
      <trkpt lat="43.76547" lon="3.92224">
        <ele>280.20001220703</ele>
        <time>2016-12-18T09:28:48.000Z</time>
      </trkpt>
      <trkpt lat="43.76541" lon="3.92223">
        <ele>280.79998779297</ele>
        <time>2016-12-18T09:28:51.000Z</time>
      </trkpt>
      <trkpt lat="43.76536" lon="3.92221">
        <ele>281.39999389648</ele>
        <time>2016-12-18T09:28:54.000Z</time>
      </trkpt>
      <trkpt lat="43.76525" lon="3.92218">
        <ele>282.79998779297</ele>
        <time>2016-12-18T09:29:00.000Z</time>
      </trkpt>
      <trkpt lat="43.76515" lon="3.92223">
        <ele>285</ele>
        <time>2016-12-18T09:29:06.000Z</time>
      </trkpt>
      <trkpt lat="43.76508" lon="3.9223">
        <ele>287.60000610352</ele>
        <time>2016-12-18T09:29:11.000Z</time>
      </trkpt>
      <trkpt lat="43.76501" lon="3.92234">
        <ele>289.39999389648</ele>
        <time>2016-12-18T09:29:16.000Z</time>
      </trkpt>
      <trkpt lat="43.76498" lon="3.92236">
        <ele>290.20001220703</ele>
        <time>2016-12-18T09:29:18.000Z</time>
      </trkpt>
      <trkpt lat="43.76494" lon="3.92237">
        <ele>291.20001220703</ele>
        <time>2016-12-18T09:29:21.000Z</time>
      </trkpt>
      <trkpt lat="43.76482" lon="3.92234">
        <ele>292.79998779297</ele>
        <time>2016-12-18T09:29:27.000Z</time>
      </trkpt>
      <trkpt lat="43.76477" lon="3.92236">
        <ele>293.79998779297</ele>
        <time>2016-12-18T09:29:31.000Z</time>
      </trkpt>
      <trkpt lat="43.76475" lon="3.92238">
        <ele>294.20001220703</ele>
        <time>2016-12-18T09:29:33.000Z</time>
      </trkpt>
      <trkpt lat="43.76475" lon="3.9224">
        <ele>294.39999389648</ele>
        <time>2016-12-18T09:29:34.000Z</time>
      </trkpt>
      <trkpt lat="43.76474" lon="3.92246">
        <ele>295</ele>
        <time>2016-12-18T09:29:37.000Z</time>
      </trkpt>
      <trkpt lat="43.76472" lon="3.92252">
        <ele>295.79998779297</ele>
        <time>2016-12-18T09:29:41.000Z</time>
      </trkpt>
      <trkpt lat="43.7647" lon="3.92255">
        <ele>296.39999389648</ele>
        <time>2016-12-18T09:29:43.000Z</time>
      </trkpt>
      <trkpt lat="43.76469" lon="3.9226">
        <ele>297</ele>
        <time>2016-12-18T09:29:46.000Z</time>
      </trkpt>
      <trkpt lat="43.76468" lon="3.92264">
        <ele>297.39999389648</ele>
        <time>2016-12-18T09:29:49.000Z</time>
      </trkpt>
      <trkpt lat="43.76467" lon="3.92273">
        <ele>298.39999389648</ele>
        <time>2016-12-18T09:29:54.000Z</time>
      </trkpt>
      <trkpt lat="43.76465" lon="3.92275">
        <ele>299</ele>
        <time>2016-12-18T09:29:57.000Z</time>
      </trkpt>
      <trkpt lat="43.76464" lon="3.92277">
        <ele>299.39999389648</ele>
        <time>2016-12-18T09:29:59.000Z</time>
      </trkpt>
      <trkpt lat="43.7646" lon="3.92285">
        <ele>301.39999389648</ele>
        <time>2016-12-18T09:30:05.000Z</time>
      </trkpt>
      <trkpt lat="43.76459" lon="3.92293">
        <ele>302.79998779297</ele>
        <time>2016-12-18T09:30:09.000Z</time>
      </trkpt>
      <trkpt lat="43.76458" lon="3.92297">
        <ele>303.39999389648</ele>
        <time>2016-12-18T09:30:11.000Z</time>
      </trkpt>
      <trkpt lat="43.76454" lon="3.92306">
        <ele>304.39999389648</ele>
        <time>2016-12-18T09:30:17.000Z</time>
      </trkpt>
      <trkpt lat="43.76455" lon="3.92308">
        <ele>304.39999389648</ele>
        <time>2016-12-18T09:30:18.000Z</time>
      </trkpt>
      <trkpt lat="43.76457" lon="3.92315">
        <ele>305</ele>
        <time>2016-12-18T09:30:21.000Z</time>
      </trkpt>
      <trkpt lat="43.76458" lon="3.92325">
        <ele>305.79998779297</ele>
        <time>2016-12-18T09:30:26.000Z</time>
      </trkpt>
      <trkpt lat="43.76458" lon="3.92335">
        <ele>306.60000610352</ele>
        <time>2016-12-18T09:30:31.000Z</time>
      </trkpt>
      <trkpt lat="43.76459" lon="3.92344">
        <ele>307.39999389648</ele>
        <time>2016-12-18T09:30:36.000Z</time>
      </trkpt>
      <trkpt lat="43.7646" lon="3.92348">
        <ele>307.79998779297</ele>
        <time>2016-12-18T09:30:38.000Z</time>
      </trkpt>
      <trkpt lat="43.76459" lon="3.92356">
        <ele>308.39999389648</ele>
        <time>2016-12-18T09:30:42.000Z</time>
      </trkpt>
      <trkpt lat="43.76459" lon="3.92358">
        <ele>308.60000610352</ele>
        <time>2016-12-18T09:30:43.000Z</time>
      </trkpt>
      <trkpt lat="43.76459" lon="3.92363">
        <ele>309.20001220703</ele>
        <time>2016-12-18T09:30:45.000Z</time>
      </trkpt>
      <trkpt lat="43.76457" lon="3.92367">
        <ele>309.60000610352</ele>
        <time>2016-12-18T09:30:47.000Z</time>
      </trkpt>
      <trkpt lat="43.76457" lon="3.92375">
        <ele>310.39999389648</ele>
        <time>2016-12-18T09:30:52.000Z</time>
      </trkpt>
      <trkpt lat="43.76459" lon="3.92379">
        <ele>310.79998779297</ele>
        <time>2016-12-18T09:30:54.000Z</time>
      </trkpt>
      <trkpt lat="43.7646" lon="3.9238">
        <ele>310.79998779297</ele>
        <time>2016-12-18T09:30:55.000Z</time>
      </trkpt>
      <trkpt lat="43.76463" lon="3.92384">
        <ele>311</ele>
        <time>2016-12-18T09:30:57.000Z</time>
      </trkpt>
      <trkpt lat="43.76464" lon="3.92385">
        <ele>311.20001220703</ele>
        <time>2016-12-18T09:30:58.000Z</time>
      </trkpt>
      <trkpt lat="43.76472" lon="3.92386">
        <ele>311.39999389648</ele>
        <time>2016-12-18T09:31:02.000Z</time>
      </trkpt>
      <trkpt lat="43.76477" lon="3.92391">
        <ele>311.60000610352</ele>
        <time>2016-12-18T09:31:06.000Z</time>
      </trkpt>
      <trkpt lat="43.76486" lon="3.92399">
        <ele>312.39999389648</ele>
        <time>2016-12-18T09:31:12.000Z</time>
      </trkpt>
      <trkpt lat="43.76493" lon="3.92409">
        <ele>313.20001220703</ele>
        <time>2016-12-18T09:31:17.000Z</time>
      </trkpt>
      <trkpt lat="43.76494" lon="3.92413">
        <ele>313.60000610352</ele>
        <time>2016-12-18T09:31:19.000Z</time>
      </trkpt>
      <trkpt lat="43.76493" lon="3.92418">
        <ele>313.39999389648</ele>
        <time>2016-12-18T09:31:21.000Z</time>
      </trkpt>
      <trkpt lat="43.76491" lon="3.92436">
        <ele>312.79998779297</ele>
        <time>2016-12-18T09:31:28.000Z</time>
      </trkpt>
      <trkpt lat="43.76496" lon="3.92449">
        <ele>313.20001220703</ele>
        <time>2016-12-18T09:31:33.000Z</time>
      </trkpt>
      <trkpt lat="43.76502" lon="3.92466">
        <ele>314</ele>
        <time>2016-12-18T09:31:39.000Z</time>
      </trkpt>
      <trkpt lat="43.76509" lon="3.92482">
        <ele>314.60000610352</ele>
        <time>2016-12-18T09:31:44.000Z</time>
      </trkpt>
      <trkpt lat="43.76509" lon="3.92501">
        <ele>314.60000610352</ele>
        <time>2016-12-18T09:31:50.000Z</time>
      </trkpt>
      <trkpt lat="43.76505" lon="3.9251">
        <ele>314</ele>
        <time>2016-12-18T09:31:54.000Z</time>
      </trkpt>
      <trkpt lat="43.76504" lon="3.9251">
        <ele>313.79998779297</ele>
        <time>2016-12-18T09:31:55.000Z</time>
      </trkpt>
      <trkpt lat="43.76501" lon="3.92509">
        <ele>313.20001220703</ele>
        <time>2016-12-18T09:31:58.000Z</time>
      </trkpt>
      <trkpt lat="43.76497" lon="3.92508">
        <ele>312.39999389648</ele>
        <time>2016-12-18T09:32:02.000Z</time>
      </trkpt>
      <trkpt lat="43.76494" lon="3.92509">
        <ele>311.60000610352</ele>
        <time>2016-12-18T09:32:05.000Z</time>
      </trkpt>
      <trkpt lat="43.76493" lon="3.92509">
        <ele>311.39999389648</ele>
        <time>2016-12-18T09:32:06.000Z</time>
      </trkpt>
      <trkpt lat="43.7649" lon="3.9251">
        <ele>310.60000610352</ele>
        <time>2016-12-18T09:32:09.000Z</time>
      </trkpt>
      <trkpt lat="43.76487" lon="3.92509">
        <ele>310</ele>
        <time>2016-12-18T09:32:12.000Z</time>
      </trkpt>
      <trkpt lat="43.76485" lon="3.9251">
        <ele>309.60000610352</ele>
        <time>2016-12-18T09:32:16.000Z</time>
      </trkpt>
      <trkpt lat="43.76487" lon="3.92513">
        <ele>309.39999389648</ele>
        <time>2016-12-18T09:32:33.000Z</time>
      </trkpt>
      <trkpt lat="43.76488" lon="3.92514">
        <ele>309.60000610352</ele>
        <time>2016-12-18T09:32:55.000Z</time>
      </trkpt>
      <trkpt lat="43.76491" lon="3.92512">
        <ele>310.60000610352</ele>
        <time>2016-12-18T09:33:02.000Z</time>
      </trkpt>
      <trkpt lat="43.7649" lon="3.92513">
        <ele>310.20001220703</ele>
        <time>2016-12-18T09:33:07.000Z</time>
      </trkpt>
      <trkpt lat="43.76489" lon="3.92514">
        <ele>309.79998779297</ele>
        <time>2016-12-18T09:33:13.000Z</time>
      </trkpt>
      <trkpt lat="43.7649" lon="3.92513">
        <ele>310</ele>
        <time>2016-12-18T09:33:18.000Z</time>
      </trkpt>
      <trkpt lat="43.76492" lon="3.92515">
        <ele>310.39999389648</ele>
        <time>2016-12-18T09:33:21.000Z</time>
      </trkpt>
      <trkpt lat="43.76492" lon="3.92519">
        <ele>309.79998779297</ele>
        <time>2016-12-18T09:33:24.000Z</time>
      </trkpt>
      <trkpt lat="43.76489" lon="3.92522">
        <ele>308.79998779297</ele>
        <time>2016-12-18T09:33:29.000Z</time>
      </trkpt>
      <trkpt lat="43.76489" lon="3.92522">
        <ele>308.79998779297</ele>
        <time>2016-12-18T09:33:30.000Z</time>
      </trkpt>
      <trkpt lat="43.76491" lon="3.92527">
        <ele>308.60000610352</ele>
        <time>2016-12-18T09:33:35.000Z</time>
      </trkpt>
      <trkpt lat="43.7649" lon="3.92529">
        <ele>308</ele>
        <time>2016-12-18T09:33:41.000Z</time>
      </trkpt>
      <trkpt lat="43.7649" lon="3.9253">
        <ele>307.79998779297</ele>
        <time>2016-12-18T09:33:46.000Z</time>
      </trkpt>
      <trkpt lat="43.7649" lon="3.92536">
        <ele>306.60000610352</ele>
        <time>2016-12-18T09:33:58.000Z</time>
      </trkpt>
      <trkpt lat="43.76491" lon="3.92538">
        <ele>306.60000610352</ele>
        <time>2016-12-18T09:34:04.000Z</time>
      </trkpt>
      <trkpt lat="43.76493" lon="3.92542">
        <ele>306.39999389648</ele>
        <time>2016-12-18T09:34:10.000Z</time>
      </trkpt>
      <trkpt lat="43.76496" lon="3.92544">
        <ele>306.60000610352</ele>
        <time>2016-12-18T09:34:14.000Z</time>
      </trkpt>
      <trkpt lat="43.76498" lon="3.92546">
        <ele>306.79998779297</ele>
        <time>2016-12-18T09:34:18.000Z</time>
      </trkpt>
      <trkpt lat="43.76495" lon="3.92549">
        <ele>305.60000610352</ele>
        <time>2016-12-18T09:34:23.000Z</time>
      </trkpt>
      <trkpt lat="43.76495" lon="3.92553">
        <ele>304.60000610352</ele>
        <time>2016-12-18T09:34:32.000Z</time>
      </trkpt>
      <trkpt lat="43.76492" lon="3.92559">
        <ele>303</ele>
        <time>2016-12-18T09:34:38.000Z</time>
      </trkpt>
      <trkpt lat="43.76492" lon="3.92562">
        <ele>302.39999389648</ele>
        <time>2016-12-18T09:34:43.000Z</time>
      </trkpt>
      <trkpt lat="43.76491" lon="3.92568">
        <ele>301.20001220703</ele>
        <time>2016-12-18T09:34:50.000Z</time>
      </trkpt>
      <trkpt lat="43.76492" lon="3.92571">
        <ele>300.79998779297</ele>
        <time>2016-12-18T09:34:52.000Z</time>
      </trkpt>
      <trkpt lat="43.76492" lon="3.92574">
        <ele>300.39999389648</ele>
        <time>2016-12-18T09:34:54.000Z</time>
      </trkpt>
      <trkpt lat="43.7649" lon="3.92577">
        <ele>299.39999389648</ele>
        <time>2016-12-18T09:34:58.000Z</time>
      </trkpt>
      <trkpt lat="43.76487" lon="3.92581">
        <ele>297.39999389648</ele>
        <time>2016-12-18T09:35:04.000Z</time>
      </trkpt>
      <trkpt lat="43.76485" lon="3.92585">
        <ele>295.79998779297</ele>
        <time>2016-12-18T09:35:08.000Z</time>
      </trkpt>
      <trkpt lat="43.76485" lon="3.92586">
        <ele>295.60000610352</ele>
        <time>2016-12-18T09:35:14.000Z</time>
      </trkpt>
      <trkpt lat="43.76486" lon="3.92588">
        <ele>295.20001220703</ele>
        <time>2016-12-18T09:35:18.000Z</time>
      </trkpt>
      <trkpt lat="43.76488" lon="3.9259">
        <ele>295.20001220703</ele>
        <time>2016-12-18T09:35:20.000Z</time>
      </trkpt>
      <trkpt lat="43.76489" lon="3.92592">
        <ele>295</ele>
        <time>2016-12-18T09:35:23.000Z</time>
      </trkpt>
      <trkpt lat="43.76489" lon="3.92594">
        <ele>294.79998779297</ele>
        <time>2016-12-18T09:35:24.000Z</time>
      </trkpt>
      <trkpt lat="43.76489" lon="3.92594">
        <ele>294.60000610352</ele>
        <time>2016-12-18T09:35:25.000Z</time>
      </trkpt>
      <trkpt lat="43.7649" lon="3.92598">
        <ele>293.79998779297</ele>
        <time>2016-12-18T09:35:30.000Z</time>
      </trkpt>
      <trkpt lat="43.76491" lon="3.92604">
        <ele>292.79998779297</ele>
        <time>2016-12-18T09:35:35.000Z</time>
      </trkpt>
      <trkpt lat="43.76491" lon="3.92606">
        <ele>292.39999389648</ele>
        <time>2016-12-18T09:35:36.000Z</time>
      </trkpt>
      <trkpt lat="43.7649" lon="3.92613">
        <ele>290.20001220703</ele>
        <time>2016-12-18T09:35:41.000Z</time>
      </trkpt>
      <trkpt lat="43.7649" lon="3.92616">
        <ele>289</ele>
        <time>2016-12-18T09:35:44.000Z</time>
      </trkpt>
      <trkpt lat="43.76489" lon="3.92618">
        <ele>288.20001220703</ele>
        <time>2016-12-18T09:35:45.000Z</time>
      </trkpt>
      <trkpt lat="43.76487" lon="3.92619">
        <ele>287.39999389648</ele>
        <time>2016-12-18T09:35:47.000Z</time>
      </trkpt>
      <trkpt lat="43.76486" lon="3.9262">
        <ele>286.60000610352</ele>
        <time>2016-12-18T09:35:50.000Z</time>
      </trkpt>
      <trkpt lat="43.76484" lon="3.92623">
        <ele>285.20001220703</ele>
        <time>2016-12-18T09:35:54.000Z</time>
      </trkpt>
      <trkpt lat="43.76483" lon="3.92629">
        <ele>283.39999389648</ele>
        <time>2016-12-18T09:36:00.000Z</time>
      </trkpt>
      <trkpt lat="43.76482" lon="3.92632">
        <ele>282.20001220703</ele>
        <time>2016-12-18T09:36:05.000Z</time>
      </trkpt>
      <trkpt lat="43.76481" lon="3.92633">
        <ele>281.60000610352</ele>
        <time>2016-12-18T09:36:06.000Z</time>
      </trkpt>
      <trkpt lat="43.76481" lon="3.92639">
        <ele>279.79998779297</ele>
        <time>2016-12-18T09:36:10.000Z</time>
      </trkpt>
      <trkpt lat="43.76477" lon="3.92645">
        <ele>277</ele>
        <time>2016-12-18T09:36:15.000Z</time>
      </trkpt>
      <trkpt lat="43.76475" lon="3.92645">
        <ele>276.39999389648</ele>
        <time>2016-12-18T09:36:17.000Z</time>
      </trkpt>
      <trkpt lat="43.76475" lon="3.92646">
        <ele>276.20001220703</ele>
        <time>2016-12-18T09:36:20.000Z</time>
      </trkpt>
      <trkpt lat="43.76474" lon="3.92645">
        <ele>276</ele>
        <time>2016-12-18T09:36:26.000Z</time>
      </trkpt>
      <trkpt lat="43.76471" lon="3.92647">
        <ele>275</ele>
        <time>2016-12-18T09:36:32.000Z</time>
      </trkpt>
      <trkpt lat="43.76472" lon="3.92649">
        <ele>274.39999389648</ele>
        <time>2016-12-18T09:36:37.000Z</time>
      </trkpt>
      <trkpt lat="43.76471" lon="3.92654">
        <ele>273</ele>
        <time>2016-12-18T09:36:41.000Z</time>
      </trkpt>
      <trkpt lat="43.76469" lon="3.92655">
        <ele>272.39999389648</ele>
        <time>2016-12-18T09:36:43.000Z</time>
      </trkpt>
      <trkpt lat="43.76464" lon="3.92654">
        <ele>271.20001220703</ele>
        <time>2016-12-18T09:36:47.000Z</time>
      </trkpt>
      <trkpt lat="43.76463" lon="3.92654">
        <ele>271</ele>
        <time>2016-12-18T09:36:48.000Z</time>
      </trkpt>
      <trkpt lat="43.76462" lon="3.92655">
        <ele>270.60000610352</ele>
        <time>2016-12-18T09:36:49.000Z</time>
      </trkpt>
      <trkpt lat="43.76458" lon="3.92658">
        <ele>269</ele>
        <time>2016-12-18T09:36:53.000Z</time>
      </trkpt>
      <trkpt lat="43.76458" lon="3.92659">
        <ele>268.60000610352</ele>
        <time>2016-12-18T09:36:55.000Z</time>
      </trkpt>
      <trkpt lat="43.76456" lon="3.9266">
        <ele>268</ele>
        <time>2016-12-18T09:36:59.000Z</time>
      </trkpt>
      <trkpt lat="43.76454" lon="3.92662">
        <ele>267</ele>
        <time>2016-12-18T09:37:01.000Z</time>
      </trkpt>
      <trkpt lat="43.76452" lon="3.92662">
        <ele>266.39999389648</ele>
        <time>2016-12-18T09:37:03.000Z</time>
      </trkpt>
      <trkpt lat="43.7645" lon="3.92662">
        <ele>265.79998779297</ele>
        <time>2016-12-18T09:37:05.000Z</time>
      </trkpt>
      <trkpt lat="43.76449" lon="3.92663">
        <ele>265.39999389648</ele>
        <time>2016-12-18T09:37:06.000Z</time>
      </trkpt>
      <trkpt lat="43.76448" lon="3.92664">
        <ele>264.79998779297</ele>
        <time>2016-12-18T09:37:07.000Z</time>
      </trkpt>
      <trkpt lat="43.76443" lon="3.92666">
        <ele>263.20001220703</ele>
        <time>2016-12-18T09:37:11.000Z</time>
      </trkpt>
      <trkpt lat="43.7643" lon="3.92667">
        <ele>259.39999389648</ele>
        <time>2016-12-18T09:37:17.000Z</time>
      </trkpt>
      <trkpt lat="43.76422" lon="3.92666">
        <ele>257.39999389648</ele>
        <time>2016-12-18T09:37:22.000Z</time>
      </trkpt>
      <trkpt lat="43.76417" lon="3.92663">
        <ele>256.60000610352</ele>
        <time>2016-12-18T09:37:29.000Z</time>
      </trkpt>
      <trkpt lat="43.76412" lon="3.92668">
        <ele>254</ele>
        <time>2016-12-18T09:37:34.000Z</time>
      </trkpt>
      <trkpt lat="43.76411" lon="3.9267">
        <ele>253.39999389648</ele>
        <time>2016-12-18T09:37:37.000Z</time>
      </trkpt>
      <trkpt lat="43.76411" lon="3.92672">
        <ele>253</ele>
        <time>2016-12-18T09:37:38.000Z</time>
      </trkpt>
      <trkpt lat="43.76409" lon="3.92675">
        <ele>252</ele>
        <time>2016-12-18T09:37:41.000Z</time>
      </trkpt>
      <trkpt lat="43.76408" lon="3.92676">
        <ele>251.60000610352</ele>
        <time>2016-12-18T09:37:42.000Z</time>
      </trkpt>
      <trkpt lat="43.76406" lon="3.92678">
        <ele>250.39999389648</ele>
        <time>2016-12-18T09:37:48.000Z</time>
      </trkpt>
      <trkpt lat="43.76404" lon="3.92683">
        <ele>249</ele>
        <time>2016-12-18T09:37:54.000Z</time>
      </trkpt>
      <trkpt lat="43.76401" lon="3.92688">
        <ele>247.39999389648</ele>
        <time>2016-12-18T09:37:58.000Z</time>
      </trkpt>
      <trkpt lat="43.764" lon="3.92687">
        <ele>247.19999694824</ele>
        <time>2016-12-18T09:38:04.000Z</time>
      </trkpt>
      <trkpt lat="43.76402" lon="3.9269">
        <ele>247.19999694824</ele>
        <time>2016-12-18T09:38:08.000Z</time>
      </trkpt>
      <trkpt lat="43.764" lon="3.92694">
        <ele>245.39999389648</ele>
        <time>2016-12-18T09:38:13.000Z</time>
      </trkpt>
      <trkpt lat="43.76399" lon="3.92696">
        <ele>244.19999694824</ele>
        <time>2016-12-18T09:38:18.000Z</time>
      </trkpt>
      <trkpt lat="43.76398" lon="3.927">
        <ele>242.80000305176</ele>
        <time>2016-12-18T09:38:25.000Z</time>
      </trkpt>
      <trkpt lat="43.76397" lon="3.92703">
        <ele>241.80000305176</ele>
        <time>2016-12-18T09:38:29.000Z</time>
      </trkpt>
      <trkpt lat="43.76397" lon="3.92709">
        <ele>239.60000610352</ele>
        <time>2016-12-18T09:38:34.000Z</time>
      </trkpt>
      <trkpt lat="43.76395" lon="3.92712">
        <ele>238.19999694824</ele>
        <time>2016-12-18T09:38:39.000Z</time>
      </trkpt>
      <trkpt lat="43.76395" lon="3.92714">
        <ele>237.80000305176</ele>
        <time>2016-12-18T09:38:41.000Z</time>
      </trkpt>
      <trkpt lat="43.76395" lon="3.92717">
        <ele>236.60000610352</ele>
        <time>2016-12-18T09:38:43.000Z</time>
      </trkpt>
      <trkpt lat="43.76394" lon="3.92721">
        <ele>235</ele>
        <time>2016-12-18T09:38:48.000Z</time>
      </trkpt>
      <trkpt lat="43.76392" lon="3.92728">
        <ele>232.19999694824</ele>
        <time>2016-12-18T09:38:54.000Z</time>
      </trkpt>
      <trkpt lat="43.76392" lon="3.92731">
        <ele>231.60000610352</ele>
        <time>2016-12-18T09:38:59.000Z</time>
      </trkpt>
      <trkpt lat="43.76392" lon="3.92732">
        <ele>231.19999694824</ele>
        <time>2016-12-18T09:39:00.000Z</time>
      </trkpt>
      <trkpt lat="43.76393" lon="3.92735">
        <ele>230.60000610352</ele>
        <time>2016-12-18T09:39:03.000Z</time>
      </trkpt>
      <trkpt lat="43.7639" lon="3.92739">
        <ele>229</ele>
        <time>2016-12-18T09:39:08.000Z</time>
      </trkpt>
      <trkpt lat="43.76389" lon="3.9274">
        <ele>228.60000610352</ele>
        <time>2016-12-18T09:39:10.000Z</time>
      </trkpt>
      <trkpt lat="43.76386" lon="3.92739">
        <ele>228.19999694824</ele>
        <time>2016-12-18T09:39:12.000Z</time>
      </trkpt>
      <trkpt lat="43.76383" lon="3.92739">
        <ele>227.80000305176</ele>
        <time>2016-12-18T09:39:15.000Z</time>
      </trkpt>
      <trkpt lat="43.76382" lon="3.92738">
        <ele>227.60000610352</ele>
        <time>2016-12-18T09:39:16.000Z</time>
      </trkpt>
      <trkpt lat="43.76381" lon="3.92738">
        <ele>227.60000610352</ele>
        <time>2016-12-18T09:39:17.000Z</time>
      </trkpt>
      <trkpt lat="43.76373" lon="3.92735">
        <ele>226.80000305176</ele>
        <time>2016-12-18T09:39:23.000Z</time>
      </trkpt>
      <trkpt lat="43.76369" lon="3.92738">
        <ele>225.39999389648</ele>
        <time>2016-12-18T09:39:29.000Z</time>
      </trkpt>
      <trkpt lat="43.76365" lon="3.9274">
        <ele>224</ele>
        <time>2016-12-18T09:39:32.000Z</time>
      </trkpt>
      <trkpt lat="43.76362" lon="3.92743">
        <ele>222.60000610352</ele>
        <time>2016-12-18T09:39:34.000Z</time>
      </trkpt>
      <trkpt lat="43.7636" lon="3.92746">
        <ele>221.39999389648</ele>
        <time>2016-12-18T09:39:37.000Z</time>
      </trkpt>
      <trkpt lat="43.76359" lon="3.92747">
        <ele>220.80000305176</ele>
        <time>2016-12-18T09:39:38.000Z</time>
      </trkpt>
      <trkpt lat="43.76358" lon="3.92751">
        <ele>219.60000610352</ele>
        <time>2016-12-18T09:39:42.000Z</time>
      </trkpt>
      <trkpt lat="43.76359" lon="3.92762">
        <ele>217</ele>
        <time>2016-12-18T09:39:48.000Z</time>
      </trkpt>
      <trkpt lat="43.76358" lon="3.92765">
        <ele>216</ele>
        <time>2016-12-18T09:39:51.000Z</time>
      </trkpt>
      <trkpt lat="43.76358" lon="3.92766">
        <ele>215.60000610352</ele>
        <time>2016-12-18T09:39:52.000Z</time>
      </trkpt>
      <trkpt lat="43.76358" lon="3.92769">
        <ele>215</ele>
        <time>2016-12-18T09:39:54.000Z</time>
      </trkpt>
      <trkpt lat="43.76357" lon="3.9277">
        <ele>214.39999389648</ele>
        <time>2016-12-18T09:39:56.000Z</time>
      </trkpt>
      <trkpt lat="43.7635" lon="3.92774">
        <ele>212.60000610352</ele>
        <time>2016-12-18T09:40:02.000Z</time>
      </trkpt>
      <trkpt lat="43.76341" lon="3.92774">
        <ele>212</ele>
        <time>2016-12-18T09:40:06.000Z</time>
      </trkpt>
      <trkpt lat="43.76334" lon="3.92772">
        <ele>211.80000305176</ele>
        <time>2016-12-18T09:40:09.000Z</time>
      </trkpt>
      <trkpt lat="43.7633" lon="3.9277">
        <ele>211.80000305176</ele>
        <time>2016-12-18T09:40:11.000Z</time>
      </trkpt>
      <trkpt lat="43.76318" lon="3.92768">
        <ele>211.19999694824</ele>
        <time>2016-12-18T09:40:16.000Z</time>
      </trkpt>
      <trkpt lat="43.76308" lon="3.92775">
        <ele>209.39999389648</ele>
        <time>2016-12-18T09:40:20.000Z</time>
      </trkpt>
      <trkpt lat="43.76295" lon="3.92794">
        <ele>204.60000610352</ele>
        <time>2016-12-18T09:40:27.000Z</time>
      </trkpt>
      <trkpt lat="43.76293" lon="3.92805">
        <ele>203.19999694824</ele>
        <time>2016-12-18T09:40:31.000Z</time>
      </trkpt>
      <trkpt lat="43.76292" lon="3.928">
        <ele>203.60000610352</ele>
        <time>2016-12-18T09:40:34.000Z</time>
      </trkpt>
      <trkpt lat="43.76284" lon="3.92802">
        <ele>203.80000305176</ele>
        <time>2016-12-18T09:40:38.000Z</time>
      </trkpt>
      <trkpt lat="43.76275" lon="3.92811">
        <ele>203.19999694824</ele>
        <time>2016-12-18T09:40:43.000Z</time>
      </trkpt>
      <trkpt lat="43.76265" lon="3.92817">
        <ele>202.39999389648</ele>
        <time>2016-12-18T09:40:48.000Z</time>
      </trkpt>
      <trkpt lat="43.76256" lon="3.9282">
        <ele>201.60000610352</ele>
        <time>2016-12-18T09:40:52.000Z</time>
      </trkpt>
      <trkpt lat="43.76243" lon="3.92818">
        <ele>201.19999694824</ele>
        <time>2016-12-18T09:40:57.000Z</time>
      </trkpt>
      <trkpt lat="43.76226" lon="3.92813">
        <ele>200.60000610352</ele>
        <time>2016-12-18T09:41:03.000Z</time>
      </trkpt>
      <trkpt lat="43.7621" lon="3.92803">
        <ele>200.60000610352</ele>
        <time>2016-12-18T09:41:09.000Z</time>
      </trkpt>
      <trkpt lat="43.7619" lon="3.92795">
        <ele>200.19999694824</ele>
        <time>2016-12-18T09:41:16.000Z</time>
      </trkpt>
      <trkpt lat="43.76176" lon="3.92792">
        <ele>200.39999389648</ele>
        <time>2016-12-18T09:41:21.000Z</time>
      </trkpt>
      <trkpt lat="43.76158" lon="3.92789">
        <ele>201</ele>
        <time>2016-12-18T09:41:27.000Z</time>
      </trkpt>
      <trkpt lat="43.76145" lon="3.92787">
        <ele>201.19999694824</ele>
        <time>2016-12-18T09:41:32.000Z</time>
      </trkpt>
      <trkpt lat="43.76129" lon="3.92789">
        <ele>201.19999694824</ele>
        <time>2016-12-18T09:41:38.000Z</time>
      </trkpt>
      <trkpt lat="43.76113" lon="3.9279">
        <ele>201.60000610352</ele>
        <time>2016-12-18T09:41:44.000Z</time>
      </trkpt>
      <trkpt lat="43.76095" lon="3.92786">
        <ele>201.39999389648</ele>
        <time>2016-12-18T09:41:51.000Z</time>
      </trkpt>
      <trkpt lat="43.76082" lon="3.92784">
        <ele>200.60000610352</ele>
        <time>2016-12-18T09:41:56.000Z</time>
      </trkpt>
      <trkpt lat="43.76066" lon="3.92788">
        <ele>199.19999694824</ele>
        <time>2016-12-18T09:42:02.000Z</time>
      </trkpt>
      <trkpt lat="43.7605" lon="3.92802">
        <ele>197</ele>
        <time>2016-12-18T09:42:09.000Z</time>
      </trkpt>
      <trkpt lat="43.76036" lon="3.92805">
        <ele>197.39999389648</ele>
        <time>2016-12-18T09:42:14.000Z</time>
      </trkpt>
      <trkpt lat="43.76019" lon="3.92803">
        <ele>197.60000610352</ele>
        <time>2016-12-18T09:42:20.000Z</time>
      </trkpt>
      <trkpt lat="43.76" lon="3.928">
        <ele>196.60000610352</ele>
        <time>2016-12-18T09:42:26.000Z</time>
      </trkpt>
      <trkpt lat="43.75982" lon="3.928">
        <ele>195.80000305176</ele>
        <time>2016-12-18T09:42:32.000Z</time>
      </trkpt>
      <trkpt lat="43.75962" lon="3.92798">
        <ele>194.80000305176</ele>
        <time>2016-12-18T09:42:39.000Z</time>
      </trkpt>
      <trkpt lat="43.75942" lon="3.92795">
        <ele>193.80000305176</ele>
        <time>2016-12-18T09:42:46.000Z</time>
      </trkpt>
      <trkpt lat="43.75924" lon="3.92796">
        <ele>192.80000305176</ele>
        <time>2016-12-18T09:42:52.000Z</time>
      </trkpt>
      <trkpt lat="43.75909" lon="3.92795">
        <ele>191.80000305176</ele>
        <time>2016-12-18T09:42:57.000Z</time>
      </trkpt>
      <trkpt lat="43.75892" lon="3.92793">
        <ele>190.80000305176</ele>
        <time>2016-12-18T09:43:03.000Z</time>
      </trkpt>
      <trkpt lat="43.75872" lon="3.92792">
        <ele>189.39999389648</ele>
        <time>2016-12-18T09:43:09.000Z</time>
      </trkpt>
      <trkpt lat="43.75869" lon="3.92792">
        <ele>189</ele>
        <time>2016-12-18T09:43:10.000Z</time>
      </trkpt>
      <trkpt lat="43.7585" lon="3.92791">
        <ele>187.39999389648</ele>
        <time>2016-12-18T09:43:16.000Z</time>
      </trkpt>
      <trkpt lat="43.75832" lon="3.92789">
        <ele>187.19999694824</ele>
        <time>2016-12-18T09:43:22.000Z</time>
      </trkpt>
      <trkpt lat="43.75829" lon="3.92788">
        <ele>187.19999694824</ele>
        <time>2016-12-18T09:43:23.000Z</time>
      </trkpt>
      <trkpt lat="43.7582" lon="3.92786">
        <ele>187.19999694824</ele>
        <time>2016-12-18T09:43:26.000Z</time>
      </trkpt>
      <trkpt lat="43.75803" lon="3.92782">
        <ele>187</ele>
        <time>2016-12-18T09:43:32.000Z</time>
      </trkpt>
      <trkpt lat="43.75789" lon="3.92782">
        <ele>187</ele>
        <time>2016-12-18T09:43:37.000Z</time>
      </trkpt>
      <trkpt lat="43.75775" lon="3.92786">
        <ele>186.60000610352</ele>
        <time>2016-12-18T09:43:42.000Z</time>
      </trkpt>
      <trkpt lat="43.75762" lon="3.92789">
        <ele>186.80000305176</ele>
        <time>2016-12-18T09:43:47.000Z</time>
      </trkpt>
      <trkpt lat="43.75748" lon="3.92787">
        <ele>187.39999389648</ele>
        <time>2016-12-18T09:43:52.000Z</time>
      </trkpt>
      <trkpt lat="43.75728" lon="3.92785">
        <ele>188.19999694824</ele>
        <time>2016-12-18T09:43:59.000Z</time>
      </trkpt>
      <trkpt lat="43.75709" lon="3.92782">
        <ele>189</ele>
        <time>2016-12-18T09:44:06.000Z</time>
      </trkpt>
      <trkpt lat="43.75692" lon="3.92782">
        <ele>189.39999389648</ele>
        <time>2016-12-18T09:44:12.000Z</time>
      </trkpt>
      <trkpt lat="43.75672" lon="3.92781">
        <ele>189.80000305176</ele>
        <time>2016-12-18T09:44:19.000Z</time>
      </trkpt>
      <trkpt lat="43.75659" lon="3.9278">
        <ele>190.19999694824</ele>
        <time>2016-12-18T09:44:24.000Z</time>
      </trkpt>
      <trkpt lat="43.75645" lon="3.9278">
        <ele>190.60000610352</ele>
        <time>2016-12-18T09:44:29.000Z</time>
      </trkpt>
      <trkpt lat="43.75629" lon="3.92778">
        <ele>191</ele>
        <time>2016-12-18T09:44:35.000Z</time>
      </trkpt>
      <trkpt lat="43.75609" lon="3.92777">
        <ele>191.60000610352</ele>
        <time>2016-12-18T09:44:42.000Z</time>
      </trkpt>
      <trkpt lat="43.7559" lon="3.92775">
        <ele>191.60000610352</ele>
        <time>2016-12-18T09:44:49.000Z</time>
      </trkpt>
      <trkpt lat="43.75587" lon="3.92775">
        <ele>191.60000610352</ele>
        <time>2016-12-18T09:44:50.000Z</time>
      </trkpt>
      <trkpt lat="43.7557" lon="3.92773">
        <ele>191.60000610352</ele>
        <time>2016-12-18T09:44:56.000Z</time>
      </trkpt>
      <trkpt lat="43.7555" lon="3.92772">
        <ele>191.19999694824</ele>
        <time>2016-12-18T09:45:03.000Z</time>
      </trkpt>
      <trkpt lat="43.75533" lon="3.92771">
        <ele>190.80000305176</ele>
        <time>2016-12-18T09:45:09.000Z</time>
      </trkpt>
      <trkpt lat="43.75513" lon="3.92768">
        <ele>190.19999694824</ele>
        <time>2016-12-18T09:45:16.000Z</time>
      </trkpt>
      <trkpt lat="43.7551" lon="3.92767">
        <ele>190</ele>
        <time>2016-12-18T09:45:17.000Z</time>
      </trkpt>
      <trkpt lat="43.75494" lon="3.92764">
        <ele>189</ele>
        <time>2016-12-18T09:45:23.000Z</time>
      </trkpt>
      <trkpt lat="43.75479" lon="3.92766">
        <ele>188.39999389648</ele>
        <time>2016-12-18T09:45:28.000Z</time>
      </trkpt>
      <trkpt lat="43.75464" lon="3.92766">
        <ele>187.80000305176</ele>
        <time>2016-12-18T09:45:33.000Z</time>
      </trkpt>
      <trkpt lat="43.75449" lon="3.92767">
        <ele>187</ele>
        <time>2016-12-18T09:45:38.000Z</time>
      </trkpt>
      <trkpt lat="43.75435" lon="3.92766">
        <ele>186.19999694824</ele>
        <time>2016-12-18T09:45:43.000Z</time>
      </trkpt>
      <trkpt lat="43.75417" lon="3.92766">
        <ele>185.60000610352</ele>
        <time>2016-12-18T09:45:49.000Z</time>
      </trkpt>
      <trkpt lat="43.75398" lon="3.92766">
        <ele>185.19999694824</ele>
        <time>2016-12-18T09:45:55.000Z</time>
      </trkpt>
      <trkpt lat="43.75395" lon="3.92766">
        <ele>185.19999694824</ele>
        <time>2016-12-18T09:45:56.000Z</time>
      </trkpt>
      <trkpt lat="43.75375" lon="3.92764">
        <ele>184.39999389648</ele>
        <time>2016-12-18T09:46:03.000Z</time>
      </trkpt>
      <trkpt lat="43.7536" lon="3.92764">
        <ele>184</ele>
        <time>2016-12-18T09:46:08.000Z</time>
      </trkpt>
      <trkpt lat="43.75343" lon="3.92764">
        <ele>184.39999389648</ele>
        <time>2016-12-18T09:46:14.000Z</time>
      </trkpt>
      <trkpt lat="43.75326" lon="3.92763">
        <ele>184.60000610352</ele>
        <time>2016-12-18T09:46:20.000Z</time>
      </trkpt>
      <trkpt lat="43.75311" lon="3.92763">
        <ele>185</ele>
        <time>2016-12-18T09:46:25.000Z</time>
      </trkpt>
      <trkpt lat="43.75294" lon="3.92764">
        <ele>185.39999389648</ele>
        <time>2016-12-18T09:46:31.000Z</time>
      </trkpt>
      <trkpt lat="43.75275" lon="3.92764">
        <ele>186</ele>
        <time>2016-12-18T09:46:38.000Z</time>
      </trkpt>
      <trkpt lat="43.7526" lon="3.92763">
        <ele>187</ele>
        <time>2016-12-18T09:46:44.000Z</time>
      </trkpt>
      <trkpt lat="43.75245" lon="3.92762">
        <ele>187.80000305176</ele>
        <time>2016-12-18T09:46:50.000Z</time>
      </trkpt>
      <trkpt lat="43.75228" lon="3.92761">
        <ele>188.80000305176</ele>
        <time>2016-12-18T09:46:57.000Z</time>
      </trkpt>
      <trkpt lat="43.75214" lon="3.92759">
        <ele>189.60000610352</ele>
        <time>2016-12-18T09:47:03.000Z</time>
      </trkpt>
      <trkpt lat="43.75196" lon="3.92756">
        <ele>190.39999389648</ele>
        <time>2016-12-18T09:47:10.000Z</time>
      </trkpt>
      <trkpt lat="43.7519" lon="3.92756">
        <ele>190.80000305176</ele>
        <time>2016-12-18T09:47:12.000Z</time>
      </trkpt>
      <trkpt lat="43.75174" lon="3.92754">
        <ele>191.19999694824</ele>
        <time>2016-12-18T09:47:18.000Z</time>
      </trkpt>
      <trkpt lat="43.75157" lon="3.92752">
        <ele>191</ele>
        <time>2016-12-18T09:47:24.000Z</time>
      </trkpt>
      <trkpt lat="43.75137" lon="3.9275">
        <ele>190.19999694824</ele>
        <time>2016-12-18T09:47:31.000Z</time>
      </trkpt>
      <trkpt lat="43.75123" lon="3.92752">
        <ele>189.39999389648</ele>
        <time>2016-12-18T09:47:36.000Z</time>
      </trkpt>
      <trkpt lat="43.75114" lon="3.92762">
        <ele>188.80000305176</ele>
        <time>2016-12-18T09:47:40.000Z</time>
      </trkpt>
      <trkpt lat="43.75104" lon="3.92783">
        <ele>187.60000610352</ele>
        <time>2016-12-18T09:47:46.000Z</time>
      </trkpt>
      <trkpt lat="43.75092" lon="3.92803">
        <ele>185</ele>
        <time>2016-12-18T09:47:52.000Z</time>
      </trkpt>
      <trkpt lat="43.75082" lon="3.9282">
        <ele>182.80000305176</ele>
        <time>2016-12-18T09:47:57.000Z</time>
      </trkpt>
      <trkpt lat="43.75067" lon="3.92838">
        <ele>181.19999694824</ele>
        <time>2016-12-18T09:48:03.000Z</time>
      </trkpt>
      <trkpt lat="43.75052" lon="3.92852">
        <ele>180.39999389648</ele>
        <time>2016-12-18T09:48:09.000Z</time>
      </trkpt>
      <trkpt lat="43.75043" lon="3.92862">
        <ele>179</ele>
        <time>2016-12-18T09:48:13.000Z</time>
      </trkpt>
      <trkpt lat="43.75026" lon="3.92874">
        <ele>177</ele>
        <time>2016-12-18T09:48:19.000Z</time>
      </trkpt>
      <trkpt lat="43.75013" lon="3.92885">
        <ele>176</ele>
        <time>2016-12-18T09:48:24.000Z</time>
      </trkpt>
      <trkpt lat="43.75" lon="3.92898">
        <ele>174.39999389648</ele>
        <time>2016-12-18T09:48:29.000Z</time>
      </trkpt>
      <trkpt lat="43.74987" lon="3.92911">
        <ele>172.80000305176</ele>
        <time>2016-12-18T09:48:34.000Z</time>
      </trkpt>
      <trkpt lat="43.74974" lon="3.92924">
        <ele>172.39999389648</ele>
        <time>2016-12-18T09:48:39.000Z</time>
      </trkpt>
      <trkpt lat="43.74972" lon="3.92927">
        <ele>172.19999694824</ele>
        <time>2016-12-18T09:48:40.000Z</time>
      </trkpt>
      <trkpt lat="43.74956" lon="3.92941">
        <ele>171.60000610352</ele>
        <time>2016-12-18T09:48:46.000Z</time>
      </trkpt>
      <trkpt lat="43.74943" lon="3.92952">
        <ele>169.60000610352</ele>
        <time>2016-12-18T09:48:51.000Z</time>
      </trkpt>
      <trkpt lat="43.74929" lon="3.92968">
        <ele>167.80000305176</ele>
        <time>2016-12-18T09:48:57.000Z</time>
      </trkpt>
      <trkpt lat="43.74917" lon="3.92981">
        <ele>165.39999389648</ele>
        <time>2016-12-18T09:49:02.000Z</time>
      </trkpt>
      <trkpt lat="43.74907" lon="3.92996">
        <ele>163.19999694824</ele>
        <time>2016-12-18T09:49:07.000Z</time>
      </trkpt>
      <trkpt lat="43.74893" lon="3.93013">
        <ele>163.39999389648</ele>
        <time>2016-12-18T09:49:13.000Z</time>
      </trkpt>
      <trkpt lat="43.7488" lon="3.9303">
        <ele>162.60000610352</ele>
        <time>2016-12-18T09:49:19.000Z</time>
      </trkpt>
      <trkpt lat="43.7487" lon="3.93043">
        <ele>161.19999694824</ele>
        <time>2016-12-18T09:49:24.000Z</time>
      </trkpt>
      <trkpt lat="43.74857" lon="3.93047">
        <ele>162.19999694824</ele>
        <time>2016-12-18T09:49:29.000Z</time>
      </trkpt>
      <trkpt lat="43.74854" lon="3.93045">
        <ele>162.39999389648</ele>
        <time>2016-12-18T09:49:34.000Z</time>
      </trkpt>
      <trkpt lat="43.74855" lon="3.93047">
        <ele>162.39999389648</ele>
        <time>2016-12-18T09:49:45.000Z</time>
      </trkpt>
      <trkpt lat="43.7486" lon="3.93052">
        <ele>161.80000305176</ele>
        <time>2016-12-18T09:49:54.000Z</time>
      </trkpt>
      <trkpt lat="43.74861" lon="3.93056">
        <ele>161.60000610352</ele>
        <time>2016-12-18T09:49:56.000Z</time>
      </trkpt>
      <trkpt lat="43.74861" lon="3.93059">
        <ele>161.60000610352</ele>
        <time>2016-12-18T09:49:58.000Z</time>
      </trkpt>
      <trkpt lat="43.74866" lon="3.93067">
        <ele>161</ele>
        <time>2016-12-18T09:50:02.000Z</time>
      </trkpt>
      <trkpt lat="43.74864" lon="3.93085">
        <ele>160.60000610352</ele>
        <time>2016-12-18T09:50:07.000Z</time>
      </trkpt>
      <trkpt lat="43.74855" lon="3.93094">
        <ele>161.19999694824</ele>
        <time>2016-12-18T09:50:11.000Z</time>
      </trkpt>
      <trkpt lat="43.74853" lon="3.93097">
        <ele>161</ele>
        <time>2016-12-18T09:50:12.000Z</time>
      </trkpt>
      <trkpt lat="43.74843" lon="3.93116">
        <ele>159.39999389648</ele>
        <time>2016-12-18T09:50:18.000Z</time>
      </trkpt>
      <trkpt lat="43.74837" lon="3.93128">
        <ele>158</ele>
        <time>2016-12-18T09:50:22.000Z</time>
      </trkpt>
      <trkpt lat="43.74825" lon="3.93148">
        <ele>156</ele>
        <time>2016-12-18T09:50:28.000Z</time>
      </trkpt>
      <trkpt lat="43.74816" lon="3.93163">
        <ele>155.39999389648</ele>
        <time>2016-12-18T09:50:33.000Z</time>
      </trkpt>
      <trkpt lat="43.74803" lon="3.93181">
        <ele>157</ele>
        <time>2016-12-18T09:50:39.000Z</time>
      </trkpt>
      <trkpt lat="43.74801" lon="3.93184">
        <ele>157.19999694824</ele>
        <time>2016-12-18T09:50:40.000Z</time>
      </trkpt>
      <trkpt lat="43.74788" lon="3.93202">
        <ele>156.39999389648</ele>
        <time>2016-12-18T09:50:46.000Z</time>
      </trkpt>
      <trkpt lat="43.74783" lon="3.93208">
        <ele>156.19999694824</ele>
        <time>2016-12-18T09:50:48.000Z</time>
      </trkpt>
      <trkpt lat="43.74771" lon="3.93221">
        <ele>156.39999389648</ele>
        <time>2016-12-18T09:50:53.000Z</time>
      </trkpt>
      <trkpt lat="43.74759" lon="3.93233">
        <ele>154.39999389648</ele>
        <time>2016-12-18T09:50:58.000Z</time>
      </trkpt>
      <trkpt lat="43.74746" lon="3.93243">
        <ele>152.39999389648</ele>
        <time>2016-12-18T09:51:03.000Z</time>
      </trkpt>
      <trkpt lat="43.74729" lon="3.93257">
        <ele>152.19999694824</ele>
        <time>2016-12-18T09:51:09.000Z</time>
      </trkpt>
      <trkpt lat="43.74714" lon="3.93269">
        <ele>152.39999389648</ele>
        <time>2016-12-18T09:51:15.000Z</time>
      </trkpt>
      <trkpt lat="43.74712" lon="3.93272">
        <ele>152.39999389648</ele>
        <time>2016-12-18T09:51:16.000Z</time>
      </trkpt>
      <trkpt lat="43.74697" lon="3.93287">
        <ele>151</ele>
        <time>2016-12-18T09:51:22.000Z</time>
      </trkpt>
      <trkpt lat="43.74682" lon="3.93296">
        <ele>150.60000610352</ele>
        <time>2016-12-18T09:51:27.000Z</time>
      </trkpt>
      <trkpt lat="43.74665" lon="3.93306">
        <ele>148.60000610352</ele>
        <time>2016-12-18T09:51:33.000Z</time>
      </trkpt>
      <trkpt lat="43.74647" lon="3.93314">
        <ele>146.60000610352</ele>
        <time>2016-12-18T09:51:39.000Z</time>
      </trkpt>
      <trkpt lat="43.74629" lon="3.93321">
        <ele>145.39999389648</ele>
        <time>2016-12-18T09:51:45.000Z</time>
      </trkpt>
      <trkpt lat="43.74613" lon="3.93324">
        <ele>144.39999389648</ele>
        <time>2016-12-18T09:51:50.000Z</time>
      </trkpt>
      <trkpt lat="43.74599" lon="3.9333">
        <ele>143.39999389648</ele>
        <time>2016-12-18T09:51:55.000Z</time>
      </trkpt>
      <trkpt lat="43.7458" lon="3.93337">
        <ele>142.39999389648</ele>
        <time>2016-12-18T09:52:01.000Z</time>
      </trkpt>
      <trkpt lat="43.74562" lon="3.93345">
        <ele>142</ele>
        <time>2016-12-18T09:52:07.000Z</time>
      </trkpt>
      <trkpt lat="43.74546" lon="3.93357">
        <ele>141.60000610352</ele>
        <time>2016-12-18T09:52:13.000Z</time>
      </trkpt>
      <trkpt lat="43.74529" lon="3.93368">
        <ele>140.60000610352</ele>
        <time>2016-12-18T09:52:19.000Z</time>
      </trkpt>
      <trkpt lat="43.74526" lon="3.9337">
        <ele>140.80000305176</ele>
        <time>2016-12-18T09:52:20.000Z</time>
      </trkpt>
      <trkpt lat="43.74508" lon="3.93375">
        <ele>140.60000610352</ele>
        <time>2016-12-18T09:52:26.000Z</time>
      </trkpt>
      <trkpt lat="43.74494" lon="3.93381">
        <ele>140</ele>
        <time>2016-12-18T09:52:31.000Z</time>
      </trkpt>
      <trkpt lat="43.74479" lon="3.93388">
        <ele>139.60000610352</ele>
        <time>2016-12-18T09:52:36.000Z</time>
      </trkpt>
      <trkpt lat="43.74469" lon="3.93394">
        <ele>139.39999389648</ele>
        <time>2016-12-18T09:52:40.000Z</time>
      </trkpt>
      <trkpt lat="43.74449" lon="3.93402">
        <ele>140</ele>
        <time>2016-12-18T09:52:47.000Z</time>
      </trkpt>
      <trkpt lat="43.74433" lon="3.93406">
        <ele>140.19999694824</ele>
        <time>2016-12-18T09:52:53.000Z</time>
      </trkpt>
      <trkpt lat="43.74418" lon="3.93408">
        <ele>139.60000610352</ele>
        <time>2016-12-18T09:52:58.000Z</time>
      </trkpt>
      <trkpt lat="43.74404" lon="3.93408">
        <ele>138.80000305176</ele>
        <time>2016-12-18T09:53:03.000Z</time>
      </trkpt>
      <trkpt lat="43.74389" lon="3.93407">
        <ele>138.39999389648</ele>
        <time>2016-12-18T09:53:08.000Z</time>
      </trkpt>
      <trkpt lat="43.7437" lon="3.93408">
        <ele>138</ele>
        <time>2016-12-18T09:53:14.000Z</time>
      </trkpt>
      <trkpt lat="43.74355" lon="3.93409">
        <ele>137.80000305176</ele>
        <time>2016-12-18T09:53:19.000Z</time>
      </trkpt>
      <trkpt lat="43.74337" lon="3.93411">
        <ele>137</ele>
        <time>2016-12-18T09:53:25.000Z</time>
      </trkpt>
      <trkpt lat="43.74322" lon="3.93415">
        <ele>136.39999389648</ele>
        <time>2016-12-18T09:53:30.000Z</time>
      </trkpt>
      <trkpt lat="43.74308" lon="3.93418">
        <ele>135.60000610352</ele>
        <time>2016-12-18T09:53:35.000Z</time>
      </trkpt>
      <trkpt lat="43.74301" lon="3.93411">
        <ele>134.80000305176</ele>
        <time>2016-12-18T09:53:38.000Z</time>
      </trkpt>
      <trkpt lat="43.743" lon="3.93407">
        <ele>134.39999389648</ele>
        <time>2016-12-18T09:53:39.000Z</time>
      </trkpt>
      <trkpt lat="43.74304" lon="3.9339">
        <ele>134</ele>
        <time>2016-12-18T09:53:43.000Z</time>
      </trkpt>
      <trkpt lat="43.74311" lon="3.93381">
        <ele>133.60000610352</ele>
        <time>2016-12-18T09:53:46.000Z</time>
      </trkpt>
      <trkpt lat="43.74317" lon="3.93371">
        <ele>133.19999694824</ele>
        <time>2016-12-18T09:53:49.000Z</time>
      </trkpt>
      <trkpt lat="43.74328" lon="3.93354">
        <ele>132.80000305176</ele>
        <time>2016-12-18T09:53:54.000Z</time>
      </trkpt>
      <trkpt lat="43.74337" lon="3.93333">
        <ele>134</ele>
        <time>2016-12-18T09:54:00.000Z</time>
      </trkpt>
      <trkpt lat="43.74337" lon="3.93324">
        <ele>133.80000305176</ele>
        <time>2016-12-18T09:54:02.000Z</time>
      </trkpt>
      <trkpt lat="43.74339" lon="3.9331">
        <ele>133.39999389648</ele>
        <time>2016-12-18T09:54:05.000Z</time>
      </trkpt>
      <trkpt lat="43.74345" lon="3.9329">
        <ele>132.60000610352</ele>
        <time>2016-12-18T09:54:10.000Z</time>
      </trkpt>
      <trkpt lat="43.74347" lon="3.93272">
        <ele>132.39999389648</ele>
        <time>2016-12-18T09:54:15.000Z</time>
      </trkpt>
      <trkpt lat="43.7434" lon="3.93267">
        <ele>133</ele>
        <time>2016-12-18T09:54:18.000Z</time>
      </trkpt>
      <trkpt lat="43.7433" lon="3.93265">
        <ele>133.60000610352</ele>
        <time>2016-12-18T09:54:22.000Z</time>
      </trkpt>
      <trkpt lat="43.74328" lon="3.93265">
        <ele>133.60000610352</ele>
        <time>2016-12-18T09:54:23.000Z</time>
      </trkpt>
      <trkpt lat="43.74312" lon="3.93263">
        <ele>134.19999694824</ele>
        <time>2016-12-18T09:54:29.000Z</time>
      </trkpt>
      <trkpt lat="43.74296" lon="3.93268">
        <ele>134.60000610352</ele>
        <time>2016-12-18T09:54:35.000Z</time>
      </trkpt>
      <trkpt lat="43.7428" lon="3.93275">
        <ele>134.80000305176</ele>
        <time>2016-12-18T09:54:41.000Z</time>
      </trkpt>
      <trkpt lat="43.74263" lon="3.93287">
        <ele>134.19999694824</ele>
        <time>2016-12-18T09:54:48.000Z</time>
      </trkpt>
      <trkpt lat="43.7425" lon="3.93294">
        <ele>133.60000610352</ele>
        <time>2016-12-18T09:54:53.000Z</time>
      </trkpt>
      <trkpt lat="43.74235" lon="3.93301">
        <ele>133</ele>
        <time>2016-12-18T09:54:59.000Z</time>
      </trkpt>
      <trkpt lat="43.74221" lon="3.93309">
        <ele>132.39999389648</ele>
        <time>2016-12-18T09:55:04.000Z</time>
      </trkpt>
      <trkpt lat="43.74204" lon="3.93316">
        <ele>131.60000610352</ele>
        <time>2016-12-18T09:55:10.000Z</time>
      </trkpt>
      <trkpt lat="43.74201" lon="3.93316">
        <ele>131.60000610352</ele>
        <time>2016-12-18T09:55:11.000Z</time>
      </trkpt>
      <trkpt lat="43.74184" lon="3.93325">
        <ele>131.19999694824</ele>
        <time>2016-12-18T09:55:17.000Z</time>
      </trkpt>
      <trkpt lat="43.74166" lon="3.93335">
        <ele>131.39999389648</ele>
        <time>2016-12-18T09:55:23.000Z</time>
      </trkpt>
      <trkpt lat="43.74164" lon="3.93337">
        <ele>131.19999694824</ele>
        <time>2016-12-18T09:55:24.000Z</time>
      </trkpt>
      <trkpt lat="43.74149" lon="3.93348">
        <ele>131</ele>
        <time>2016-12-18T09:55:30.000Z</time>
      </trkpt>
      <trkpt lat="43.7414" lon="3.93356">
        <ele>130.80000305176</ele>
        <time>2016-12-18T09:55:35.000Z</time>
      </trkpt>
      <trkpt lat="43.74132" lon="3.93364">
        <ele>131</ele>
        <time>2016-12-18T09:55:41.000Z</time>
      </trkpt>
      <trkpt lat="43.74123" lon="3.93368">
        <ele>131.19999694824</ele>
        <time>2016-12-18T09:55:45.000Z</time>
      </trkpt>
      <trkpt lat="43.74121" lon="3.93367">
        <ele>131.19999694824</ele>
        <time>2016-12-18T09:55:46.000Z</time>
      </trkpt>
      <trkpt lat="43.74109" lon="3.93359">
        <ele>131.80000305176</ele>
        <time>2016-12-18T09:55:51.000Z</time>
      </trkpt>
      <trkpt lat="43.74102" lon="3.93344">
        <ele>133</ele>
        <time>2016-12-18T09:55:56.000Z</time>
      </trkpt>
      <trkpt lat="43.74099" lon="3.93329">
        <ele>134.19999694824</ele>
        <time>2016-12-18T09:56:01.000Z</time>
      </trkpt>
      <trkpt lat="43.74107" lon="3.93313">
        <ele>135</ele>
        <time>2016-12-18T09:56:06.000Z</time>
      </trkpt>
      <trkpt lat="43.74116" lon="3.933">
        <ele>135.60000610352</ele>
        <time>2016-12-18T09:56:11.000Z</time>
      </trkpt>
      <trkpt lat="43.74128" lon="3.93281">
        <ele>136.39999389648</ele>
        <time>2016-12-18T09:56:18.000Z</time>
      </trkpt>
      <trkpt lat="43.74136" lon="3.93268">
        <ele>137</ele>
        <time>2016-12-18T09:56:23.000Z</time>
      </trkpt>
      <trkpt lat="43.74148" lon="3.93247">
        <ele>137.80000305176</ele>
        <time>2016-12-18T09:56:31.000Z</time>
      </trkpt>
      <trkpt lat="43.74155" lon="3.93231">
        <ele>138.80000305176</ele>
        <time>2016-12-18T09:56:37.000Z</time>
      </trkpt>
      <trkpt lat="43.74163" lon="3.93216">
        <ele>139.80000305176</ele>
        <time>2016-12-18T09:56:43.000Z</time>
      </trkpt>
      <trkpt lat="43.74171" lon="3.93204">
        <ele>140.39999389648</ele>
        <time>2016-12-18T09:56:48.000Z</time>
      </trkpt>
      <trkpt lat="43.7418" lon="3.93189">
        <ele>141.39999389648</ele>
        <time>2016-12-18T09:56:54.000Z</time>
      </trkpt>
      <trkpt lat="43.74188" lon="3.93175">
        <ele>143.19999694824</ele>
        <time>2016-12-18T09:57:00.000Z</time>
      </trkpt>
      <trkpt lat="43.74197" lon="3.93161">
        <ele>145.19999694824</ele>
        <time>2016-12-18T09:57:06.000Z</time>
      </trkpt>
      <trkpt lat="43.74206" lon="3.93141">
        <ele>148.19999694824</ele>
        <time>2016-12-18T09:57:14.000Z</time>
      </trkpt>
      <trkpt lat="43.74205" lon="3.93126">
        <ele>150.39999389648</ele>
        <time>2016-12-18T09:57:19.000Z</time>
      </trkpt>
      <trkpt lat="43.74202" lon="3.93118">
        <ele>151.39999389648</ele>
        <time>2016-12-18T09:57:22.000Z</time>
      </trkpt>
      <trkpt lat="43.74197" lon="3.93112">
        <ele>152</ele>
        <time>2016-12-18T09:57:25.000Z</time>
      </trkpt>
      <trkpt lat="43.74184" lon="3.93102">
        <ele>154.19999694824</ele>
        <time>2016-12-18T09:57:32.000Z</time>
      </trkpt>
      <trkpt lat="43.74175" lon="3.93093">
        <ele>156.39999389648</ele>
        <time>2016-12-18T09:57:37.000Z</time>
      </trkpt>
      <trkpt lat="43.74174" lon="3.93091">
        <ele>156.80000305176</ele>
        <time>2016-12-18T09:57:38.000Z</time>
      </trkpt>
      <trkpt lat="43.74169" lon="3.93076">
        <ele>160.19999694824</ele>
        <time>2016-12-18T09:57:44.000Z</time>
      </trkpt>
      <trkpt lat="43.74174" lon="3.9306">
        <ele>163.39999389648</ele>
        <time>2016-12-18T09:57:50.000Z</time>
      </trkpt>
      <trkpt lat="43.74183" lon="3.93049">
        <ele>165.60000610352</ele>
        <time>2016-12-18T09:57:56.000Z</time>
      </trkpt>
      <trkpt lat="43.74195" lon="3.93038">
        <ele>167.60000610352</ele>
        <time>2016-12-18T09:58:03.000Z</time>
      </trkpt>
      <trkpt lat="43.74208" lon="3.93027">
        <ele>169</ele>
        <time>2016-12-18T09:58:10.000Z</time>
      </trkpt>
      <trkpt lat="43.74219" lon="3.93019">
        <ele>169.80000305176</ele>
        <time>2016-12-18T09:58:16.000Z</time>
      </trkpt>
      <trkpt lat="43.74233" lon="3.9301">
        <ele>170.80000305176</ele>
        <time>2016-12-18T09:58:24.000Z</time>
      </trkpt>
      <trkpt lat="43.74246" lon="3.93001">
        <ele>171.80000305176</ele>
        <time>2016-12-18T09:58:31.000Z</time>
      </trkpt>
      <trkpt lat="43.74253" lon="3.92992">
        <ele>173.60000610352</ele>
        <time>2016-12-18T09:58:36.000Z</time>
      </trkpt>
      <trkpt lat="43.74262" lon="3.9298">
        <ele>175.80000305176</ele>
        <time>2016-12-18T09:58:42.000Z</time>
      </trkpt>
      <trkpt lat="43.7427" lon="3.92969">
        <ele>178.19999694824</ele>
        <time>2016-12-18T09:58:48.000Z</time>
      </trkpt>
      <trkpt lat="43.74279" lon="3.92956">
        <ele>180.39999389648</ele>
        <time>2016-12-18T09:58:54.000Z</time>
      </trkpt>
      <trkpt lat="43.74288" lon="3.92945">
        <ele>181.80000305176</ele>
        <time>2016-12-18T09:59:00.000Z</time>
      </trkpt>
      <trkpt lat="43.743" lon="3.92937">
        <ele>181.39999389648</ele>
        <time>2016-12-18T09:59:06.000Z</time>
      </trkpt>
      <trkpt lat="43.74312" lon="3.92929">
        <ele>180.60000610352</ele>
        <time>2016-12-18T09:59:12.000Z</time>
      </trkpt>
      <trkpt lat="43.7432" lon="3.92915">
        <ele>180.60000610352</ele>
        <time>2016-12-18T09:59:18.000Z</time>
      </trkpt>
      <trkpt lat="43.7433" lon="3.92905">
        <ele>180.60000610352</ele>
        <time>2016-12-18T09:59:23.000Z</time>
      </trkpt>
      <trkpt lat="43.74344" lon="3.92897">
        <ele>180.19999694824</ele>
        <time>2016-12-18T09:59:30.000Z</time>
      </trkpt>
      <trkpt lat="43.74353" lon="3.92888">
        <ele>180.39999389648</ele>
        <time>2016-12-18T09:59:35.000Z</time>
      </trkpt>
      <trkpt lat="43.74363" lon="3.92874">
        <ele>181</ele>
        <time>2016-12-18T09:59:41.000Z</time>
      </trkpt>
      <trkpt lat="43.74371" lon="3.92861">
        <ele>182.39999389648</ele>
        <time>2016-12-18T09:59:47.000Z</time>
      </trkpt>
      <trkpt lat="43.74371" lon="3.92858">
        <ele>182.80000305176</ele>
        <time>2016-12-18T09:59:48.000Z</time>
      </trkpt>
      <trkpt lat="43.74367" lon="3.92851">
        <ele>183.19999694824</ele>
        <time>2016-12-18T09:59:51.000Z</time>
      </trkpt>
      <trkpt lat="43.74361" lon="3.92849">
        <ele>183.60000610352</ele>
        <time>2016-12-18T09:59:54.000Z</time>
      </trkpt>
      <trkpt lat="43.74357" lon="3.92848">
        <ele>184</ele>
        <time>2016-12-18T09:59:56.000Z</time>
      </trkpt>
      <trkpt lat="43.74342" lon="3.92851">
        <ele>185.19999694824</ele>
        <time>2016-12-18T10:00:02.000Z</time>
      </trkpt>
      <trkpt lat="43.74328" lon="3.92852">
        <ele>186.39999389648</ele>
        <time>2016-12-18T10:00:08.000Z</time>
      </trkpt>
      <trkpt lat="43.74313" lon="3.92852">
        <ele>188</ele>
        <time>2016-12-18T10:00:14.000Z</time>
      </trkpt>
      <trkpt lat="43.74299" lon="3.92854">
        <ele>189.19999694824</ele>
        <time>2016-12-18T10:00:19.000Z</time>
      </trkpt>
      <trkpt lat="43.74287" lon="3.92859">
        <ele>190.19999694824</ele>
        <time>2016-12-18T10:00:24.000Z</time>
      </trkpt>
      <trkpt lat="43.74276" lon="3.92872">
        <ele>190.19999694824</ele>
        <time>2016-12-18T10:00:30.000Z</time>
      </trkpt>
      <trkpt lat="43.7426" lon="3.92883">
        <ele>190</ele>
        <time>2016-12-18T10:00:37.000Z</time>
      </trkpt>
      <trkpt lat="43.74247" lon="3.92893">
        <ele>189.19999694824</ele>
        <time>2016-12-18T10:00:43.000Z</time>
      </trkpt>
      <trkpt lat="43.74234" lon="3.92902">
        <ele>188.60000610352</ele>
        <time>2016-12-18T10:00:49.000Z</time>
      </trkpt>
      <trkpt lat="43.74223" lon="3.92904">
        <ele>189</ele>
        <time>2016-12-18T10:00:54.000Z</time>
      </trkpt>
      <trkpt lat="43.74206" lon="3.92904">
        <ele>189.80000305176</ele>
        <time>2016-12-18T10:01:01.000Z</time>
      </trkpt>
      <trkpt lat="43.74192" lon="3.929">
        <ele>190.80000305176</ele>
        <time>2016-12-18T10:01:07.000Z</time>
      </trkpt>
      <trkpt lat="43.74176" lon="3.92887">
        <ele>190.80000305176</ele>
        <time>2016-12-18T10:01:14.000Z</time>
      </trkpt>
      <trkpt lat="43.74164" lon="3.92877">
        <ele>190.39999389648</ele>
        <time>2016-12-18T10:01:20.000Z</time>
      </trkpt>
      <trkpt lat="43.74153" lon="3.92869">
        <ele>190</ele>
        <time>2016-12-18T10:01:25.000Z</time>
      </trkpt>
      <trkpt lat="43.74147" lon="3.92864">
        <ele>189.80000305176</ele>
        <time>2016-12-18T10:01:28.000Z</time>
      </trkpt>
      <trkpt lat="43.74142" lon="3.92864">
        <ele>189.39999389648</ele>
        <time>2016-12-18T10:01:30.000Z</time>
      </trkpt>
      <trkpt lat="43.74131" lon="3.92868">
        <ele>188.39999389648</ele>
        <time>2016-12-18T10:01:35.000Z</time>
      </trkpt>
      <trkpt lat="43.74126" lon="3.9287">
        <ele>188</ele>
        <time>2016-12-18T10:01:38.000Z</time>
      </trkpt>
      <trkpt lat="43.74125" lon="3.92871">
        <ele>187.80000305176</ele>
        <time>2016-12-18T10:01:39.000Z</time>
      </trkpt>
      <trkpt lat="43.74124" lon="3.92872">
        <ele>187.60000610352</ele>
        <time>2016-12-18T10:01:42.000Z</time>
      </trkpt>
      <trkpt lat="43.74121" lon="3.92876">
        <ele>187.39999389648</ele>
        <time>2016-12-18T10:01:44.000Z</time>
      </trkpt>
      <trkpt lat="43.74117" lon="3.9288">
        <ele>187</ele>
        <time>2016-12-18T10:01:46.000Z</time>
      </trkpt>
      <trkpt lat="43.74113" lon="3.92887">
        <ele>186.39999389648</ele>
        <time>2016-12-18T10:01:49.000Z</time>
      </trkpt>
      <trkpt lat="43.74102" lon="3.92901">
        <ele>185.19999694824</ele>
        <time>2016-12-18T10:01:54.000Z</time>
      </trkpt>
      <trkpt lat="43.74091" lon="3.92913">
        <ele>183</ele>
        <time>2016-12-18T10:01:59.000Z</time>
      </trkpt>
      <trkpt lat="43.74076" lon="3.92923">
        <ele>181.39999389648</ele>
        <time>2016-12-18T10:02:05.000Z</time>
      </trkpt>
      <trkpt lat="43.74062" lon="3.92928">
        <ele>180.60000610352</ele>
        <time>2016-12-18T10:02:10.000Z</time>
      </trkpt>
      <trkpt lat="43.74045" lon="3.92935">
        <ele>179.60000610352</ele>
        <time>2016-12-18T10:02:16.000Z</time>
      </trkpt>
      <trkpt lat="43.74028" lon="3.92941">
        <ele>178.60000610352</ele>
        <time>2016-12-18T10:02:22.000Z</time>
      </trkpt>
      <trkpt lat="43.74009" lon="3.92942">
        <ele>178</ele>
        <time>2016-12-18T10:02:29.000Z</time>
      </trkpt>
      <trkpt lat="43.73996" lon="3.92945">
        <ele>178</ele>
        <time>2016-12-18T10:02:34.000Z</time>
      </trkpt>
      <trkpt lat="43.73976" lon="3.92946">
        <ele>178.19999694824</ele>
        <time>2016-12-18T10:02:41.000Z</time>
      </trkpt>
      <trkpt lat="43.73963" lon="3.92945">
        <ele>178.39999389648</ele>
        <time>2016-12-18T10:02:46.000Z</time>
      </trkpt>
      <trkpt lat="43.73944" lon="3.92943">
        <ele>178.80000305176</ele>
        <time>2016-12-18T10:02:53.000Z</time>
      </trkpt>
      <trkpt lat="43.73935" lon="3.92941">
        <ele>178.80000305176</ele>
        <time>2016-12-18T10:02:56.000Z</time>
      </trkpt>
      <trkpt lat="43.73922" lon="3.92935">
        <ele>177.80000305176</ele>
        <time>2016-12-18T10:03:01.000Z</time>
      </trkpt>
      <trkpt lat="43.73908" lon="3.9293">
        <ele>176.80000305176</ele>
        <time>2016-12-18T10:03:06.000Z</time>
      </trkpt>
      <trkpt lat="43.73888" lon="3.92928">
        <ele>175.60000610352</ele>
        <time>2016-12-18T10:03:12.000Z</time>
      </trkpt>
      <trkpt lat="43.73868" lon="3.92926">
        <ele>174.80000305176</ele>
        <time>2016-12-18T10:03:19.000Z</time>
      </trkpt>
      <trkpt lat="43.73848" lon="3.92926">
        <ele>173.80000305176</ele>
        <time>2016-12-18T10:03:26.000Z</time>
      </trkpt>
      <trkpt lat="43.73833" lon="3.92925">
        <ele>172.60000610352</ele>
        <time>2016-12-18T10:03:31.000Z</time>
      </trkpt>
      <trkpt lat="43.73816" lon="3.92924">
        <ele>170.60000610352</ele>
        <time>2016-12-18T10:03:37.000Z</time>
      </trkpt>
      <trkpt lat="43.73798" lon="3.92923">
        <ele>168.80000305176</ele>
        <time>2016-12-18T10:03:43.000Z</time>
      </trkpt>
      <trkpt lat="43.73781" lon="3.92925">
        <ele>167</ele>
        <time>2016-12-18T10:03:49.000Z</time>
      </trkpt>
      <trkpt lat="43.73769" lon="3.92938">
        <ele>166.60000610352</ele>
        <time>2016-12-18T10:03:54.000Z</time>
      </trkpt>
      <trkpt lat="43.73758" lon="3.92961">
        <ele>164.39999389648</ele>
        <time>2016-12-18T10:04:00.000Z</time>
      </trkpt>
      <trkpt lat="43.73747" lon="3.92969">
        <ele>162.80000305176</ele>
        <time>2016-12-18T10:04:04.000Z</time>
      </trkpt>
      <trkpt lat="43.73736" lon="3.92966">
        <ele>161.80000305176</ele>
        <time>2016-12-18T10:04:08.000Z</time>
      </trkpt>
      <trkpt lat="43.73719" lon="3.92956">
        <ele>160.60000610352</ele>
        <time>2016-12-18T10:04:14.000Z</time>
      </trkpt>
      <trkpt lat="43.73704" lon="3.92943">
        <ele>159.60000610352</ele>
        <time>2016-12-18T10:04:20.000Z</time>
      </trkpt>
      <trkpt lat="43.73694" lon="3.92932">
        <ele>158.39999389648</ele>
        <time>2016-12-18T10:04:24.000Z</time>
      </trkpt>
      <trkpt lat="43.7368" lon="3.92921">
        <ele>156.39999389648</ele>
        <time>2016-12-18T10:04:29.000Z</time>
      </trkpt>
      <trkpt lat="43.73665" lon="3.92908">
        <ele>154.19999694824</ele>
        <time>2016-12-18T10:04:35.000Z</time>
      </trkpt>
      <trkpt lat="43.73659" lon="3.92905">
        <ele>153.60000610352</ele>
        <time>2016-12-18T10:04:37.000Z</time>
      </trkpt>
      <trkpt lat="43.73644" lon="3.92898">
        <ele>151.80000305176</ele>
        <time>2016-12-18T10:04:42.000Z</time>
      </trkpt>
      <trkpt lat="43.73631" lon="3.92889">
        <ele>149.80000305176</ele>
        <time>2016-12-18T10:04:47.000Z</time>
      </trkpt>
      <trkpt lat="43.73617" lon="3.92878">
        <ele>147.80000305176</ele>
        <time>2016-12-18T10:04:52.000Z</time>
      </trkpt>
      <trkpt lat="43.73603" lon="3.92866">
        <ele>145.80000305176</ele>
        <time>2016-12-18T10:04:57.000Z</time>
      </trkpt>
      <trkpt lat="43.73589" lon="3.92848">
        <ele>145.19999694824</ele>
        <time>2016-12-18T10:05:03.000Z</time>
      </trkpt>
      <trkpt lat="43.7358" lon="3.92831">
        <ele>145.19999694824</ele>
        <time>2016-12-18T10:05:08.000Z</time>
      </trkpt>
      <trkpt lat="43.7357" lon="3.92815">
        <ele>144.80000305176</ele>
        <time>2016-12-18T10:05:13.000Z</time>
      </trkpt>
      <trkpt lat="43.73556" lon="3.92798">
        <ele>144.19999694824</ele>
        <time>2016-12-18T10:05:19.000Z</time>
      </trkpt>
      <trkpt lat="43.7354" lon="3.92797">
        <ele>143.60000610352</ele>
        <time>2016-12-18T10:05:24.000Z</time>
      </trkpt>
      <trkpt lat="43.73524" lon="3.928">
        <ele>142.19999694824</ele>
        <time>2016-12-18T10:05:29.000Z</time>
      </trkpt>
      <trkpt lat="43.73508" lon="3.92806">
        <ele>141.60000610352</ele>
        <time>2016-12-18T10:05:34.000Z</time>
      </trkpt>
      <trkpt lat="43.73494" lon="3.92815">
        <ele>141.19999694824</ele>
        <time>2016-12-18T10:05:39.000Z</time>
      </trkpt>
      <trkpt lat="43.73492" lon="3.92817">
        <ele>141</ele>
        <time>2016-12-18T10:05:40.000Z</time>
      </trkpt>
      <trkpt lat="43.73482" lon="3.92827">
        <ele>140.39999389648</ele>
        <time>2016-12-18T10:05:44.000Z</time>
      </trkpt>
      <trkpt lat="43.73478" lon="3.92836">
        <ele>139.80000305176</ele>
        <time>2016-12-18T10:05:47.000Z</time>
      </trkpt>
      <trkpt lat="43.73479" lon="3.92839">
        <ele>139.60000610352</ele>
        <time>2016-12-18T10:05:48.000Z</time>
      </trkpt>
      <trkpt lat="43.73487" lon="3.92854">
        <ele>139</ele>
        <time>2016-12-18T10:05:53.000Z</time>
      </trkpt>
      <trkpt lat="43.7349" lon="3.92874">
        <ele>137.60000610352</ele>
        <time>2016-12-18T10:05:58.000Z</time>
      </trkpt>
      <trkpt lat="43.73493" lon="3.92895">
        <ele>136.19999694824</ele>
        <time>2016-12-18T10:06:03.000Z</time>
      </trkpt>
      <trkpt lat="43.73499" lon="3.92913">
        <ele>135.19999694824</ele>
        <time>2016-12-18T10:06:08.000Z</time>
      </trkpt>
      <trkpt lat="43.73505" lon="3.9293">
        <ele>134.39999389648</ele>
        <time>2016-12-18T10:06:13.000Z</time>
      </trkpt>
      <trkpt lat="43.73503" lon="3.92944">
        <ele>134</ele>
        <time>2016-12-18T10:06:17.000Z</time>
      </trkpt>
      <trkpt lat="43.73502" lon="3.9296">
        <ele>132.80000305176</ele>
        <time>2016-12-18T10:06:21.000Z</time>
      </trkpt>
      <trkpt lat="43.73499" lon="3.92981">
        <ele>131.39999389648</ele>
        <time>2016-12-18T10:06:26.000Z</time>
      </trkpt>
      <trkpt lat="43.735" lon="3.92997">
        <ele>130.19999694824</ele>
        <time>2016-12-18T10:06:30.000Z</time>
      </trkpt>
      <trkpt lat="43.73501" lon="3.93012">
        <ele>129.39999389648</ele>
        <time>2016-12-18T10:06:34.000Z</time>
      </trkpt>
      <trkpt lat="43.73494" lon="3.93036">
        <ele>129</ele>
        <time>2016-12-18T10:06:40.000Z</time>
      </trkpt>
      <trkpt lat="43.7349" lon="3.93054">
        <ele>128</ele>
        <time>2016-12-18T10:06:45.000Z</time>
      </trkpt>
      <trkpt lat="43.73493" lon="3.93076">
        <ele>126.59999847412</ele>
        <time>2016-12-18T10:06:51.000Z</time>
      </trkpt>
      <trkpt lat="43.73488" lon="3.93093">
        <ele>124.80000305176</ele>
        <time>2016-12-18T10:06:56.000Z</time>
      </trkpt>
      <trkpt lat="43.73477" lon="3.93105">
        <ele>123.40000152588</ele>
        <time>2016-12-18T10:07:01.000Z</time>
      </trkpt>
      <trkpt lat="43.73466" lon="3.93116">
        <ele>122.40000152588</ele>
        <time>2016-12-18T10:07:06.000Z</time>
      </trkpt>
      <trkpt lat="43.73462" lon="3.93131">
        <ele>121.59999847412</ele>
        <time>2016-12-18T10:07:10.000Z</time>
      </trkpt>
      <trkpt lat="43.73459" lon="3.93156">
        <ele>119.40000152588</ele>
        <time>2016-12-18T10:07:16.000Z</time>
      </trkpt>
      <trkpt lat="43.73452" lon="3.93177">
        <ele>117.40000152588</ele>
        <time>2016-12-18T10:07:22.000Z</time>
      </trkpt>
      <trkpt lat="43.73443" lon="3.93196">
        <ele>115.80000305176</ele>
        <time>2016-12-18T10:07:28.000Z</time>
      </trkpt>
      <trkpt lat="43.73434" lon="3.9322">
        <ele>115.40000152588</ele>
        <time>2016-12-18T10:07:35.000Z</time>
      </trkpt>
      <trkpt lat="43.73432" lon="3.9324">
        <ele>115</ele>
        <time>2016-12-18T10:07:40.000Z</time>
      </trkpt>
      <trkpt lat="43.7344" lon="3.93261">
        <ele>114.19999694824</ele>
        <time>2016-12-18T10:07:46.000Z</time>
      </trkpt>
      <trkpt lat="43.73449" lon="3.93277">
        <ele>113.80000305176</ele>
        <time>2016-12-18T10:07:51.000Z</time>
      </trkpt>
      <trkpt lat="43.73457" lon="3.93297">
        <ele>113.19999694824</ele>
        <time>2016-12-18T10:07:57.000Z</time>
      </trkpt>
      <trkpt lat="43.73463" lon="3.93313">
        <ele>112.59999847412</ele>
        <time>2016-12-18T10:08:02.000Z</time>
      </trkpt>
      <trkpt lat="43.73469" lon="3.93333">
        <ele>111.80000305176</ele>
        <time>2016-12-18T10:08:08.000Z</time>
      </trkpt>
      <trkpt lat="43.73474" lon="3.9335">
        <ele>111.19999694824</ele>
        <time>2016-12-18T10:08:13.000Z</time>
      </trkpt>
      <trkpt lat="43.73475" lon="3.93365">
        <ele>111.40000152588</ele>
        <time>2016-12-18T10:08:18.000Z</time>
      </trkpt>
      <trkpt lat="43.73484" lon="3.93378">
        <ele>112</ele>
        <time>2016-12-18T10:08:23.000Z</time>
      </trkpt>
      <trkpt lat="43.7349" lon="3.93392">
        <ele>112.59999847412</ele>
        <time>2016-12-18T10:08:28.000Z</time>
      </trkpt>
      <trkpt lat="43.73497" lon="3.93409">
        <ele>113.40000152588</ele>
        <time>2016-12-18T10:08:34.000Z</time>
      </trkpt>
      <trkpt lat="43.73507" lon="3.93432">
        <ele>114.59999847412</ele>
        <time>2016-12-18T10:08:42.000Z</time>
      </trkpt>
      <trkpt lat="43.73512" lon="3.93447">
        <ele>115.59999847412</ele>
        <time>2016-12-18T10:08:47.000Z</time>
      </trkpt>
      <trkpt lat="43.73516" lon="3.93465">
        <ele>116.59999847412</ele>
        <time>2016-12-18T10:08:53.000Z</time>
      </trkpt>
      <trkpt lat="43.73522" lon="3.93483">
        <ele>117.40000152588</ele>
        <time>2016-12-18T10:08:59.000Z</time>
      </trkpt>
      <trkpt lat="43.73526" lon="3.93498">
        <ele>118.19999694824</ele>
        <time>2016-12-18T10:09:04.000Z</time>
      </trkpt>
      <trkpt lat="43.73529" lon="3.93513">
        <ele>118.80000305176</ele>
        <time>2016-12-18T10:09:09.000Z</time>
      </trkpt>
      <trkpt lat="43.73533" lon="3.93533">
        <ele>119.80000305176</ele>
        <time>2016-12-18T10:09:16.000Z</time>
      </trkpt>
      <trkpt lat="43.73538" lon="3.93551">
        <ele>120.40000152588</ele>
        <time>2016-12-18T10:09:22.000Z</time>
      </trkpt>
      <trkpt lat="43.73543" lon="3.93573">
        <ele>121.19999694824</ele>
        <time>2016-12-18T10:09:29.000Z</time>
      </trkpt>
      <trkpt lat="43.73546" lon="3.93591">
        <ele>122</ele>
        <time>2016-12-18T10:09:35.000Z</time>
      </trkpt>
      <trkpt lat="43.7355" lon="3.93612">
        <ele>122.80000305176</ele>
        <time>2016-12-18T10:09:42.000Z</time>
      </trkpt>
      <trkpt lat="43.73555" lon="3.93633">
        <ele>124</ele>
        <time>2016-12-18T10:09:49.000Z</time>
      </trkpt>
      <trkpt lat="43.73559" lon="3.93649">
        <ele>124.59999847412</ele>
        <time>2016-12-18T10:09:54.000Z</time>
      </trkpt>
      <trkpt lat="43.73563" lon="3.93671">
        <ele>125.59999847412</ele>
        <time>2016-12-18T10:10:01.000Z</time>
      </trkpt>
      <trkpt lat="43.73566" lon="3.93688">
        <ele>126.19999694824</ele>
        <time>2016-12-18T10:10:06.000Z</time>
      </trkpt>
      <trkpt lat="43.73571" lon="3.93708">
        <ele>126.80000305176</ele>
        <time>2016-12-18T10:10:12.000Z</time>
      </trkpt>
      <trkpt lat="43.73576" lon="3.93729">
        <ele>127.40000152588</ele>
        <time>2016-12-18T10:10:18.000Z</time>
      </trkpt>
      <trkpt lat="43.73581" lon="3.93749">
        <ele>128</ele>
        <time>2016-12-18T10:10:23.000Z</time>
      </trkpt>
      <trkpt lat="43.73587" lon="3.9377">
        <ele>128.39999389648</ele>
        <time>2016-12-18T10:10:29.000Z</time>
      </trkpt>
      <trkpt lat="43.73591" lon="3.93788">
        <ele>129.39999389648</ele>
        <time>2016-12-18T10:10:34.000Z</time>
      </trkpt>
      <trkpt lat="43.73595" lon="3.93805">
        <ele>130.19999694824</ele>
        <time>2016-12-18T10:10:39.000Z</time>
      </trkpt>
      <trkpt lat="43.73599" lon="3.93824">
        <ele>131.19999694824</ele>
        <time>2016-12-18T10:10:45.000Z</time>
      </trkpt>
      <trkpt lat="43.73604" lon="3.93844">
        <ele>132.19999694824</ele>
        <time>2016-12-18T10:10:52.000Z</time>
      </trkpt>
      <trkpt lat="43.73608" lon="3.9386">
        <ele>133.19999694824</ele>
        <time>2016-12-18T10:10:58.000Z</time>
      </trkpt>
      <trkpt lat="43.7361" lon="3.93875">
        <ele>134.39999389648</ele>
        <time>2016-12-18T10:11:04.000Z</time>
      </trkpt>
      <trkpt lat="43.73612" lon="3.93888">
        <ele>135.39999389648</ele>
        <time>2016-12-18T10:11:09.000Z</time>
      </trkpt>
      <trkpt lat="43.73617" lon="3.939">
        <ele>136.39999389648</ele>
        <time>2016-12-18T10:11:14.000Z</time>
      </trkpt>
      <trkpt lat="43.73621" lon="3.93919">
        <ele>137.80000305176</ele>
        <time>2016-12-18T10:11:21.000Z</time>
      </trkpt>
      <trkpt lat="43.73624" lon="3.9394">
        <ele>139.39999389648</ele>
        <time>2016-12-18T10:11:29.000Z</time>
      </trkpt>
      <trkpt lat="43.73625" lon="3.93948">
        <ele>140</ele>
        <time>2016-12-18T10:11:32.000Z</time>
      </trkpt>
      <trkpt lat="43.73625" lon="3.93957">
        <ele>140.39999389648</ele>
        <time>2016-12-18T10:11:35.000Z</time>
      </trkpt>
      <trkpt lat="43.73623" lon="3.93979">
        <ele>141.80000305176</ele>
        <time>2016-12-18T10:11:42.000Z</time>
      </trkpt>
      <trkpt lat="43.73622" lon="3.94002">
        <ele>143</ele>
        <time>2016-12-18T10:11:49.000Z</time>
      </trkpt>
      <trkpt lat="43.7362" lon="3.94021">
        <ele>144.19999694824</ele>
        <time>2016-12-18T10:11:55.000Z</time>
      </trkpt>
      <trkpt lat="43.73619" lon="3.94041">
        <ele>144.80000305176</ele>
        <time>2016-12-18T10:12:01.000Z</time>
      </trkpt>
      <trkpt lat="43.73617" lon="3.94061">
        <ele>145.19999694824</ele>
        <time>2016-12-18T10:12:07.000Z</time>
      </trkpt>
      <trkpt lat="43.73615" lon="3.94084">
        <ele>145.60000610352</ele>
        <time>2016-12-18T10:12:13.000Z</time>
      </trkpt>
      <trkpt lat="43.73614" lon="3.94106">
        <ele>146.19999694824</ele>
        <time>2016-12-18T10:12:19.000Z</time>
      </trkpt>
      <trkpt lat="43.73612" lon="3.94132">
        <ele>145.80000305176</ele>
        <time>2016-12-18T10:12:26.000Z</time>
      </trkpt>
      <trkpt lat="43.73608" lon="3.94154">
        <ele>145.39999389648</ele>
        <time>2016-12-18T10:12:32.000Z</time>
      </trkpt>
      <trkpt lat="43.73606" lon="3.94179">
        <ele>145.19999694824</ele>
        <time>2016-12-18T10:12:38.000Z</time>
      </trkpt>
      <trkpt lat="43.73606" lon="3.94184">
        <ele>145.19999694824</ele>
        <time>2016-12-18T10:12:39.000Z</time>
      </trkpt>
      <trkpt lat="43.73602" lon="3.94209">
        <ele>144.39999389648</ele>
        <time>2016-12-18T10:12:45.000Z</time>
      </trkpt>
      <trkpt lat="43.73599" lon="3.94234">
        <ele>143.80000305176</ele>
        <time>2016-12-18T10:12:51.000Z</time>
      </trkpt>
      <trkpt lat="43.73596" lon="3.94247">
        <ele>143.19999694824</ele>
        <time>2016-12-18T10:12:55.000Z</time>
      </trkpt>
      <trkpt lat="43.73594" lon="3.94264">
        <ele>142.80000305176</ele>
        <time>2016-12-18T10:13:00.000Z</time>
      </trkpt>
      <trkpt lat="43.73591" lon="3.94287">
        <ele>143.80000305176</ele>
        <time>2016-12-18T10:13:07.000Z</time>
      </trkpt>
      <trkpt lat="43.7359" lon="3.94309">
        <ele>145</ele>
        <time>2016-12-18T10:13:14.000Z</time>
      </trkpt>
      <trkpt lat="43.7359" lon="3.94326">
        <ele>146.19999694824</ele>
        <time>2016-12-18T10:13:20.000Z</time>
      </trkpt>
      <trkpt lat="43.73589" lon="3.94345">
        <ele>147.39999389648</ele>
        <time>2016-12-18T10:13:26.000Z</time>
      </trkpt>
      <trkpt lat="43.73587" lon="3.94367">
        <ele>149.60000610352</ele>
        <time>2016-12-18T10:13:34.000Z</time>
      </trkpt>
      <trkpt lat="43.73586" lon="3.9438">
        <ele>151</ele>
        <time>2016-12-18T10:13:39.000Z</time>
      </trkpt>
      <trkpt lat="43.73586" lon="3.94383">
        <ele>151.39999389648</ele>
        <time>2016-12-18T10:13:40.000Z</time>
      </trkpt>
      <trkpt lat="43.73586" lon="3.94391">
        <ele>152.19999694824</ele>
        <time>2016-12-18T10:13:43.000Z</time>
      </trkpt>
      <trkpt lat="43.73585" lon="3.94406">
        <ele>154</ele>
        <time>2016-12-18T10:13:49.000Z</time>
      </trkpt>
      <trkpt lat="43.73583" lon="3.94418">
        <ele>155.39999389648</ele>
        <time>2016-12-18T10:13:54.000Z</time>
      </trkpt>
      <trkpt lat="43.73582" lon="3.94432">
        <ele>156.60000610352</ele>
        <time>2016-12-18T10:14:00.000Z</time>
      </trkpt>
      <trkpt lat="43.73581" lon="3.94449">
        <ele>158.60000610352</ele>
        <time>2016-12-18T10:14:08.000Z</time>
      </trkpt>
      <trkpt lat="43.73579" lon="3.94464">
        <ele>160.60000610352</ele>
        <time>2016-12-18T10:14:14.000Z</time>
      </trkpt>
      <trkpt lat="43.73578" lon="3.94478">
        <ele>162.60000610352</ele>
        <time>2016-12-18T10:14:20.000Z</time>
      </trkpt>
      <trkpt lat="43.73577" lon="3.94492">
        <ele>164.80000305176</ele>
        <time>2016-12-18T10:14:26.000Z</time>
      </trkpt>
      <trkpt lat="43.73574" lon="3.94507">
        <ele>166</ele>
        <time>2016-12-18T10:14:32.000Z</time>
      </trkpt>
      <trkpt lat="43.73573" lon="3.94522">
        <ele>167</ele>
        <time>2016-12-18T10:14:38.000Z</time>
      </trkpt>
      <trkpt lat="43.73572" lon="3.94534">
        <ele>167.80000305176</ele>
        <time>2016-12-18T10:14:43.000Z</time>
      </trkpt>
      <trkpt lat="43.73574" lon="3.94551">
        <ele>169.19999694824</ele>
        <time>2016-12-18T10:14:49.000Z</time>
      </trkpt>
      <trkpt lat="43.73578" lon="3.94563">
        <ele>170.19999694824</ele>
        <time>2016-12-18T10:14:54.000Z</time>
      </trkpt>
      <trkpt lat="43.73577" lon="3.94565">
        <ele>170.39999389648</ele>
        <time>2016-12-18T10:14:55.000Z</time>
      </trkpt>
      <trkpt lat="43.73574" lon="3.94572">
        <ele>170.60000610352</ele>
        <time>2016-12-18T10:14:58.000Z</time>
      </trkpt>
      <trkpt lat="43.73572" lon="3.94585">
        <ele>171.39999389648</ele>
        <time>2016-12-18T10:15:03.000Z</time>
      </trkpt>
      <trkpt lat="43.73573" lon="3.94601">
        <ele>172.60000610352</ele>
        <time>2016-12-18T10:15:09.000Z</time>
      </trkpt>
      <trkpt lat="43.73579" lon="3.94616">
        <ele>173.80000305176</ele>
        <time>2016-12-18T10:15:15.000Z</time>
      </trkpt>
      <trkpt lat="43.73584" lon="3.9463">
        <ele>174.39999389648</ele>
        <time>2016-12-18T10:15:20.000Z</time>
      </trkpt>
      <trkpt lat="43.73583" lon="3.94633">
        <ele>174.39999389648</ele>
        <time>2016-12-18T10:15:21.000Z</time>
      </trkpt>
      <trkpt lat="43.73579" lon="3.94641">
        <ele>174.19999694824</ele>
        <time>2016-12-18T10:15:24.000Z</time>
      </trkpt>
      <trkpt lat="43.73579" lon="3.94652">
        <ele>174.60000610352</ele>
        <time>2016-12-18T10:15:28.000Z</time>
      </trkpt>
      <trkpt lat="43.7358" lon="3.94655">
        <ele>174.60000610352</ele>
        <time>2016-12-18T10:15:29.000Z</time>
      </trkpt>
      <trkpt lat="43.73582" lon="3.94673">
        <ele>175.19999694824</ele>
        <time>2016-12-18T10:15:35.000Z</time>
      </trkpt>
      <trkpt lat="43.73583" lon="3.94689">
        <ele>175.60000610352</ele>
        <time>2016-12-18T10:15:40.000Z</time>
      </trkpt>
      <trkpt lat="43.73587" lon="3.94704">
        <ele>175.19999694824</ele>
        <time>2016-12-18T10:15:45.000Z</time>
      </trkpt>
      <trkpt lat="43.73595" lon="3.94719">
        <ele>175</ele>
        <time>2016-12-18T10:15:51.000Z</time>
      </trkpt>
      <trkpt lat="43.73602" lon="3.94734">
        <ele>174.80000305176</ele>
        <time>2016-12-18T10:15:56.000Z</time>
      </trkpt>
      <trkpt lat="43.73613" lon="3.9475">
        <ele>174.80000305176</ele>
        <time>2016-12-18T10:16:02.000Z</time>
      </trkpt>
      <trkpt lat="43.73627" lon="3.94767">
        <ele>175</ele>
        <time>2016-12-18T10:16:09.000Z</time>
      </trkpt>
      <trkpt lat="43.73638" lon="3.94778">
        <ele>175.19999694824</ele>
        <time>2016-12-18T10:16:14.000Z</time>
      </trkpt>
      <trkpt lat="43.73651" lon="3.94787">
        <ele>175.80000305176</ele>
        <time>2016-12-18T10:16:20.000Z</time>
      </trkpt>
      <trkpt lat="43.73666" lon="3.94794">
        <ele>176.60000610352</ele>
        <time>2016-12-18T10:16:26.000Z</time>
      </trkpt>
      <trkpt lat="43.73677" lon="3.94798">
        <ele>177.19999694824</ele>
        <time>2016-12-18T10:16:31.000Z</time>
      </trkpt>
      <trkpt lat="43.73694" lon="3.94805">
        <ele>178.19999694824</ele>
        <time>2016-12-18T10:16:38.000Z</time>
      </trkpt>
      <trkpt lat="43.73709" lon="3.94809">
        <ele>179.39999389648</ele>
        <time>2016-12-18T10:16:44.000Z</time>
      </trkpt>
      <trkpt lat="43.73724" lon="3.94812">
        <ele>180.80000305176</ele>
        <time>2016-12-18T10:16:50.000Z</time>
      </trkpt>
      <trkpt lat="43.73741" lon="3.94817">
        <ele>181.80000305176</ele>
        <time>2016-12-18T10:16:57.000Z</time>
      </trkpt>
      <trkpt lat="43.73756" lon="3.9482">
        <ele>182.60000610352</ele>
        <time>2016-12-18T10:17:03.000Z</time>
      </trkpt>
      <trkpt lat="43.73772" lon="3.94823">
        <ele>183.39999389648</ele>
        <time>2016-12-18T10:17:10.000Z</time>
      </trkpt>
      <trkpt lat="43.73789" lon="3.94828">
        <ele>184.19999694824</ele>
        <time>2016-12-18T10:17:17.000Z</time>
      </trkpt>
      <trkpt lat="43.73806" lon="3.94831">
        <ele>185</ele>
        <time>2016-12-18T10:17:24.000Z</time>
      </trkpt>
      <trkpt lat="43.73825" lon="3.94835">
        <ele>185.80000305176</ele>
        <time>2016-12-18T10:17:31.000Z</time>
      </trkpt>
      <trkpt lat="43.73839" lon="3.94837">
        <ele>186.60000610352</ele>
        <time>2016-12-18T10:17:36.000Z</time>
      </trkpt>
      <trkpt lat="43.73859" lon="3.9484">
        <ele>187</ele>
        <time>2016-12-18T10:17:43.000Z</time>
      </trkpt>
      <trkpt lat="43.73865" lon="3.9484">
        <ele>186.60000610352</ele>
        <time>2016-12-18T10:17:45.000Z</time>
      </trkpt>
      <trkpt lat="43.7388" lon="3.9484">
        <ele>185.60000610352</ele>
        <time>2016-12-18T10:17:50.000Z</time>
      </trkpt>
      <trkpt lat="43.73894" lon="3.94837">
        <ele>184.80000305176</ele>
        <time>2016-12-18T10:17:55.000Z</time>
      </trkpt>
      <trkpt lat="43.73897" lon="3.94836">
        <ele>184.60000610352</ele>
        <time>2016-12-18T10:17:56.000Z</time>
      </trkpt>
      <trkpt lat="43.73912" lon="3.94834">
        <ele>183.80000305176</ele>
        <time>2016-12-18T10:18:01.000Z</time>
      </trkpt>
      <trkpt lat="43.73927" lon="3.94834">
        <ele>182.80000305176</ele>
        <time>2016-12-18T10:18:06.000Z</time>
      </trkpt>
      <trkpt lat="43.7394" lon="3.94838">
        <ele>182</ele>
        <time>2016-12-18T10:18:11.000Z</time>
      </trkpt>
      <trkpt lat="43.73959" lon="3.94846">
        <ele>181.80000305176</ele>
        <time>2016-12-18T10:18:18.000Z</time>
      </trkpt>
      <trkpt lat="43.73973" lon="3.94854">
        <ele>181.60000610352</ele>
        <time>2016-12-18T10:18:24.000Z</time>
      </trkpt>
      <trkpt lat="43.73984" lon="3.94862">
        <ele>181</ele>
        <time>2016-12-18T10:18:29.000Z</time>
      </trkpt>
      <trkpt lat="43.73995" lon="3.94869">
        <ele>180.19999694824</ele>
        <time>2016-12-18T10:18:34.000Z</time>
      </trkpt>
      <trkpt lat="43.74007" lon="3.94879">
        <ele>179.19999694824</ele>
        <time>2016-12-18T10:18:40.000Z</time>
      </trkpt>
      <trkpt lat="43.74016" lon="3.9489">
        <ele>178</ele>
        <time>2016-12-18T10:18:46.000Z</time>
      </trkpt>
      <trkpt lat="43.74016" lon="3.94893">
        <ele>177.60000610352</ele>
        <time>2016-12-18T10:18:47.000Z</time>
      </trkpt>
      <trkpt lat="43.74013" lon="3.94906">
        <ele>176.39999389648</ele>
        <time>2016-12-18T10:18:52.000Z</time>
      </trkpt>
      <trkpt lat="43.74009" lon="3.94911">
        <ele>176</ele>
        <time>2016-12-18T10:18:55.000Z</time>
      </trkpt>
      <trkpt lat="43.7401" lon="3.94913">
        <ele>175.80000305176</ele>
        <time>2016-12-18T10:18:56.000Z</time>
      </trkpt>
      <trkpt lat="43.74007" lon="3.94926">
        <ele>174.60000610352</ele>
        <time>2016-12-18T10:19:01.000Z</time>
      </trkpt>
      <trkpt lat="43.73999" lon="3.94929">
        <ele>173.19999694824</ele>
        <time>2016-12-18T10:19:05.000Z</time>
      </trkpt>
      <trkpt lat="43.73997" lon="3.94928">
        <ele>173.19999694824</ele>
        <time>2016-12-18T10:19:06.000Z</time>
      </trkpt>
      <trkpt lat="43.73985" lon="3.94922">
        <ele>173</ele>
        <time>2016-12-18T10:19:11.000Z</time>
      </trkpt>
      <trkpt lat="43.73977" lon="3.94912">
        <ele>174.39999389648</ele>
        <time>2016-12-18T10:19:15.000Z</time>
      </trkpt>
      <trkpt lat="43.73975" lon="3.9491">
        <ele>174.39999389648</ele>
        <time>2016-12-18T10:19:16.000Z</time>
      </trkpt>
      <trkpt lat="43.73966" lon="3.94901">
        <ele>175.39999389648</ele>
        <time>2016-12-18T10:19:21.000Z</time>
      </trkpt>
      <trkpt lat="43.73962" lon="3.94906">
        <ele>173.80000305176</ele>
        <time>2016-12-18T10:19:25.000Z</time>
      </trkpt>
      <trkpt lat="43.73961" lon="3.9491">
        <ele>173</ele>
        <time>2016-12-18T10:19:26.000Z</time>
      </trkpt>
      <trkpt lat="43.73959" lon="3.94923">
        <ele>169.80000305176</ele>
        <time>2016-12-18T10:19:30.000Z</time>
      </trkpt>
      <trkpt lat="43.73956" lon="3.94931">
        <ele>167.39999389648</ele>
        <time>2016-12-18T10:19:33.000Z</time>
      </trkpt>
      <trkpt lat="43.73951" lon="3.94935">
        <ele>166</ele>
        <time>2016-12-18T10:19:35.000Z</time>
      </trkpt>
      <trkpt lat="43.73943" lon="3.94936">
        <ele>164.60000610352</ele>
        <time>2016-12-18T10:19:40.000Z</time>
      </trkpt>
      <trkpt lat="43.73932" lon="3.94932">
        <ele>165.19999694824</ele>
        <time>2016-12-18T10:19:44.000Z</time>
      </trkpt>
      <trkpt lat="43.73928" lon="3.94929">
        <ele>166.19999694824</ele>
        <time>2016-12-18T10:19:47.000Z</time>
      </trkpt>
      <trkpt lat="43.73928" lon="3.94929">
        <ele>166.19999694824</ele>
        <time>2016-12-18T10:19:48.000Z</time>
      </trkpt>
      <trkpt lat="43.7392" lon="3.94932">
        <ele>166</ele>
        <time>2016-12-18T10:19:52.000Z</time>
      </trkpt>
      <trkpt lat="43.73919" lon="3.94934">
        <ele>165.60000610352</ele>
        <time>2016-12-18T10:19:56.000Z</time>
      </trkpt>
      <trkpt lat="43.73912" lon="3.94934">
        <ele>166</ele>
        <time>2016-12-18T10:20:03.000Z</time>
      </trkpt>
      <trkpt lat="43.73897" lon="3.94939">
        <ele>165.80000305176</ele>
        <time>2016-12-18T10:20:09.000Z</time>
      </trkpt>
      <trkpt lat="43.73881" lon="3.94939">
        <ele>166.80000305176</ele>
        <time>2016-12-18T10:20:15.000Z</time>
      </trkpt>
      <trkpt lat="43.73879" lon="3.94939">
        <ele>166.80000305176</ele>
        <time>2016-12-18T10:20:16.000Z</time>
      </trkpt>
      <trkpt lat="43.73872" lon="3.94942">
        <ele>166.80000305176</ele>
        <time>2016-12-18T10:20:19.000Z</time>
      </trkpt>
      <trkpt lat="43.73854" lon="3.94948">
        <ele>166.60000610352</ele>
        <time>2016-12-18T10:20:26.000Z</time>
      </trkpt>
      <trkpt lat="43.73841" lon="3.94957">
        <ele>164.60000610352</ele>
        <time>2016-12-18T10:20:32.000Z</time>
      </trkpt>
      <trkpt lat="43.73827" lon="3.94961">
        <ele>163.60000610352</ele>
        <time>2016-12-18T10:20:38.000Z</time>
      </trkpt>
      <trkpt lat="43.73825" lon="3.94962">
        <ele>163.39999389648</ele>
        <time>2016-12-18T10:20:39.000Z</time>
      </trkpt>
      <trkpt lat="43.73818" lon="3.9496">
        <ele>163.39999389648</ele>
        <time>2016-12-18T10:20:42.000Z</time>
      </trkpt>
      <trkpt lat="43.73803" lon="3.94959">
        <ele>163.39999389648</ele>
        <time>2016-12-18T10:20:48.000Z</time>
      </trkpt>
      <trkpt lat="43.73794" lon="3.94959">
        <ele>163.19999694824</ele>
        <time>2016-12-18T10:20:54.000Z</time>
      </trkpt>
      <trkpt lat="43.73793" lon="3.94958">
        <ele>163.19999694824</ele>
        <time>2016-12-18T10:21:02.000Z</time>
      </trkpt>
      <trkpt lat="43.73803" lon="3.94956">
        <ele>163.80000305176</ele>
        <time>2016-12-18T10:21:07.000Z</time>
      </trkpt>
      <trkpt lat="43.73823" lon="3.94957">
        <ele>164.19999694824</ele>
        <time>2016-12-18T10:21:14.000Z</time>
      </trkpt>
      <trkpt lat="43.73841" lon="3.94954">
        <ele>165.19999694824</ele>
        <time>2016-12-18T10:21:20.000Z</time>
      </trkpt>
      <trkpt lat="43.73858" lon="3.94944">
        <ele>167.19999694824</ele>
        <time>2016-12-18T10:21:26.000Z</time>
      </trkpt>
      <trkpt lat="43.73878" lon="3.94938">
        <ele>167.19999694824</ele>
        <time>2016-12-18T10:21:33.000Z</time>
      </trkpt>
      <trkpt lat="43.73895" lon="3.94937">
        <ele>166.39999389648</ele>
        <time>2016-12-18T10:21:39.000Z</time>
      </trkpt>
      <trkpt lat="43.73914" lon="3.94932">
        <ele>166.39999389648</ele>
        <time>2016-12-18T10:21:46.000Z</time>
      </trkpt>
      <trkpt lat="43.73929" lon="3.94927">
        <ele>166.60000610352</ele>
        <time>2016-12-18T10:21:52.000Z</time>
      </trkpt>
      <trkpt lat="43.73937" lon="3.94931">
        <ele>165.19999694824</ele>
        <time>2016-12-18T10:21:57.000Z</time>
      </trkpt>
      <trkpt lat="43.73947" lon="3.94934">
        <ele>165.60000610352</ele>
        <time>2016-12-18T10:22:03.000Z</time>
      </trkpt>
      <trkpt lat="43.73948" lon="3.94934">
        <ele>165.80000305176</ele>
        <time>2016-12-18T10:22:04.000Z</time>
      </trkpt>
      <trkpt lat="43.73951" lon="3.94934">
        <ele>166.19999694824</ele>
        <time>2016-12-18T10:22:07.000Z</time>
      </trkpt>
      <trkpt lat="43.73956" lon="3.94935">
        <ele>166.60000610352</ele>
        <time>2016-12-18T10:22:12.000Z</time>
      </trkpt>
      <trkpt lat="43.73963" lon="3.94937">
        <ele>167</ele>
        <time>2016-12-18T10:22:16.000Z</time>
      </trkpt>
      <trkpt lat="43.73964" lon="3.94937">
        <ele>167</ele>
        <time>2016-12-18T10:22:17.000Z</time>
      </trkpt>
      <trkpt lat="43.7397" lon="3.94945">
        <ele>166.19999694824</ele>
        <time>2016-12-18T10:22:21.000Z</time>
      </trkpt>
      <trkpt lat="43.73978" lon="3.9495">
        <ele>166.19999694824</ele>
        <time>2016-12-18T10:22:25.000Z</time>
      </trkpt>
      <trkpt lat="43.73979" lon="3.94952">
        <ele>166</ele>
        <time>2016-12-18T10:22:26.000Z</time>
      </trkpt>
      <trkpt lat="43.73987" lon="3.94957">
        <ele>166</ele>
        <time>2016-12-18T10:22:31.000Z</time>
      </trkpt>
      <trkpt lat="43.73997" lon="3.9496">
        <ele>166.39999389648</ele>
        <time>2016-12-18T10:22:37.000Z</time>
      </trkpt>
      <trkpt lat="43.73998" lon="3.94961">
        <ele>166.39999389648</ele>
        <time>2016-12-18T10:22:38.000Z</time>
      </trkpt>
      <trkpt lat="43.74002" lon="3.94964">
        <ele>166.39999389648</ele>
        <time>2016-12-18T10:22:42.000Z</time>
      </trkpt>
      <trkpt lat="43.74003" lon="3.94965">
        <ele>166.39999389648</ele>
        <time>2016-12-18T10:22:44.000Z</time>
      </trkpt>
      <trkpt lat="43.74007" lon="3.94967">
        <ele>166.19999694824</ele>
        <time>2016-12-18T10:22:48.000Z</time>
      </trkpt>
      <trkpt lat="43.74015" lon="3.94973">
        <ele>166.19999694824</ele>
        <time>2016-12-18T10:22:53.000Z</time>
      </trkpt>
      <trkpt lat="43.74025" lon="3.94977">
        <ele>166.19999694824</ele>
        <time>2016-12-18T10:22:58.000Z</time>
      </trkpt>
      <trkpt lat="43.74037" lon="3.94979">
        <ele>166.39999389648</ele>
        <time>2016-12-18T10:23:04.000Z</time>
      </trkpt>
      <trkpt lat="43.74048" lon="3.94977">
        <ele>167.39999389648</ele>
        <time>2016-12-18T10:23:09.000Z</time>
      </trkpt>
      <trkpt lat="43.74063" lon="3.94977">
        <ele>168</ele>
        <time>2016-12-18T10:23:16.000Z</time>
      </trkpt>
      <trkpt lat="43.74068" lon="3.94979">
        <ele>168</ele>
        <time>2016-12-18T10:23:19.000Z</time>
      </trkpt>
      <trkpt lat="43.74071" lon="3.9498">
        <ele>167.80000305176</ele>
        <time>2016-12-18T10:23:21.000Z</time>
      </trkpt>
      <trkpt lat="43.74078" lon="3.94979">
        <ele>168.19999694824</ele>
        <time>2016-12-18T10:23:25.000Z</time>
      </trkpt>
      <trkpt lat="43.7408" lon="3.94982">
        <ele>167.60000610352</ele>
        <time>2016-12-18T10:23:28.000Z</time>
      </trkpt>
      <trkpt lat="43.74081" lon="3.94983">
        <ele>167.60000610352</ele>
        <time>2016-12-18T10:23:29.000Z</time>
      </trkpt>
      <trkpt lat="43.74087" lon="3.94991">
        <ele>166.39999389648</ele>
        <time>2016-12-18T10:23:33.000Z</time>
      </trkpt>
      <trkpt lat="43.74093" lon="3.9499">
        <ele>166.80000305176</ele>
        <time>2016-12-18T10:23:36.000Z</time>
      </trkpt>
      <trkpt lat="43.74095" lon="3.94989">
        <ele>167</ele>
        <time>2016-12-18T10:23:37.000Z</time>
      </trkpt>
      <trkpt lat="43.74107" lon="3.94985">
        <ele>167.80000305176</ele>
        <time>2016-12-18T10:23:42.000Z</time>
      </trkpt>
      <trkpt lat="43.74108" lon="3.94987">
        <ele>167.39999389648</ele>
        <time>2016-12-18T10:23:44.000Z</time>
      </trkpt>
      <trkpt lat="43.74108" lon="3.94989">
        <ele>167</ele>
        <time>2016-12-18T10:23:45.000Z</time>
      </trkpt>
      <trkpt lat="43.74111" lon="3.94992">
        <ele>166.19999694824</ele>
        <time>2016-12-18T10:23:49.000Z</time>
      </trkpt>
      <trkpt lat="43.74115" lon="3.94992">
        <ele>166</ele>
        <time>2016-12-18T10:23:53.000Z</time>
      </trkpt>
      <trkpt lat="43.74118" lon="3.94993">
        <ele>165.60000610352</ele>
        <time>2016-12-18T10:23:54.000Z</time>
      </trkpt>
      <trkpt lat="43.74126" lon="3.94999">
        <ele>164</ele>
        <time>2016-12-18T10:23:59.000Z</time>
      </trkpt>
      <trkpt lat="43.74135" lon="3.95014">
        <ele>160.60000610352</ele>
        <time>2016-12-18T10:24:05.000Z</time>
      </trkpt>
      <trkpt lat="43.74143" lon="3.95021">
        <ele>158.80000305176</ele>
        <time>2016-12-18T10:24:09.000Z</time>
      </trkpt>
      <trkpt lat="43.74157" lon="3.9502">
        <ele>158</ele>
        <time>2016-12-18T10:24:14.000Z</time>
      </trkpt>
      <trkpt lat="43.74172" lon="3.95017">
        <ele>157.39999389648</ele>
        <time>2016-12-18T10:24:19.000Z</time>
      </trkpt>
      <trkpt lat="43.74188" lon="3.95015">
        <ele>156.39999389648</ele>
        <time>2016-12-18T10:24:25.000Z</time>
      </trkpt>
      <trkpt lat="43.74203" lon="3.95007">
        <ele>158</ele>
        <time>2016-12-18T10:24:31.000Z</time>
      </trkpt>
      <trkpt lat="43.74216" lon="3.94996">
        <ele>160.19999694824</ele>
        <time>2016-12-18T10:24:37.000Z</time>
      </trkpt>
      <trkpt lat="43.74231" lon="3.94988">
        <ele>161.60000610352</ele>
        <time>2016-12-18T10:24:44.000Z</time>
      </trkpt>
      <trkpt lat="43.74242" lon="3.9498">
        <ele>162.80000305176</ele>
        <time>2016-12-18T10:24:49.000Z</time>
      </trkpt>
      <trkpt lat="43.74247" lon="3.94973">
        <ele>163.60000610352</ele>
        <time>2016-12-18T10:24:52.000Z</time>
      </trkpt>
      <trkpt lat="43.74251" lon="3.94965">
        <ele>164.80000305176</ele>
        <time>2016-12-18T10:24:55.000Z</time>
      </trkpt>
      <trkpt lat="43.7426" lon="3.94953">
        <ele>166.39999389648</ele>
        <time>2016-12-18T10:25:01.000Z</time>
      </trkpt>
      <trkpt lat="43.74271" lon="3.94947">
        <ele>167</ele>
        <time>2016-12-18T10:25:06.000Z</time>
      </trkpt>
      <trkpt lat="43.74286" lon="3.94939">
        <ele>167.19999694824</ele>
        <time>2016-12-18T10:25:13.000Z</time>
      </trkpt>
      <trkpt lat="43.743" lon="3.94935">
        <ele>167</ele>
        <time>2016-12-18T10:25:19.000Z</time>
      </trkpt>
      <trkpt lat="43.7432" lon="3.94925">
        <ele>167.60000610352</ele>
        <time>2016-12-18T10:25:27.000Z</time>
      </trkpt>
      <trkpt lat="43.74332" lon="3.94918">
        <ele>168.39999389648</ele>
        <time>2016-12-18T10:25:32.000Z</time>
      </trkpt>
      <trkpt lat="43.74345" lon="3.94912">
        <ele>168.80000305176</ele>
        <time>2016-12-18T10:25:37.000Z</time>
      </trkpt>
      <trkpt lat="43.74361" lon="3.94902">
        <ele>169.60000610352</ele>
        <time>2016-12-18T10:25:43.000Z</time>
      </trkpt>
      <trkpt lat="43.74375" lon="3.9489">
        <ele>170.80000305176</ele>
        <time>2016-12-18T10:25:49.000Z</time>
      </trkpt>
      <trkpt lat="43.74387" lon="3.94879">
        <ele>170.80000305176</ele>
        <time>2016-12-18T10:25:54.000Z</time>
      </trkpt>
      <trkpt lat="43.744" lon="3.94869">
        <ele>170</ele>
        <time>2016-12-18T10:25:59.000Z</time>
      </trkpt>
      <trkpt lat="43.74419" lon="3.94857">
        <ele>168.39999389648</ele>
        <time>2016-12-18T10:26:06.000Z</time>
      </trkpt>
      <trkpt lat="43.74438" lon="3.94849">
        <ele>166.80000305176</ele>
        <time>2016-12-18T10:26:13.000Z</time>
      </trkpt>
      <trkpt lat="43.74441" lon="3.94848">
        <ele>166.80000305176</ele>
        <time>2016-12-18T10:26:14.000Z</time>
      </trkpt>
      <trkpt lat="43.7446" lon="3.94842">
        <ele>167.19999694824</ele>
        <time>2016-12-18T10:26:21.000Z</time>
      </trkpt>
      <trkpt lat="43.74476" lon="3.94839">
        <ele>167.19999694824</ele>
        <time>2016-12-18T10:26:27.000Z</time>
      </trkpt>
      <trkpt lat="43.74494" lon="3.94839">
        <ele>166.19999694824</ele>
        <time>2016-12-18T10:26:34.000Z</time>
      </trkpt>
      <trkpt lat="43.74497" lon="3.94842">
        <ele>165.39999389648</ele>
        <time>2016-12-18T10:26:37.000Z</time>
      </trkpt>
      <trkpt lat="43.74498" lon="3.94843">
        <ele>165.19999694824</ele>
        <time>2016-12-18T10:26:38.000Z</time>
      </trkpt>
      <trkpt lat="43.74502" lon="3.94852">
        <ele>163.19999694824</ele>
        <time>2016-12-18T10:26:42.000Z</time>
      </trkpt>
      <trkpt lat="43.74509" lon="3.9487">
        <ele>160.19999694824</ele>
        <time>2016-12-18T10:26:47.000Z</time>
      </trkpt>
      <trkpt lat="43.74515" lon="3.94886">
        <ele>158.19999694824</ele>
        <time>2016-12-18T10:26:52.000Z</time>
      </trkpt>
      <trkpt lat="43.74519" lon="3.9491">
        <ele>155.39999389648</ele>
        <time>2016-12-18T10:26:58.000Z</time>
      </trkpt>
      <trkpt lat="43.74521" lon="3.9493">
        <ele>153.19999694824</ele>
        <time>2016-12-18T10:27:03.000Z</time>
      </trkpt>
      <trkpt lat="43.74526" lon="3.94954">
        <ele>150.60000610352</ele>
        <time>2016-12-18T10:27:09.000Z</time>
      </trkpt>
      <trkpt lat="43.74533" lon="3.94975">
        <ele>148.19999694824</ele>
        <time>2016-12-18T10:27:15.000Z</time>
      </trkpt>
      <trkpt lat="43.74532" lon="3.94991">
        <ele>147</ele>
        <time>2016-12-18T10:27:19.000Z</time>
      </trkpt>
      <trkpt lat="43.74522" lon="3.94997">
        <ele>147.19999694824</ele>
        <time>2016-12-18T10:27:23.000Z</time>
      </trkpt>
      <trkpt lat="43.74508" lon="3.94999">
        <ele>147.19999694824</ele>
        <time>2016-12-18T10:27:28.000Z</time>
      </trkpt>
      <trkpt lat="43.74494" lon="3.94994">
        <ele>147.80000305176</ele>
        <time>2016-12-18T10:27:33.000Z</time>
      </trkpt>
      <trkpt lat="43.7448" lon="3.94988">
        <ele>148.39999389648</ele>
        <time>2016-12-18T10:27:38.000Z</time>
      </trkpt>
      <trkpt lat="43.74466" lon="3.94989">
        <ele>148.19999694824</ele>
        <time>2016-12-18T10:27:43.000Z</time>
      </trkpt>
      <trkpt lat="43.74459" lon="3.94992">
        <ele>147.80000305176</ele>
        <time>2016-12-18T10:27:46.000Z</time>
      </trkpt>
      <trkpt lat="43.74456" lon="3.94999">
        <ele>147</ele>
        <time>2016-12-18T10:27:48.000Z</time>
      </trkpt>
      <trkpt lat="43.74453" lon="3.95019">
        <ele>144.80000305176</ele>
        <time>2016-12-18T10:27:53.000Z</time>
      </trkpt>
      <trkpt lat="43.74455" lon="3.95038">
        <ele>143</ele>
        <time>2016-12-18T10:27:58.000Z</time>
      </trkpt>
      <trkpt lat="43.7446" lon="3.95066">
        <ele>141.39999389648</ele>
        <time>2016-12-18T10:28:05.000Z</time>
      </trkpt>
      <trkpt lat="43.74466" lon="3.95092">
        <ele>140</ele>
        <time>2016-12-18T10:28:12.000Z</time>
      </trkpt>
      <trkpt lat="43.74474" lon="3.95114">
        <ele>138.60000610352</ele>
        <time>2016-12-18T10:28:18.000Z</time>
      </trkpt>
      <trkpt lat="43.74486" lon="3.95124">
        <ele>137.39999389648</ele>
        <time>2016-12-18T10:28:23.000Z</time>
      </trkpt>
      <trkpt lat="43.74503" lon="3.95127">
        <ele>136.80000305176</ele>
        <time>2016-12-18T10:28:28.000Z</time>
      </trkpt>
      <trkpt lat="43.74521" lon="3.95127">
        <ele>136.39999389648</ele>
        <time>2016-12-18T10:28:34.000Z</time>
      </trkpt>
      <trkpt lat="43.74539" lon="3.95128">
        <ele>135.39999389648</ele>
        <time>2016-12-18T10:28:40.000Z</time>
      </trkpt>
      <trkpt lat="43.74551" lon="3.95142">
        <ele>133.60000610352</ele>
        <time>2016-12-18T10:28:45.000Z</time>
      </trkpt>
      <trkpt lat="43.74558" lon="3.95149">
        <ele>132.80000305176</ele>
        <time>2016-12-18T10:28:49.000Z</time>
      </trkpt>
      <trkpt lat="43.74561" lon="3.95148">
        <ele>132.60000610352</ele>
        <time>2016-12-18T10:28:50.000Z</time>
      </trkpt>
      <trkpt lat="43.74572" lon="3.95144">
        <ele>132.39999389648</ele>
        <time>2016-12-18T10:28:54.000Z</time>
      </trkpt>
      <trkpt lat="43.74577" lon="3.95143">
        <ele>132.39999389648</ele>
        <time>2016-12-18T10:28:56.000Z</time>
      </trkpt>
      <trkpt lat="43.74596" lon="3.9514">
        <ele>131.60000610352</ele>
        <time>2016-12-18T10:29:02.000Z</time>
      </trkpt>
      <trkpt lat="43.74612" lon="3.95133">
        <ele>131.39999389648</ele>
        <time>2016-12-18T10:29:07.000Z</time>
      </trkpt>
      <trkpt lat="43.74632" lon="3.95127">
        <ele>130.39999389648</ele>
        <time>2016-12-18T10:29:14.000Z</time>
      </trkpt>
      <trkpt lat="43.74651" lon="3.95135">
        <ele>128.39999389648</ele>
        <time>2016-12-18T10:29:20.000Z</time>
      </trkpt>
      <trkpt lat="43.74654" lon="3.95135">
        <ele>128.19999694824</ele>
        <time>2016-12-18T10:29:21.000Z</time>
      </trkpt>
      <trkpt lat="43.74672" lon="3.95136">
        <ele>126.59999847412</ele>
        <time>2016-12-18T10:29:27.000Z</time>
      </trkpt>
      <trkpt lat="43.74687" lon="3.95135">
        <ele>125.40000152588</ele>
        <time>2016-12-18T10:29:33.000Z</time>
      </trkpt>
      <trkpt lat="43.74692" lon="3.95136">
        <ele>125.19999694824</ele>
        <time>2016-12-18T10:29:35.000Z</time>
      </trkpt>
      <trkpt lat="43.74696" lon="3.95142">
        <ele>124.59999847412</ele>
        <time>2016-12-18T10:29:37.000Z</time>
      </trkpt>
      <trkpt lat="43.74702" lon="3.95156">
        <ele>123.59999847412</ele>
        <time>2016-12-18T10:29:41.000Z</time>
      </trkpt>
      <trkpt lat="43.74703" lon="3.9516">
        <ele>123.40000152588</ele>
        <time>2016-12-18T10:29:42.000Z</time>
      </trkpt>
      <trkpt lat="43.74709" lon="3.95174">
        <ele>122.19999694824</ele>
        <time>2016-12-18T10:29:46.000Z</time>
      </trkpt>
      <trkpt lat="43.74717" lon="3.9519">
        <ele>121</ele>
        <time>2016-12-18T10:29:51.000Z</time>
      </trkpt>
      <trkpt lat="43.74736" lon="3.95202">
        <ele>119.80000305176</ele>
        <time>2016-12-18T10:29:57.000Z</time>
      </trkpt>
      <trkpt lat="43.74754" lon="3.95206">
        <ele>119</ele>
        <time>2016-12-18T10:30:03.000Z</time>
      </trkpt>
      <trkpt lat="43.74758" lon="3.95207">
        <ele>119</ele>
        <time>2016-12-18T10:30:04.000Z</time>
      </trkpt>
      <trkpt lat="43.74773" lon="3.9521">
        <ele>118.19999694824</ele>
        <time>2016-12-18T10:30:09.000Z</time>
      </trkpt>
      <trkpt lat="43.74776" lon="3.95211">
        <ele>117.80000305176</ele>
        <time>2016-12-18T10:30:10.000Z</time>
      </trkpt>
      <trkpt lat="43.74789" lon="3.95218">
        <ele>116.40000152588</ele>
        <time>2016-12-18T10:30:15.000Z</time>
      </trkpt>
      <trkpt lat="43.74804" lon="3.95233">
        <ele>114.80000305176</ele>
        <time>2016-12-18T10:30:21.000Z</time>
      </trkpt>
      <trkpt lat="43.74818" lon="3.95249">
        <ele>113</ele>
        <time>2016-12-18T10:30:27.000Z</time>
      </trkpt>
      <trkpt lat="43.74834" lon="3.95258">
        <ele>111.19999694824</ele>
        <time>2016-12-18T10:30:33.000Z</time>
      </trkpt>
      <trkpt lat="43.74853" lon="3.95269">
        <ele>109.19999694824</ele>
        <time>2016-12-18T10:30:40.000Z</time>
      </trkpt>
      <trkpt lat="43.7487" lon="3.95281">
        <ele>108.80000305176</ele>
        <time>2016-12-18T10:30:46.000Z</time>
      </trkpt>
      <trkpt lat="43.74873" lon="3.95283">
        <ele>108.80000305176</ele>
        <time>2016-12-18T10:30:47.000Z</time>
      </trkpt>
      <trkpt lat="43.74885" lon="3.95296">
        <ele>108.40000152588</ele>
        <time>2016-12-18T10:30:52.000Z</time>
      </trkpt>
      <trkpt lat="43.74897" lon="3.95307">
        <ele>108.19999694824</ele>
        <time>2016-12-18T10:30:57.000Z</time>
      </trkpt>
      <trkpt lat="43.74916" lon="3.95317">
        <ele>108</ele>
        <time>2016-12-18T10:31:04.000Z</time>
      </trkpt>
      <trkpt lat="43.74933" lon="3.95327">
        <ele>107.80000305176</ele>
        <time>2016-12-18T10:31:10.000Z</time>
      </trkpt>
      <trkpt lat="43.74946" lon="3.95338">
        <ele>107.40000152588</ele>
        <time>2016-12-18T10:31:15.000Z</time>
      </trkpt>
      <trkpt lat="43.74957" lon="3.95353">
        <ele>107.19999694824</ele>
        <time>2016-12-18T10:31:20.000Z</time>
      </trkpt>
      <trkpt lat="43.74969" lon="3.95372">
        <ele>106.40000152588</ele>
        <time>2016-12-18T10:31:26.000Z</time>
      </trkpt>
      <trkpt lat="43.74978" lon="3.95389">
        <ele>105.59999847412</ele>
        <time>2016-12-18T10:31:31.000Z</time>
      </trkpt>
      <trkpt lat="43.74985" lon="3.95406">
        <ele>104.59999847412</ele>
        <time>2016-12-18T10:31:36.000Z</time>
      </trkpt>
      <trkpt lat="43.74994" lon="3.95428">
        <ele>104</ele>
        <time>2016-12-18T10:31:42.000Z</time>
      </trkpt>
      <trkpt lat="43.74996" lon="3.95431">
        <ele>103.80000305176</ele>
        <time>2016-12-18T10:31:43.000Z</time>
      </trkpt>
      <trkpt lat="43.75003" lon="3.95449">
        <ele>103.40000152588</ele>
        <time>2016-12-18T10:31:48.000Z</time>
      </trkpt>
      <trkpt lat="43.75009" lon="3.95466">
        <ele>103.19999694824</ele>
        <time>2016-12-18T10:31:53.000Z</time>
      </trkpt>
      <trkpt lat="43.75018" lon="3.95491">
        <ele>103</ele>
        <time>2016-12-18T10:32:00.000Z</time>
      </trkpt>
      <trkpt lat="43.75023" lon="3.95508">
        <ele>103</ele>
        <time>2016-12-18T10:32:05.000Z</time>
      </trkpt>
      <trkpt lat="43.75028" lon="3.95522">
        <ele>102.80000305176</ele>
        <time>2016-12-18T10:32:09.000Z</time>
      </trkpt>
      <trkpt lat="43.75035" lon="3.95545">
        <ele>102.59999847412</ele>
        <time>2016-12-18T10:32:15.000Z</time>
      </trkpt>
      <trkpt lat="43.75048" lon="3.95566">
        <ele>102.40000152588</ele>
        <time>2016-12-18T10:32:21.000Z</time>
      </trkpt>
      <trkpt lat="43.75051" lon="3.95577">
        <ele>102.19999694824</ele>
        <time>2016-12-18T10:32:24.000Z</time>
      </trkpt>
      <trkpt lat="43.75049" lon="3.9558">
        <ele>102.40000152588</ele>
        <time>2016-12-18T10:32:25.000Z</time>
      </trkpt>
      <trkpt lat="43.75039" lon="3.95587">
        <ele>102.59999847412</ele>
        <time>2016-12-18T10:32:30.000Z</time>
      </trkpt>
      <trkpt lat="43.75037" lon="3.95589">
        <ele>102.59999847412</ele>
        <time>2016-12-18T10:32:31.000Z</time>
      </trkpt>
      <trkpt lat="43.75025" lon="3.95597">
        <ele>103</ele>
        <time>2016-12-18T10:32:36.000Z</time>
      </trkpt>
      <trkpt lat="43.75011" lon="3.95607">
        <ele>102.80000305176</ele>
        <time>2016-12-18T10:32:41.000Z</time>
      </trkpt>
      <trkpt lat="43.74999" lon="3.95621">
        <ele>102.40000152588</ele>
        <time>2016-12-18T10:32:46.000Z</time>
      </trkpt>
      <trkpt lat="43.7499" lon="3.95637">
        <ele>102.19999694824</ele>
        <time>2016-12-18T10:32:51.000Z</time>
      </trkpt>
      <trkpt lat="43.74979" lon="3.95656">
        <ele>102.19999694824</ele>
        <time>2016-12-18T10:32:57.000Z</time>
      </trkpt>
      <trkpt lat="43.74971" lon="3.95675">
        <ele>102.59999847412</ele>
        <time>2016-12-18T10:33:02.000Z</time>
      </trkpt>
      <trkpt lat="43.74962" lon="3.95693">
        <ele>103</ele>
        <time>2016-12-18T10:33:07.000Z</time>
      </trkpt>
      <trkpt lat="43.74951" lon="3.95713">
        <ele>102.80000305176</ele>
        <time>2016-12-18T10:33:13.000Z</time>
      </trkpt>
      <trkpt lat="43.74943" lon="3.95727">
        <ele>103</ele>
        <time>2016-12-18T10:33:17.000Z</time>
      </trkpt>
      <trkpt lat="43.74934" lon="3.95739">
        <ele>103</ele>
        <time>2016-12-18T10:33:23.000Z</time>
      </trkpt>
    </trkseg>
  </trk>
</gpx>